<?xml version="1.0" encoding="UTF-8" standalone="no" ?>
<gpx xmlns="http://www.topografix.com/GPX/1/1" xmlns:xsi="http://www.w3.org/2001/XMLSchema-instance" xsi:schemaLocation="http://www.topografix.com/GPX/1/1 http://www.topografix.com/GPX/1/1/gpx.xsd" version="1.1" creator="VisuGPX - https://www.visugpx.com">
  <metadata>
    <name>SityTrail - 20240702-Tostes</name>
    <desc><![CDATA[Boucle A-R au départ de la salle des Fetes rue du Puits]]></desc>
  </metadata>
  <trk>
    <name><![CDATA[SityTrail - 20240702-Tostes]]></name>
    <desc><![CDATA[Boucle A-R au départ de la salle des Fetes rue du Puits]]></desc>
    <trkseg>
      <trkpt lat="49.25938" lon="1.11136">
        <ele>122</ele>
        <time>2024-07-02T11:50:51.590+00:00</time>
      </trkpt>
      <trkpt lat="49.25938" lon="1.11136">
        <ele>122</ele>
        <time>2024-07-02T11:50:51.590+00:00</time>
      </trkpt>
      <trkpt lat="49.25938" lon="1.11135">
        <ele>122</ele>
        <time>2024-07-02T11:55:31.600+00:00</time>
      </trkpt>
      <trkpt lat="49.25939" lon="1.11134">
        <ele>122</ele>
        <time>2024-07-02T11:55:35.604+00:00</time>
      </trkpt>
      <trkpt lat="49.25941" lon="1.11133">
        <ele>122</ele>
        <time>2024-07-02T11:55:39.612+00:00</time>
      </trkpt>
      <trkpt lat="49.25945" lon="1.11131">
        <ele>122</ele>
        <time>2024-07-02T11:55:44.584+00:00</time>
      </trkpt>
      <trkpt lat="49.25947" lon="1.1113">
        <ele>122</ele>
        <time>2024-07-02T11:55:48.602+00:00</time>
      </trkpt>
      <trkpt lat="49.25947" lon="1.1113">
        <ele>122</ele>
        <time>2024-07-02T11:55:55.626+00:00</time>
      </trkpt>
      <trkpt lat="49.2595" lon="1.11126">
        <ele>122</ele>
        <time>2024-07-02T11:55:59.612+00:00</time>
      </trkpt>
      <trkpt lat="49.25955" lon="1.11123">
        <ele>122</ele>
        <time>2024-07-02T11:56:04.611+00:00</time>
      </trkpt>
      <trkpt lat="49.25961" lon="1.1112">
        <ele>122</ele>
        <time>2024-07-02T11:56:09.606+00:00</time>
      </trkpt>
      <trkpt lat="49.25966" lon="1.11118">
        <ele>122</ele>
        <time>2024-07-02T11:56:13.847+00:00</time>
      </trkpt>
      <trkpt lat="49.2597" lon="1.11115">
        <ele>122</ele>
        <time>2024-07-02T11:56:17.946+00:00</time>
      </trkpt>
      <trkpt lat="49.25975" lon="1.11113">
        <ele>122</ele>
        <time>2024-07-02T11:56:21.930+00:00</time>
      </trkpt>
      <trkpt lat="49.2598" lon="1.1111">
        <ele>122</ele>
        <time>2024-07-02T11:56:26.508+00:00</time>
      </trkpt>
      <trkpt lat="49.25985" lon="1.11111">
        <ele>122</ele>
        <time>2024-07-02T11:56:31.615+00:00</time>
      </trkpt>
      <trkpt lat="49.25986" lon="1.11112">
        <ele>123</ele>
        <time>2024-07-02T11:56:36.616+00:00</time>
      </trkpt>
      <trkpt lat="49.25987" lon="1.11114">
        <ele>123</ele>
        <time>2024-07-02T11:56:40.601+00:00</time>
      </trkpt>
      <trkpt lat="49.25992" lon="1.11113">
        <ele>123</ele>
        <time>2024-07-02T11:56:45.186+00:00</time>
      </trkpt>
      <trkpt lat="49.25996" lon="1.11116">
        <ele>123</ele>
        <time>2024-07-02T11:56:49.528+00:00</time>
      </trkpt>
      <trkpt lat="49.26001" lon="1.11119">
        <ele>123</ele>
        <time>2024-07-02T11:56:53.960+00:00</time>
      </trkpt>
      <trkpt lat="49.26006" lon="1.11123">
        <ele>123</ele>
        <time>2024-07-02T11:56:58.500+00:00</time>
      </trkpt>
      <trkpt lat="49.26008" lon="1.11132">
        <ele>123</ele>
        <time>2024-07-02T11:57:03.050+00:00</time>
      </trkpt>
      <trkpt lat="49.2601" lon="1.1114">
        <ele>123</ele>
        <time>2024-07-02T11:57:07.574+00:00</time>
      </trkpt>
      <trkpt lat="49.26011" lon="1.11147">
        <ele>123</ele>
        <time>2024-07-02T11:57:11.628+00:00</time>
      </trkpt>
      <trkpt lat="49.26013" lon="1.11155">
        <ele>123</ele>
        <time>2024-07-02T11:57:16.187+00:00</time>
      </trkpt>
      <trkpt lat="49.26014" lon="1.11162">
        <ele>122</ele>
        <time>2024-07-02T11:57:20.750+00:00</time>
      </trkpt>
      <trkpt lat="49.26015" lon="1.1117">
        <ele>122</ele>
        <time>2024-07-02T11:57:25.248+00:00</time>
      </trkpt>
      <trkpt lat="49.26016" lon="1.11177">
        <ele>122</ele>
        <time>2024-07-02T11:57:29.746+00:00</time>
      </trkpt>
      <trkpt lat="49.26017" lon="1.11185">
        <ele>122</ele>
        <time>2024-07-02T11:57:34.289+00:00</time>
      </trkpt>
      <trkpt lat="49.26019" lon="1.11191">
        <ele>122</ele>
        <time>2024-07-02T11:57:38.619+00:00</time>
      </trkpt>
      <trkpt lat="49.26023" lon="1.11193">
        <ele>122</ele>
        <time>2024-07-02T11:57:42.762+00:00</time>
      </trkpt>
      <trkpt lat="49.26028" lon="1.11192">
        <ele>122</ele>
        <time>2024-07-02T11:57:47.578+00:00</time>
      </trkpt>
      <trkpt lat="49.26033" lon="1.11192">
        <ele>122</ele>
        <time>2024-07-02T11:57:52.589+00:00</time>
      </trkpt>
      <trkpt lat="49.26036" lon="1.11188">
        <ele>122</ele>
        <time>2024-07-02T11:57:56.730+00:00</time>
      </trkpt>
      <trkpt lat="49.26042" lon="1.11191">
        <ele>121</ele>
        <time>2024-07-02T11:58:01.328+00:00</time>
      </trkpt>
      <trkpt lat="49.26048" lon="1.11195">
        <ele>121</ele>
        <time>2024-07-02T11:58:05.372+00:00</time>
      </trkpt>
      <trkpt lat="49.26052" lon="1.11198">
        <ele>121</ele>
        <time>2024-07-02T11:58:09.347+00:00</time>
      </trkpt>
      <trkpt lat="49.26058" lon="1.112">
        <ele>121</ele>
        <time>2024-07-02T11:58:13.849+00:00</time>
      </trkpt>
      <trkpt lat="49.26062" lon="1.11202">
        <ele>121</ele>
        <time>2024-07-02T11:58:17.888+00:00</time>
      </trkpt>
      <trkpt lat="49.26067" lon="1.11204">
        <ele>121</ele>
        <time>2024-07-02T11:58:21.954+00:00</time>
      </trkpt>
      <trkpt lat="49.26071" lon="1.11206">
        <ele>120</ele>
        <time>2024-07-02T11:58:26.047+00:00</time>
      </trkpt>
      <trkpt lat="49.26077" lon="1.11207">
        <ele>120</ele>
        <time>2024-07-02T11:58:30.610+00:00</time>
      </trkpt>
      <trkpt lat="49.2608" lon="1.11203">
        <ele>120</ele>
        <time>2024-07-02T11:58:34.787+00:00</time>
      </trkpt>
      <trkpt lat="49.26084" lon="1.11199">
        <ele>120</ele>
        <time>2024-07-02T11:58:39.165+00:00</time>
      </trkpt>
      <trkpt lat="49.26087" lon="1.11194">
        <ele>120</ele>
        <time>2024-07-02T11:58:43.208+00:00</time>
      </trkpt>
      <trkpt lat="49.26088" lon="1.11187">
        <ele>120</ele>
        <time>2024-07-02T11:58:47.328+00:00</time>
      </trkpt>
      <trkpt lat="49.2609" lon="1.11181">
        <ele>120</ele>
        <time>2024-07-02T11:58:51.410+00:00</time>
      </trkpt>
      <trkpt lat="49.26092" lon="1.11174">
        <ele>121</ele>
        <time>2024-07-02T11:58:56.029+00:00</time>
      </trkpt>
      <trkpt lat="49.26094" lon="1.11168">
        <ele>121</ele>
        <time>2024-07-02T11:59:00.082+00:00</time>
      </trkpt>
      <trkpt lat="49.26096" lon="1.11162">
        <ele>121</ele>
        <time>2024-07-02T11:59:04.161+00:00</time>
      </trkpt>
      <trkpt lat="49.26099" lon="1.11156">
        <ele>120</ele>
        <time>2024-07-02T11:59:08.243+00:00</time>
      </trkpt>
      <trkpt lat="49.26101" lon="1.11149">
        <ele>121</ele>
        <time>2024-07-02T11:59:12.347+00:00</time>
      </trkpt>
      <trkpt lat="49.26103" lon="1.11142">
        <ele>121</ele>
        <time>2024-07-02T11:59:16.407+00:00</time>
      </trkpt>
      <trkpt lat="49.26106" lon="1.11137">
        <ele>121</ele>
        <time>2024-07-02T11:59:20.464+00:00</time>
      </trkpt>
      <trkpt lat="49.26108" lon="1.1113">
        <ele>121</ele>
        <time>2024-07-02T11:59:24.546+00:00</time>
      </trkpt>
      <trkpt lat="49.2611" lon="1.11124">
        <ele>122</ele>
        <time>2024-07-02T11:59:28.585+00:00</time>
      </trkpt>
      <trkpt lat="49.26112" lon="1.11117">
        <ele>122</ele>
        <time>2024-07-02T11:59:32.808+00:00</time>
      </trkpt>
      <trkpt lat="49.26115" lon="1.11112">
        <ele>122</ele>
        <time>2024-07-02T11:59:36.889+00:00</time>
      </trkpt>
      <trkpt lat="49.26116" lon="1.11106">
        <ele>122</ele>
        <time>2024-07-02T11:59:41.601+00:00</time>
      </trkpt>
      <trkpt lat="49.26119" lon="1.111">
        <ele>122</ele>
        <time>2024-07-02T11:59:45.611+00:00</time>
      </trkpt>
      <trkpt lat="49.26122" lon="1.11093">
        <ele>123</ele>
        <time>2024-07-02T11:59:50.286+00:00</time>
      </trkpt>
      <trkpt lat="49.26125" lon="1.11087">
        <ele>123</ele>
        <time>2024-07-02T11:59:54.307+00:00</time>
      </trkpt>
      <trkpt lat="49.26128" lon="1.11081">
        <ele>123</ele>
        <time>2024-07-02T11:59:58.411+00:00</time>
      </trkpt>
      <trkpt lat="49.2613" lon="1.11075">
        <ele>123</ele>
        <time>2024-07-02T12:00:02.514+00:00</time>
      </trkpt>
      <trkpt lat="49.26132" lon="1.11068">
        <ele>123</ele>
        <time>2024-07-02T12:00:06.543+00:00</time>
      </trkpt>
      <trkpt lat="49.26134" lon="1.11061">
        <ele>123</ele>
        <time>2024-07-02T12:00:10.603+00:00</time>
      </trkpt>
      <trkpt lat="49.26137" lon="1.11054">
        <ele>123</ele>
        <time>2024-07-02T12:00:15.269+00:00</time>
      </trkpt>
      <trkpt lat="49.2614" lon="1.11047">
        <ele>123</ele>
        <time>2024-07-02T12:00:19.341+00:00</time>
      </trkpt>
      <trkpt lat="49.26142" lon="1.11041">
        <ele>124</ele>
        <time>2024-07-02T12:00:23.405+00:00</time>
      </trkpt>
      <trkpt lat="49.26144" lon="1.11036">
        <ele>124</ele>
        <time>2024-07-02T12:00:27.448+00:00</time>
      </trkpt>
      <trkpt lat="49.26147" lon="1.11029">
        <ele>124</ele>
        <time>2024-07-02T12:00:31.988+00:00</time>
      </trkpt>
      <trkpt lat="49.2615" lon="1.11021">
        <ele>124</ele>
        <time>2024-07-02T12:00:36.505+00:00</time>
      </trkpt>
      <trkpt lat="49.26152" lon="1.11015">
        <ele>124</ele>
        <time>2024-07-02T12:00:40.583+00:00</time>
      </trkpt>
      <trkpt lat="49.26152" lon="1.11008">
        <ele>125</ele>
        <time>2024-07-02T12:00:44.984+00:00</time>
      </trkpt>
      <trkpt lat="49.26155" lon="1.11002">
        <ele>125</ele>
        <time>2024-07-02T12:00:49.171+00:00</time>
      </trkpt>
      <trkpt lat="49.26157" lon="1.10997">
        <ele>125</ele>
        <time>2024-07-02T12:00:53.264+00:00</time>
      </trkpt>
      <trkpt lat="49.2616" lon="1.10992">
        <ele>125</ele>
        <time>2024-07-02T12:00:57.324+00:00</time>
      </trkpt>
      <trkpt lat="49.26163" lon="1.10984">
        <ele>126</ele>
        <time>2024-07-02T12:01:01.926+00:00</time>
      </trkpt>
      <trkpt lat="49.26166" lon="1.10978">
        <ele>126</ele>
        <time>2024-07-02T12:01:05.949+00:00</time>
      </trkpt>
      <trkpt lat="49.26168" lon="1.10971">
        <ele>126</ele>
        <time>2024-07-02T12:01:10.090+00:00</time>
      </trkpt>
      <trkpt lat="49.2617" lon="1.10964">
        <ele>126</ele>
        <time>2024-07-02T12:01:14.161+00:00</time>
      </trkpt>
      <trkpt lat="49.26173" lon="1.10958">
        <ele>127</ele>
        <time>2024-07-02T12:01:18.303+00:00</time>
      </trkpt>
      <trkpt lat="49.26177" lon="1.10952">
        <ele>127</ele>
        <time>2024-07-02T12:01:22.444+00:00</time>
      </trkpt>
      <trkpt lat="49.2618" lon="1.10946">
        <ele>127</ele>
        <time>2024-07-02T12:01:26.604+00:00</time>
      </trkpt>
      <trkpt lat="49.26182" lon="1.10941">
        <ele>127</ele>
        <time>2024-07-02T12:01:30.830+00:00</time>
      </trkpt>
      <trkpt lat="49.26185" lon="1.10934">
        <ele>127</ele>
        <time>2024-07-02T12:01:34.950+00:00</time>
      </trkpt>
      <trkpt lat="49.26187" lon="1.10928">
        <ele>127</ele>
        <time>2024-07-02T12:01:39.026+00:00</time>
      </trkpt>
      <trkpt lat="49.2619" lon="1.10922">
        <ele>127</ele>
        <time>2024-07-02T12:01:43.110+00:00</time>
      </trkpt>
      <trkpt lat="49.2619" lon="1.10916">
        <ele>127</ele>
        <time>2024-07-02T12:01:47.167+00:00</time>
      </trkpt>
      <trkpt lat="49.26194" lon="1.10909">
        <ele>127</ele>
        <time>2024-07-02T12:01:51.750+00:00</time>
      </trkpt>
      <trkpt lat="49.26197" lon="1.10902">
        <ele>126</ele>
        <time>2024-07-02T12:01:56.284+00:00</time>
      </trkpt>
      <trkpt lat="49.26197" lon="1.10894">
        <ele>126</ele>
        <time>2024-07-02T12:02:00.849+00:00</time>
      </trkpt>
      <trkpt lat="49.26199" lon="1.10889">
        <ele>126</ele>
        <time>2024-07-02T12:02:05.283+00:00</time>
      </trkpt>
      <trkpt lat="49.26204" lon="1.10885">
        <ele>126</ele>
        <time>2024-07-02T12:02:09.348+00:00</time>
      </trkpt>
      <trkpt lat="49.26207" lon="1.10883">
        <ele>126</ele>
        <time>2024-07-02T12:02:13.346+00:00</time>
      </trkpt>
      <trkpt lat="49.26211" lon="1.10876">
        <ele>126</ele>
        <time>2024-07-02T12:02:17.943+00:00</time>
      </trkpt>
      <trkpt lat="49.26213" lon="1.10877">
        <ele>126</ele>
        <time>2024-07-02T12:02:22.601+00:00</time>
      </trkpt>
      <trkpt lat="49.26213" lon="1.10874">
        <ele>127</ele>
        <time>2024-07-02T12:02:26.878+00:00</time>
      </trkpt>
      <trkpt lat="49.26218" lon="1.10869">
        <ele>127</ele>
        <time>2024-07-02T12:02:31.005+00:00</time>
      </trkpt>
      <trkpt lat="49.26223" lon="1.10865">
        <ele>127</ele>
        <time>2024-07-02T12:02:35.128+00:00</time>
      </trkpt>
      <trkpt lat="49.26226" lon="1.1086">
        <ele>127</ele>
        <time>2024-07-02T12:02:39.215+00:00</time>
      </trkpt>
      <trkpt lat="49.26228" lon="1.10853">
        <ele>127</ele>
        <time>2024-07-02T12:02:43.249+00:00</time>
      </trkpt>
      <trkpt lat="49.26231" lon="1.10849">
        <ele>127</ele>
        <time>2024-07-02T12:02:47.408+00:00</time>
      </trkpt>
      <trkpt lat="49.26234" lon="1.10843">
        <ele>127</ele>
        <time>2024-07-02T12:02:51.551+00:00</time>
      </trkpt>
      <trkpt lat="49.26237" lon="1.10838">
        <ele>127</ele>
        <time>2024-07-02T12:02:55.606+00:00</time>
      </trkpt>
      <trkpt lat="49.2624" lon="1.10833">
        <ele>127</ele>
        <time>2024-07-02T12:03:00.508+00:00</time>
      </trkpt>
      <trkpt lat="49.26244" lon="1.10828">
        <ele>127</ele>
        <time>2024-07-02T12:03:04.629+00:00</time>
      </trkpt>
      <trkpt lat="49.26246" lon="1.10821">
        <ele>127</ele>
        <time>2024-07-02T12:03:09.367+00:00</time>
      </trkpt>
      <trkpt lat="49.2625" lon="1.10816">
        <ele>127</ele>
        <time>2024-07-02T12:03:13.413+00:00</time>
      </trkpt>
      <trkpt lat="49.26254" lon="1.10812">
        <ele>127</ele>
        <time>2024-07-02T12:03:17.504+00:00</time>
      </trkpt>
      <trkpt lat="49.26257" lon="1.10806">
        <ele>127</ele>
        <time>2024-07-02T12:03:21.591+00:00</time>
      </trkpt>
      <trkpt lat="49.2626" lon="1.10801">
        <ele>127</ele>
        <time>2024-07-02T12:03:25.591+00:00</time>
      </trkpt>
      <trkpt lat="49.26263" lon="1.10796">
        <ele>127</ele>
        <time>2024-07-02T12:03:29.628+00:00</time>
      </trkpt>
      <trkpt lat="49.26263" lon="1.10792">
        <ele>127</ele>
        <time>2024-07-02T12:03:33.925+00:00</time>
      </trkpt>
      <trkpt lat="49.26267" lon="1.10787">
        <ele>127</ele>
        <time>2024-07-02T12:03:38.230+00:00</time>
      </trkpt>
      <trkpt lat="49.26267" lon="1.10785">
        <ele>127</ele>
        <time>2024-07-02T12:03:42.367+00:00</time>
      </trkpt>
      <trkpt lat="49.26271" lon="1.10781">
        <ele>127</ele>
        <time>2024-07-02T12:03:46.588+00:00</time>
      </trkpt>
      <trkpt lat="49.26275" lon="1.10777">
        <ele>127</ele>
        <time>2024-07-02T12:03:50.842+00:00</time>
      </trkpt>
      <trkpt lat="49.26278" lon="1.10773">
        <ele>127</ele>
        <time>2024-07-02T12:03:54.885+00:00</time>
      </trkpt>
      <trkpt lat="49.26282" lon="1.10768">
        <ele>127</ele>
        <time>2024-07-02T12:03:58.929+00:00</time>
      </trkpt>
      <trkpt lat="49.26286" lon="1.10762">
        <ele>127</ele>
        <time>2024-07-02T12:04:03.434+00:00</time>
      </trkpt>
      <trkpt lat="49.26289" lon="1.10757">
        <ele>127</ele>
        <time>2024-07-02T12:04:07.545+00:00</time>
      </trkpt>
      <trkpt lat="49.26293" lon="1.10752">
        <ele>127</ele>
        <time>2024-07-02T12:04:11.573+00:00</time>
      </trkpt>
      <trkpt lat="49.26297" lon="1.10746">
        <ele>127</ele>
        <time>2024-07-02T12:04:16.150+00:00</time>
      </trkpt>
      <trkpt lat="49.26301" lon="1.1074">
        <ele>127</ele>
        <time>2024-07-02T12:04:20.602+00:00</time>
      </trkpt>
      <trkpt lat="49.26305" lon="1.10736">
        <ele>127</ele>
        <time>2024-07-02T12:04:24.627+00:00</time>
      </trkpt>
      <trkpt lat="49.26309" lon="1.1073">
        <ele>127</ele>
        <time>2024-07-02T12:04:29.213+00:00</time>
      </trkpt>
      <trkpt lat="49.26313" lon="1.10725">
        <ele>127</ele>
        <time>2024-07-02T12:04:33.615+00:00</time>
      </trkpt>
      <trkpt lat="49.26317" lon="1.10719">
        <ele>127</ele>
        <time>2024-07-02T12:04:38.248+00:00</time>
      </trkpt>
      <trkpt lat="49.26321" lon="1.10714">
        <ele>127</ele>
        <time>2024-07-02T12:04:42.223+00:00</time>
      </trkpt>
      <trkpt lat="49.26325" lon="1.10709">
        <ele>127</ele>
        <time>2024-07-02T12:04:46.726+00:00</time>
      </trkpt>
      <trkpt lat="49.26329" lon="1.10703">
        <ele>127</ele>
        <time>2024-07-02T12:04:51.191+00:00</time>
      </trkpt>
      <trkpt lat="49.26331" lon="1.10698">
        <ele>127</ele>
        <time>2024-07-02T12:04:55.203+00:00</time>
      </trkpt>
      <trkpt lat="49.26334" lon="1.10695">
        <ele>127</ele>
        <time>2024-07-02T12:04:59.236+00:00</time>
      </trkpt>
      <trkpt lat="49.26339" lon="1.1069">
        <ele>127</ele>
        <time>2024-07-02T12:05:03.610+00:00</time>
      </trkpt>
      <trkpt lat="49.26343" lon="1.10684">
        <ele>127</ele>
        <time>2024-07-02T12:05:08.274+00:00</time>
      </trkpt>
      <trkpt lat="49.26347" lon="1.10678">
        <ele>126</ele>
        <time>2024-07-02T12:05:12.763+00:00</time>
      </trkpt>
      <trkpt lat="49.26351" lon="1.10673">
        <ele>126</ele>
        <time>2024-07-02T12:05:17.246+00:00</time>
      </trkpt>
      <trkpt lat="49.26355" lon="1.10668">
        <ele>126</ele>
        <time>2024-07-02T12:05:21.750+00:00</time>
      </trkpt>
      <trkpt lat="49.26359" lon="1.10662">
        <ele>126</ele>
        <time>2024-07-02T12:05:26.282+00:00</time>
      </trkpt>
      <trkpt lat="49.26362" lon="1.10656">
        <ele>126</ele>
        <time>2024-07-02T12:05:30.288+00:00</time>
      </trkpt>
      <trkpt lat="49.26366" lon="1.10649">
        <ele>126</ele>
        <time>2024-07-02T12:05:34.807+00:00</time>
      </trkpt>
      <trkpt lat="49.26369" lon="1.10643">
        <ele>126</ele>
        <time>2024-07-02T12:05:39.356+00:00</time>
      </trkpt>
      <trkpt lat="49.26373" lon="1.10638">
        <ele>126</ele>
        <time>2024-07-02T12:05:43.862+00:00</time>
      </trkpt>
      <trkpt lat="49.26377" lon="1.10634">
        <ele>128</ele>
        <time>2024-07-02T12:05:47.884+00:00</time>
      </trkpt>
      <trkpt lat="49.26381" lon="1.1063">
        <ele>128</ele>
        <time>2024-07-02T12:05:51.906+00:00</time>
      </trkpt>
      <trkpt lat="49.26384" lon="1.10625">
        <ele>128</ele>
        <time>2024-07-02T12:05:55.911+00:00</time>
      </trkpt>
      <trkpt lat="49.26386" lon="1.10622">
        <ele>127</ele>
        <time>2024-07-02T12:05:59.990+00:00</time>
      </trkpt>
      <trkpt lat="49.26391" lon="1.10619">
        <ele>127</ele>
        <time>2024-07-02T12:06:04.012+00:00</time>
      </trkpt>
      <trkpt lat="49.26394" lon="1.10613">
        <ele>127</ele>
        <time>2024-07-02T12:06:08.586+00:00</time>
      </trkpt>
      <trkpt lat="49.26398" lon="1.10606">
        <ele>127</ele>
        <time>2024-07-02T12:06:13.124+00:00</time>
      </trkpt>
      <trkpt lat="49.26401" lon="1.10601">
        <ele>127</ele>
        <time>2024-07-02T12:06:17.624+00:00</time>
      </trkpt>
      <trkpt lat="49.26405" lon="1.10595">
        <ele>127</ele>
        <time>2024-07-02T12:06:22.096+00:00</time>
      </trkpt>
      <trkpt lat="49.26409" lon="1.1059">
        <ele>127</ele>
        <time>2024-07-02T12:06:26.586+00:00</time>
      </trkpt>
      <trkpt lat="49.26412" lon="1.10584">
        <ele>127</ele>
        <time>2024-07-02T12:06:31.208+00:00</time>
      </trkpt>
      <trkpt lat="49.26416" lon="1.10579">
        <ele>127</ele>
        <time>2024-07-02T12:06:35.746+00:00</time>
      </trkpt>
      <trkpt lat="49.2642" lon="1.10576">
        <ele>127</ele>
        <time>2024-07-02T12:06:39.787+00:00</time>
      </trkpt>
      <trkpt lat="49.26424" lon="1.10571">
        <ele>127</ele>
        <time>2024-07-02T12:06:44.328+00:00</time>
      </trkpt>
      <trkpt lat="49.26427" lon="1.10566">
        <ele>127</ele>
        <time>2024-07-02T12:06:48.346+00:00</time>
      </trkpt>
      <trkpt lat="49.2643" lon="1.10561">
        <ele>127</ele>
        <time>2024-07-02T12:06:52.620+00:00</time>
      </trkpt>
      <trkpt lat="49.26432" lon="1.10557">
        <ele>127</ele>
        <time>2024-07-02T12:06:56.612+00:00</time>
      </trkpt>
      <trkpt lat="49.26437" lon="1.10551">
        <ele>127</ele>
        <time>2024-07-02T12:07:01.050+00:00</time>
      </trkpt>
      <trkpt lat="49.2644" lon="1.10547">
        <ele>127</ele>
        <time>2024-07-02T12:07:05.056+00:00</time>
      </trkpt>
      <trkpt lat="49.26443" lon="1.1054">
        <ele>126</ele>
        <time>2024-07-02T12:07:09.592+00:00</time>
      </trkpt>
      <trkpt lat="49.26447" lon="1.10534">
        <ele>126</ele>
        <time>2024-07-02T12:07:14.124+00:00</time>
      </trkpt>
      <trkpt lat="49.26451" lon="1.10529">
        <ele>126</ele>
        <time>2024-07-02T12:07:18.606+00:00</time>
      </trkpt>
      <trkpt lat="49.26455" lon="1.10523">
        <ele>126</ele>
        <time>2024-07-02T12:07:22.611+00:00</time>
      </trkpt>
      <trkpt lat="49.26459" lon="1.10517">
        <ele>127</ele>
        <time>2024-07-02T12:07:27.187+00:00</time>
      </trkpt>
      <trkpt lat="49.26463" lon="1.10512">
        <ele>126</ele>
        <time>2024-07-02T12:07:31.628+00:00</time>
      </trkpt>
      <trkpt lat="49.26467" lon="1.10507">
        <ele>126</ele>
        <time>2024-07-02T12:07:36.224+00:00</time>
      </trkpt>
      <trkpt lat="49.26471" lon="1.10501">
        <ele>126</ele>
        <time>2024-07-02T12:07:40.693+00:00</time>
      </trkpt>
      <trkpt lat="49.26474" lon="1.10494">
        <ele>126</ele>
        <time>2024-07-02T12:07:45.389+00:00</time>
      </trkpt>
      <trkpt lat="49.26478" lon="1.1049">
        <ele>126</ele>
        <time>2024-07-02T12:07:49.610+00:00</time>
      </trkpt>
      <trkpt lat="49.26482" lon="1.10484">
        <ele>126</ele>
        <time>2024-07-02T12:07:54.230+00:00</time>
      </trkpt>
      <trkpt lat="49.26485" lon="1.10478">
        <ele>126</ele>
        <time>2024-07-02T12:07:58.587+00:00</time>
      </trkpt>
      <trkpt lat="49.26489" lon="1.10471">
        <ele>127</ele>
        <time>2024-07-02T12:08:03.108+00:00</time>
      </trkpt>
      <trkpt lat="49.26494" lon="1.10466">
        <ele>127</ele>
        <time>2024-07-02T12:08:07.647+00:00</time>
      </trkpt>
      <trkpt lat="49.26498" lon="1.1046">
        <ele>127</ele>
        <time>2024-07-02T12:08:12.152+00:00</time>
      </trkpt>
      <trkpt lat="49.26502" lon="1.10454">
        <ele>127</ele>
        <time>2024-07-02T12:08:16.617+00:00</time>
      </trkpt>
      <trkpt lat="49.26506" lon="1.10447">
        <ele>127</ele>
        <time>2024-07-02T12:08:21.042+00:00</time>
      </trkpt>
      <trkpt lat="49.26511" lon="1.10443">
        <ele>127</ele>
        <time>2024-07-02T12:08:25.509+00:00</time>
      </trkpt>
      <trkpt lat="49.26515" lon="1.10438">
        <ele>127</ele>
        <time>2024-07-02T12:08:30.020+00:00</time>
      </trkpt>
      <trkpt lat="49.26517" lon="1.10427">
        <ele>127</ele>
        <time>2024-07-02T12:08:34.385+00:00</time>
      </trkpt>
      <trkpt lat="49.26519" lon="1.10423">
        <ele>127</ele>
        <time>2024-07-02T12:08:38.516+00:00</time>
      </trkpt>
      <trkpt lat="49.26523" lon="1.10417">
        <ele>127</ele>
        <time>2024-07-02T12:08:43.089+00:00</time>
      </trkpt>
      <trkpt lat="49.26525" lon="1.10409">
        <ele>127</ele>
        <time>2024-07-02T12:08:47.592+00:00</time>
      </trkpt>
      <trkpt lat="49.26527" lon="1.10402">
        <ele>127</ele>
        <time>2024-07-02T12:08:51.567+00:00</time>
      </trkpt>
      <trkpt lat="49.2653" lon="1.10394">
        <ele>127</ele>
        <time>2024-07-02T12:08:56.085+00:00</time>
      </trkpt>
      <trkpt lat="49.26532" lon="1.10387">
        <ele>127</ele>
        <time>2024-07-02T12:09:00.504+00:00</time>
      </trkpt>
      <trkpt lat="49.26535" lon="1.10381">
        <ele>127</ele>
        <time>2024-07-02T12:09:04.516+00:00</time>
      </trkpt>
      <trkpt lat="49.26537" lon="1.10374">
        <ele>127</ele>
        <time>2024-07-02T12:09:08.539+00:00</time>
      </trkpt>
      <trkpt lat="49.26539" lon="1.10367">
        <ele>127</ele>
        <time>2024-07-02T12:09:13.026+00:00</time>
      </trkpt>
      <trkpt lat="49.26542" lon="1.10358">
        <ele>127</ele>
        <time>2024-07-02T12:09:17.526+00:00</time>
      </trkpt>
      <trkpt lat="49.26544" lon="1.10351">
        <ele>128</ele>
        <time>2024-07-02T12:09:22.028+00:00</time>
      </trkpt>
      <trkpt lat="49.26546" lon="1.10344">
        <ele>127</ele>
        <time>2024-07-02T12:09:26.589+00:00</time>
      </trkpt>
      <trkpt lat="49.26548" lon="1.10336">
        <ele>127</ele>
        <time>2024-07-02T12:09:31.150+00:00</time>
      </trkpt>
      <trkpt lat="49.26549" lon="1.10329">
        <ele>127</ele>
        <time>2024-07-02T12:09:35.246+00:00</time>
      </trkpt>
      <trkpt lat="49.26552" lon="1.10322">
        <ele>127</ele>
        <time>2024-07-02T12:09:39.515+00:00</time>
      </trkpt>
      <trkpt lat="49.26553" lon="1.10314">
        <ele>128</ele>
        <time>2024-07-02T12:09:44.009+00:00</time>
      </trkpt>
      <trkpt lat="49.26555" lon="1.10308">
        <ele>128</ele>
        <time>2024-07-02T12:09:48.031+00:00</time>
      </trkpt>
      <trkpt lat="49.26558" lon="1.10301">
        <ele>128</ele>
        <time>2024-07-02T12:09:52.392+00:00</time>
      </trkpt>
      <trkpt lat="49.2656" lon="1.10293">
        <ele>128</ele>
        <time>2024-07-02T12:09:56.921+00:00</time>
      </trkpt>
      <trkpt lat="49.26563" lon="1.10287">
        <ele>128</ele>
        <time>2024-07-02T12:10:00.924+00:00</time>
      </trkpt>
      <trkpt lat="49.26567" lon="1.1028">
        <ele>128</ele>
        <time>2024-07-02T12:10:05.508+00:00</time>
      </trkpt>
      <trkpt lat="49.26571" lon="1.10274">
        <ele>128</ele>
        <time>2024-07-02T12:10:10.011+00:00</time>
      </trkpt>
      <trkpt lat="49.26575" lon="1.10267">
        <ele>128</ele>
        <time>2024-07-02T12:10:14.591+00:00</time>
      </trkpt>
      <trkpt lat="49.26579" lon="1.10262">
        <ele>129</ele>
        <time>2024-07-02T12:10:19.173+00:00</time>
      </trkpt>
      <trkpt lat="49.26583" lon="1.10256">
        <ele>129</ele>
        <time>2024-07-02T12:10:23.616+00:00</time>
      </trkpt>
      <trkpt lat="49.26587" lon="1.10251">
        <ele>129</ele>
        <time>2024-07-02T12:10:28.167+00:00</time>
      </trkpt>
      <trkpt lat="49.26591" lon="1.10244">
        <ele>129</ele>
        <time>2024-07-02T12:10:32.748+00:00</time>
      </trkpt>
      <trkpt lat="49.26593" lon="1.10237">
        <ele>129</ele>
        <time>2024-07-02T12:10:37.265+00:00</time>
      </trkpt>
      <trkpt lat="49.26595" lon="1.1023">
        <ele>129</ele>
        <time>2024-07-02T12:10:41.286+00:00</time>
      </trkpt>
      <trkpt lat="49.26595" lon="1.10222">
        <ele>129</ele>
        <time>2024-07-02T12:10:45.803+00:00</time>
      </trkpt>
      <trkpt lat="49.26596" lon="1.10215">
        <ele>129</ele>
        <time>2024-07-02T12:10:50.368+00:00</time>
      </trkpt>
      <trkpt lat="49.26596" lon="1.10206">
        <ele>129</ele>
        <time>2024-07-02T12:10:54.872+00:00</time>
      </trkpt>
      <trkpt lat="49.26597" lon="1.10199">
        <ele>129</ele>
        <time>2024-07-02T12:10:59.493+00:00</time>
      </trkpt>
      <trkpt lat="49.26597" lon="1.1019">
        <ele>129</ele>
        <time>2024-07-02T12:11:04.044+00:00</time>
      </trkpt>
      <trkpt lat="49.26596" lon="1.10182">
        <ele>129</ele>
        <time>2024-07-02T12:11:08.601+00:00</time>
      </trkpt>
      <trkpt lat="49.26596" lon="1.10175">
        <ele>129</ele>
        <time>2024-07-02T12:11:13.209+00:00</time>
      </trkpt>
      <trkpt lat="49.26597" lon="1.10167">
        <ele>129</ele>
        <time>2024-07-02T12:11:17.272+00:00</time>
      </trkpt>
      <trkpt lat="49.26597" lon="1.10159">
        <ele>129</ele>
        <time>2024-07-02T12:11:21.933+00:00</time>
      </trkpt>
      <trkpt lat="49.26596" lon="1.10152">
        <ele>129</ele>
        <time>2024-07-02T12:11:26.368+00:00</time>
      </trkpt>
      <trkpt lat="49.26595" lon="1.10146">
        <ele>129</ele>
        <time>2024-07-02T12:11:30.508+00:00</time>
      </trkpt>
      <trkpt lat="49.26595" lon="1.10139">
        <ele>129</ele>
        <time>2024-07-02T12:11:34.570+00:00</time>
      </trkpt>
      <trkpt lat="49.26596" lon="1.10133">
        <ele>129</ele>
        <time>2024-07-02T12:11:38.589+00:00</time>
      </trkpt>
      <trkpt lat="49.26596" lon="1.10126">
        <ele>129</ele>
        <time>2024-07-02T12:11:42.825+00:00</time>
      </trkpt>
      <trkpt lat="49.26596" lon="1.1012">
        <ele>129</ele>
        <time>2024-07-02T12:11:47.029+00:00</time>
      </trkpt>
      <trkpt lat="49.26597" lon="1.10114">
        <ele>129</ele>
        <time>2024-07-02T12:11:51.092+00:00</time>
      </trkpt>
      <trkpt lat="49.26596" lon="1.10107">
        <ele>129</ele>
        <time>2024-07-02T12:11:55.610+00:00</time>
      </trkpt>
      <trkpt lat="49.26595" lon="1.10099">
        <ele>129</ele>
        <time>2024-07-02T12:11:59.867+00:00</time>
      </trkpt>
      <trkpt lat="49.26596" lon="1.10091">
        <ele>128</ele>
        <time>2024-07-02T12:12:04.470+00:00</time>
      </trkpt>
      <trkpt lat="49.26596" lon="1.10084">
        <ele>128</ele>
        <time>2024-07-02T12:12:08.571+00:00</time>
      </trkpt>
      <trkpt lat="49.26597" lon="1.10077">
        <ele>128</ele>
        <time>2024-07-02T12:12:12.571+00:00</time>
      </trkpt>
      <trkpt lat="49.26595" lon="1.10068">
        <ele>128</ele>
        <time>2024-07-02T12:12:17.566+00:00</time>
      </trkpt>
      <trkpt lat="49.26593" lon="1.10061">
        <ele>128</ele>
        <time>2024-07-02T12:12:22.206+00:00</time>
      </trkpt>
      <trkpt lat="49.26592" lon="1.10055">
        <ele>128</ele>
        <time>2024-07-02T12:12:26.590+00:00</time>
      </trkpt>
      <trkpt lat="49.2659" lon="1.10053">
        <ele>128</ele>
        <time>2024-07-02T12:12:31.843+00:00</time>
      </trkpt>
      <trkpt lat="49.26588" lon="1.10047">
        <ele>128</ele>
        <time>2024-07-02T12:12:35.829+00:00</time>
      </trkpt>
      <trkpt lat="49.26588" lon="1.10041">
        <ele>128</ele>
        <time>2024-07-02T12:12:39.891+00:00</time>
      </trkpt>
      <trkpt lat="49.26587" lon="1.10034">
        <ele>128</ele>
        <time>2024-07-02T12:12:44.032+00:00</time>
      </trkpt>
      <trkpt lat="49.26586" lon="1.10027">
        <ele>128</ele>
        <time>2024-07-02T12:12:48.599+00:00</time>
      </trkpt>
      <trkpt lat="49.26588" lon="1.10021">
        <ele>128</ele>
        <time>2024-07-02T12:12:52.608+00:00</time>
      </trkpt>
      <trkpt lat="49.26587" lon="1.10021">
        <ele>128</ele>
        <time>2024-07-02T12:12:57.107+00:00</time>
      </trkpt>
      <trkpt lat="49.26589" lon="1.10014">
        <ele>128</ele>
        <time>2024-07-02T12:13:01.310+00:00</time>
      </trkpt>
      <trkpt lat="49.2659" lon="1.10006">
        <ele>128</ele>
        <time>2024-07-02T12:13:05.562+00:00</time>
      </trkpt>
      <trkpt lat="49.26591" lon="1.09998">
        <ele>128</ele>
        <time>2024-07-02T12:13:09.806+00:00</time>
      </trkpt>
      <trkpt lat="49.26591" lon="1.09991">
        <ele>128</ele>
        <time>2024-07-02T12:13:14.048+00:00</time>
      </trkpt>
      <trkpt lat="49.26593" lon="1.09984">
        <ele>127</ele>
        <time>2024-07-02T12:13:18.290+00:00</time>
      </trkpt>
      <trkpt lat="49.26595" lon="1.09977">
        <ele>127</ele>
        <time>2024-07-02T12:13:22.563+00:00</time>
      </trkpt>
      <trkpt lat="49.26598" lon="1.09971">
        <ele>128</ele>
        <time>2024-07-02T12:13:26.863+00:00</time>
      </trkpt>
      <trkpt lat="49.266" lon="1.09965">
        <ele>128</ele>
        <time>2024-07-02T12:13:31.085+00:00</time>
      </trkpt>
      <trkpt lat="49.26602" lon="1.09958">
        <ele>128</ele>
        <time>2024-07-02T12:13:35.210+00:00</time>
      </trkpt>
      <trkpt lat="49.26604" lon="1.09952">
        <ele>128</ele>
        <time>2024-07-02T12:13:39.291+00:00</time>
      </trkpt>
      <trkpt lat="49.26607" lon="1.09946">
        <ele>128</ele>
        <time>2024-07-02T12:13:43.521+00:00</time>
      </trkpt>
      <trkpt lat="49.26607" lon="1.09939">
        <ele>128</ele>
        <time>2024-07-02T12:13:47.605+00:00</time>
      </trkpt>
      <trkpt lat="49.26608" lon="1.09932">
        <ele>128</ele>
        <time>2024-07-02T12:13:51.782+00:00</time>
      </trkpt>
      <trkpt lat="49.26609" lon="1.09925">
        <ele>127</ele>
        <time>2024-07-02T12:13:55.904+00:00</time>
      </trkpt>
      <trkpt lat="49.2661" lon="1.09917">
        <ele>127</ele>
        <time>2024-07-02T12:14:00.064+00:00</time>
      </trkpt>
      <trkpt lat="49.26611" lon="1.0991">
        <ele>127</ele>
        <time>2024-07-02T12:14:04.188+00:00</time>
      </trkpt>
      <trkpt lat="49.26612" lon="1.09906">
        <ele>127</ele>
        <time>2024-07-02T12:14:08.567+00:00</time>
      </trkpt>
      <trkpt lat="49.26612" lon="1.099">
        <ele>126</ele>
        <time>2024-07-02T12:14:13.365+00:00</time>
      </trkpt>
      <trkpt lat="49.26613" lon="1.09892">
        <ele>126</ele>
        <time>2024-07-02T12:14:17.589+00:00</time>
      </trkpt>
      <trkpt lat="49.26613" lon="1.09887">
        <ele>126</ele>
        <time>2024-07-02T12:14:21.590+00:00</time>
      </trkpt>
      <trkpt lat="49.26613" lon="1.09878">
        <ele>126</ele>
        <time>2024-07-02T12:14:25.887+00:00</time>
      </trkpt>
      <trkpt lat="49.26613" lon="1.09868">
        <ele>125</ele>
        <time>2024-07-02T12:14:30.084+00:00</time>
      </trkpt>
      <trkpt lat="49.26612" lon="1.09861">
        <ele>125</ele>
        <time>2024-07-02T12:14:34.634+00:00</time>
      </trkpt>
      <trkpt lat="49.26612" lon="1.09853">
        <ele>125</ele>
        <time>2024-07-02T12:14:39.249+00:00</time>
      </trkpt>
      <trkpt lat="49.26613" lon="1.09844">
        <ele>125</ele>
        <time>2024-07-02T12:14:43.459+00:00</time>
      </trkpt>
      <trkpt lat="49.26614" lon="1.09834">
        <ele>125</ele>
        <time>2024-07-02T12:14:47.589+00:00</time>
      </trkpt>
      <trkpt lat="49.26614" lon="1.09825">
        <ele>125</ele>
        <time>2024-07-02T12:14:52.308+00:00</time>
      </trkpt>
      <trkpt lat="49.26615" lon="1.09817">
        <ele>125</ele>
        <time>2024-07-02T12:14:56.603+00:00</time>
      </trkpt>
      <trkpt lat="49.26616" lon="1.09809">
        <ele>125</ele>
        <time>2024-07-02T12:15:01.106+00:00</time>
      </trkpt>
      <trkpt lat="49.26617" lon="1.09802">
        <ele>125</ele>
        <time>2024-07-02T12:15:05.594+00:00</time>
      </trkpt>
      <trkpt lat="49.26619" lon="1.09795">
        <ele>125</ele>
        <time>2024-07-02T12:15:09.739+00:00</time>
      </trkpt>
      <trkpt lat="49.26619" lon="1.09788">
        <ele>125</ele>
        <time>2024-07-02T12:15:13.884+00:00</time>
      </trkpt>
      <trkpt lat="49.26621" lon="1.09782">
        <ele>125</ele>
        <time>2024-07-02T12:15:17.949+00:00</time>
      </trkpt>
      <trkpt lat="49.26622" lon="1.09775">
        <ele>125</ele>
        <time>2024-07-02T12:15:22.107+00:00</time>
      </trkpt>
      <trkpt lat="49.26623" lon="1.09768">
        <ele>125</ele>
        <time>2024-07-02T12:15:26.142+00:00</time>
      </trkpt>
      <trkpt lat="49.26623" lon="1.09761">
        <ele>124</ele>
        <time>2024-07-02T12:15:30.285+00:00</time>
      </trkpt>
      <trkpt lat="49.26622" lon="1.09754">
        <ele>124</ele>
        <time>2024-07-02T12:15:34.988+00:00</time>
      </trkpt>
      <trkpt lat="49.26623" lon="1.09748">
        <ele>124</ele>
        <time>2024-07-02T12:15:39.068+00:00</time>
      </trkpt>
      <trkpt lat="49.26624" lon="1.09742">
        <ele>124</ele>
        <time>2024-07-02T12:15:43.167+00:00</time>
      </trkpt>
      <trkpt lat="49.26625" lon="1.09735">
        <ele>126</ele>
        <time>2024-07-02T12:15:47.345+00:00</time>
      </trkpt>
      <trkpt lat="49.26625" lon="1.09727">
        <ele>126</ele>
        <time>2024-07-02T12:15:51.517+00:00</time>
      </trkpt>
      <trkpt lat="49.26625" lon="1.0972">
        <ele>126</ele>
        <time>2024-07-02T12:15:55.548+00:00</time>
      </trkpt>
      <trkpt lat="49.26626" lon="1.09713">
        <ele>126</ele>
        <time>2024-07-02T12:15:59.608+00:00</time>
      </trkpt>
      <trkpt lat="49.26626" lon="1.09706">
        <ele>126</ele>
        <time>2024-07-02T12:16:03.598+00:00</time>
      </trkpt>
      <trkpt lat="49.26627" lon="1.09699">
        <ele>126</ele>
        <time>2024-07-02T12:16:07.886+00:00</time>
      </trkpt>
      <trkpt lat="49.26628" lon="1.0969">
        <ele>126</ele>
        <time>2024-07-02T12:16:12.592+00:00</time>
      </trkpt>
      <trkpt lat="49.26628" lon="1.09683">
        <ele>126</ele>
        <time>2024-07-02T12:16:16.601+00:00</time>
      </trkpt>
      <trkpt lat="49.26629" lon="1.09675">
        <ele>125</ele>
        <time>2024-07-02T12:16:20.949+00:00</time>
      </trkpt>
      <trkpt lat="49.26631" lon="1.09667">
        <ele>125</ele>
        <time>2024-07-02T12:16:25.413+00:00</time>
      </trkpt>
      <trkpt lat="49.26633" lon="1.0966">
        <ele>125</ele>
        <time>2024-07-02T12:16:29.520+00:00</time>
      </trkpt>
      <trkpt lat="49.26635" lon="1.09654">
        <ele>125</ele>
        <time>2024-07-02T12:16:33.602+00:00</time>
      </trkpt>
      <trkpt lat="49.26639" lon="1.09648">
        <ele>124</ele>
        <time>2024-07-02T12:16:37.869+00:00</time>
      </trkpt>
      <trkpt lat="49.26642" lon="1.09642">
        <ele>124</ele>
        <time>2024-07-02T12:16:42.111+00:00</time>
      </trkpt>
      <trkpt lat="49.26644" lon="1.09635">
        <ele>124</ele>
        <time>2024-07-02T12:16:46.282+00:00</time>
      </trkpt>
      <trkpt lat="49.26646" lon="1.09629">
        <ele>124</ele>
        <time>2024-07-02T12:16:50.512+00:00</time>
      </trkpt>
      <trkpt lat="49.26649" lon="1.09623">
        <ele>124</ele>
        <time>2024-07-02T12:16:54.599+00:00</time>
      </trkpt>
      <trkpt lat="49.26651" lon="1.09618">
        <ele>124</ele>
        <time>2024-07-02T12:16:58.945+00:00</time>
      </trkpt>
      <trkpt lat="49.26654" lon="1.09612">
        <ele>125</ele>
        <time>2024-07-02T12:17:03.187+00:00</time>
      </trkpt>
      <trkpt lat="49.26656" lon="1.09605">
        <ele>125</ele>
        <time>2024-07-02T12:17:07.516+00:00</time>
      </trkpt>
      <trkpt lat="49.26659" lon="1.09599">
        <ele>125</ele>
        <time>2024-07-02T12:17:11.622+00:00</time>
      </trkpt>
      <trkpt lat="49.26662" lon="1.09593">
        <ele>123</ele>
        <time>2024-07-02T12:17:15.832+00:00</time>
      </trkpt>
      <trkpt lat="49.26663" lon="1.09587">
        <ele>123</ele>
        <time>2024-07-02T12:17:19.983+00:00</time>
      </trkpt>
      <trkpt lat="49.26667" lon="1.09564">
        <ele>123</ele>
        <time>2024-07-02T12:20:33.595+00:00</time>
      </trkpt>
      <trkpt lat="49.26667" lon="1.09564">
        <ele>123</ele>
        <time>2024-07-02T12:20:37.604+00:00</time>
      </trkpt>
      <trkpt lat="49.26668" lon="1.09563">
        <ele>123</ele>
        <time>2024-07-02T12:20:42.596+00:00</time>
      </trkpt>
      <trkpt lat="49.26671" lon="1.0956">
        <ele>123</ele>
        <time>2024-07-02T12:20:46.592+00:00</time>
      </trkpt>
      <trkpt lat="49.26674" lon="1.09552">
        <ele>123</ele>
        <time>2024-07-02T12:20:51.522+00:00</time>
      </trkpt>
      <trkpt lat="49.26676" lon="1.09545">
        <ele>123</ele>
        <time>2024-07-02T12:20:55.599+00:00</time>
      </trkpt>
      <trkpt lat="49.26678" lon="1.09538">
        <ele>122</ele>
        <time>2024-07-02T12:20:59.871+00:00</time>
      </trkpt>
      <trkpt lat="49.26681" lon="1.0953">
        <ele>123</ele>
        <time>2024-07-02T12:21:04.564+00:00</time>
      </trkpt>
      <trkpt lat="49.26682" lon="1.09523">
        <ele>123</ele>
        <time>2024-07-02T12:21:09.120+00:00</time>
      </trkpt>
      <trkpt lat="49.26684" lon="1.0952">
        <ele>123</ele>
        <time>2024-07-02T12:21:13.169+00:00</time>
      </trkpt>
      <trkpt lat="49.26687" lon="1.09516">
        <ele>123</ele>
        <time>2024-07-02T12:21:17.471+00:00</time>
      </trkpt>
      <trkpt lat="49.2669" lon="1.09509">
        <ele>122</ele>
        <time>2024-07-02T12:21:22.044+00:00</time>
      </trkpt>
      <trkpt lat="49.26692" lon="1.09504">
        <ele>122</ele>
        <time>2024-07-02T12:21:26.592+00:00</time>
      </trkpt>
      <trkpt lat="49.26693" lon="1.09499">
        <ele>122</ele>
        <time>2024-07-02T12:21:30.588+00:00</time>
      </trkpt>
      <trkpt lat="49.26696" lon="1.09495">
        <ele>122</ele>
        <time>2024-07-02T12:21:34.748+00:00</time>
      </trkpt>
      <trkpt lat="49.267" lon="1.09488">
        <ele>122</ele>
        <time>2024-07-02T12:21:38.825+00:00</time>
      </trkpt>
      <trkpt lat="49.26704" lon="1.09483">
        <ele>121</ele>
        <time>2024-07-02T12:21:42.869+00:00</time>
      </trkpt>
      <trkpt lat="49.26708" lon="1.09479">
        <ele>121</ele>
        <time>2024-07-02T12:21:47.003+00:00</time>
      </trkpt>
      <trkpt lat="49.26712" lon="1.09475">
        <ele>122</ele>
        <time>2024-07-02T12:21:51.128+00:00</time>
      </trkpt>
      <trkpt lat="49.26717" lon="1.0947">
        <ele>122</ele>
        <time>2024-07-02T12:21:55.232+00:00</time>
      </trkpt>
      <trkpt lat="49.26721" lon="1.09464">
        <ele>122</ele>
        <time>2024-07-02T12:21:59.266+00:00</time>
      </trkpt>
      <trkpt lat="49.26725" lon="1.09458">
        <ele>122</ele>
        <time>2024-07-02T12:22:03.589+00:00</time>
      </trkpt>
      <trkpt lat="49.26729" lon="1.09453">
        <ele>120</ele>
        <time>2024-07-02T12:22:08.046+00:00</time>
      </trkpt>
      <trkpt lat="49.26734" lon="1.09448">
        <ele>120</ele>
        <time>2024-07-02T12:22:12.588+00:00</time>
      </trkpt>
      <trkpt lat="49.26738" lon="1.09444">
        <ele>121</ele>
        <time>2024-07-02T12:22:16.670+00:00</time>
      </trkpt>
      <trkpt lat="49.26743" lon="1.09441">
        <ele>121</ele>
        <time>2024-07-02T12:22:20.747+00:00</time>
      </trkpt>
      <trkpt lat="49.26747" lon="1.09436">
        <ele>121</ele>
        <time>2024-07-02T12:22:25.332+00:00</time>
      </trkpt>
      <trkpt lat="49.26751" lon="1.09432">
        <ele>121</ele>
        <time>2024-07-02T12:22:29.367+00:00</time>
      </trkpt>
      <trkpt lat="49.26754" lon="1.09428">
        <ele>119</ele>
        <time>2024-07-02T12:22:33.413+00:00</time>
      </trkpt>
      <trkpt lat="49.26758" lon="1.09424">
        <ele>119</ele>
        <time>2024-07-02T12:22:37.517+00:00</time>
      </trkpt>
      <trkpt lat="49.26762" lon="1.0942">
        <ele>119</ele>
        <time>2024-07-02T12:22:41.589+00:00</time>
      </trkpt>
      <trkpt lat="49.26766" lon="1.09414">
        <ele>121</ele>
        <time>2024-07-02T12:22:45.593+00:00</time>
      </trkpt>
      <trkpt lat="49.26771" lon="1.09408">
        <ele>121</ele>
        <time>2024-07-02T12:22:50.284+00:00</time>
      </trkpt>
      <trkpt lat="49.26775" lon="1.09404">
        <ele>121</ele>
        <time>2024-07-02T12:22:54.375+00:00</time>
      </trkpt>
      <trkpt lat="49.2678" lon="1.09401">
        <ele>119</ele>
        <time>2024-07-02T12:22:58.599+00:00</time>
      </trkpt>
      <trkpt lat="49.26785" lon="1.09397">
        <ele>119</ele>
        <time>2024-07-02T12:23:03.147+00:00</time>
      </trkpt>
      <trkpt lat="49.26789" lon="1.09394">
        <ele>119</ele>
        <time>2024-07-02T12:23:07.233+00:00</time>
      </trkpt>
      <trkpt lat="49.26794" lon="1.09391">
        <ele>122</ele>
        <time>2024-07-02T12:23:11.249+00:00</time>
      </trkpt>
      <trkpt lat="49.26798" lon="1.09386">
        <ele>122</ele>
        <time>2024-07-02T12:23:15.385+00:00</time>
      </trkpt>
      <trkpt lat="49.26801" lon="1.09381">
        <ele>122</ele>
        <time>2024-07-02T12:23:19.501+00:00</time>
      </trkpt>
      <trkpt lat="49.26805" lon="1.09377">
        <ele>122</ele>
        <time>2024-07-02T12:23:23.547+00:00</time>
      </trkpt>
      <trkpt lat="49.26808" lon="1.09374">
        <ele>118</ele>
        <time>2024-07-02T12:23:27.593+00:00</time>
      </trkpt>
      <trkpt lat="49.26812" lon="1.09371">
        <ele>118</ele>
        <time>2024-07-02T12:23:31.807+00:00</time>
      </trkpt>
      <trkpt lat="49.26816" lon="1.09369">
        <ele>118</ele>
        <time>2024-07-02T12:23:35.876+00:00</time>
      </trkpt>
      <trkpt lat="49.2682" lon="1.09369">
        <ele>119</ele>
        <time>2024-07-02T12:23:39.966+00:00</time>
      </trkpt>
      <trkpt lat="49.26825" lon="1.09368">
        <ele>119</ele>
        <time>2024-07-02T12:23:43.972+00:00</time>
      </trkpt>
      <trkpt lat="49.26829" lon="1.09367">
        <ele>119</ele>
        <time>2024-07-02T12:23:48.290+00:00</time>
      </trkpt>
      <trkpt lat="49.26835" lon="1.09366">
        <ele>119</ele>
        <time>2024-07-02T12:23:52.730+00:00</time>
      </trkpt>
      <trkpt lat="49.2684" lon="1.09363">
        <ele>119</ele>
        <time>2024-07-02T12:23:56.824+00:00</time>
      </trkpt>
      <trkpt lat="49.26845" lon="1.09359">
        <ele>119</ele>
        <time>2024-07-02T12:24:01.516+00:00</time>
      </trkpt>
      <trkpt lat="49.2685" lon="1.09353">
        <ele>120</ele>
        <time>2024-07-02T12:24:06.591+00:00</time>
      </trkpt>
      <trkpt lat="49.26854" lon="1.09348">
        <ele>120</ele>
        <time>2024-07-02T12:24:11.324+00:00</time>
      </trkpt>
      <trkpt lat="49.26857" lon="1.09343">
        <ele>115</ele>
        <time>2024-07-02T12:24:15.597+00:00</time>
      </trkpt>
      <trkpt lat="49.26861" lon="1.09339">
        <ele>115</ele>
        <time>2024-07-02T12:24:19.724+00:00</time>
      </trkpt>
      <trkpt lat="49.26865" lon="1.09336">
        <ele>115</ele>
        <time>2024-07-02T12:24:24.310+00:00</time>
      </trkpt>
      <trkpt lat="49.26869" lon="1.09331">
        <ele>115</ele>
        <time>2024-07-02T12:24:28.304+00:00</time>
      </trkpt>
      <trkpt lat="49.26874" lon="1.09327">
        <ele>115</ele>
        <time>2024-07-02T12:24:32.905+00:00</time>
      </trkpt>
      <trkpt lat="49.26879" lon="1.09324">
        <ele>116</ele>
        <time>2024-07-02T12:24:37.541+00:00</time>
      </trkpt>
      <trkpt lat="49.26883" lon="1.09322">
        <ele>116</ele>
        <time>2024-07-02T12:24:41.561+00:00</time>
      </trkpt>
      <trkpt lat="49.26887" lon="1.0932">
        <ele>116</ele>
        <time>2024-07-02T12:24:45.661+00:00</time>
      </trkpt>
      <trkpt lat="49.26892" lon="1.09317">
        <ele>110</ele>
        <time>2024-07-02T12:24:50.144+00:00</time>
      </trkpt>
      <trkpt lat="49.26895" lon="1.09315">
        <ele>110</ele>
        <time>2024-07-02T12:24:54.598+00:00</time>
      </trkpt>
      <trkpt lat="49.26899" lon="1.09312">
        <ele>110</ele>
        <time>2024-07-02T12:24:58.746+00:00</time>
      </trkpt>
      <trkpt lat="49.26905" lon="1.0931">
        <ele>111</ele>
        <time>2024-07-02T12:25:03.324+00:00</time>
      </trkpt>
      <trkpt lat="49.2691" lon="1.09309">
        <ele>111</ele>
        <time>2024-07-02T12:25:07.388+00:00</time>
      </trkpt>
      <trkpt lat="49.26914" lon="1.09307">
        <ele>111</ele>
        <time>2024-07-02T12:25:11.403+00:00</time>
      </trkpt>
      <trkpt lat="49.26919" lon="1.09305">
        <ele>111</ele>
        <time>2024-07-02T12:25:15.890+00:00</time>
      </trkpt>
      <trkpt lat="49.26924" lon="1.09303">
        <ele>111</ele>
        <time>2024-07-02T12:25:19.912+00:00</time>
      </trkpt>
      <trkpt lat="49.26931" lon="1.09299">
        <ele>113</ele>
        <time>2024-07-02T12:25:24.596+00:00</time>
      </trkpt>
      <trkpt lat="49.26937" lon="1.09294">
        <ele>113</ele>
        <time>2024-07-02T12:25:29.243+00:00</time>
      </trkpt>
      <trkpt lat="49.26942" lon="1.0929">
        <ele>108</ele>
        <time>2024-07-02T12:25:33.767+00:00</time>
      </trkpt>
      <trkpt lat="49.26947" lon="1.09287">
        <ele>108</ele>
        <time>2024-07-02T12:25:38.304+00:00</time>
      </trkpt>
      <trkpt lat="49.26952" lon="1.09284">
        <ele>108</ele>
        <time>2024-07-02T12:25:42.589+00:00</time>
      </trkpt>
      <trkpt lat="49.26957" lon="1.09282">
        <ele>108</ele>
        <time>2024-07-02T12:25:46.883+00:00</time>
      </trkpt>
      <trkpt lat="49.26962" lon="1.0928">
        <ele>107</ele>
        <time>2024-07-02T12:25:51.003+00:00</time>
      </trkpt>
      <trkpt lat="49.26967" lon="1.09279">
        <ele>107</ele>
        <time>2024-07-02T12:25:55.045+00:00</time>
      </trkpt>
      <trkpt lat="49.26972" lon="1.09276">
        <ele>107</ele>
        <time>2024-07-02T12:25:59.190+00:00</time>
      </trkpt>
      <trkpt lat="49.26977" lon="1.09275">
        <ele>107</ele>
        <time>2024-07-02T12:26:03.597+00:00</time>
      </trkpt>
      <trkpt lat="49.2698" lon="1.09271">
        <ele>107</ele>
        <time>2024-07-02T12:26:07.727+00:00</time>
      </trkpt>
      <trkpt lat="49.26983" lon="1.0927">
        <ele>107</ele>
        <time>2024-07-02T12:26:11.882+00:00</time>
      </trkpt>
      <trkpt lat="49.26987" lon="1.0927">
        <ele>107</ele>
        <time>2024-07-02T12:26:15.946+00:00</time>
      </trkpt>
      <trkpt lat="49.26991" lon="1.09269">
        <ele>107</ele>
        <time>2024-07-02T12:26:20.061+00:00</time>
      </trkpt>
      <trkpt lat="49.26996" lon="1.09268">
        <ele>107</ele>
        <time>2024-07-02T12:26:24.597+00:00</time>
      </trkpt>
      <trkpt lat="49.27001" lon="1.09268">
        <ele>107</ele>
        <time>2024-07-02T12:26:28.849+00:00</time>
      </trkpt>
      <trkpt lat="49.27005" lon="1.09267">
        <ele>107</ele>
        <time>2024-07-02T12:26:32.985+00:00</time>
      </trkpt>
      <trkpt lat="49.27009" lon="1.09266">
        <ele>107</ele>
        <time>2024-07-02T12:26:37.088+00:00</time>
      </trkpt>
      <trkpt lat="49.27013" lon="1.09264">
        <ele>107</ele>
        <time>2024-07-02T12:26:41.162+00:00</time>
      </trkpt>
      <trkpt lat="49.27018" lon="1.09263">
        <ele>101</ele>
        <time>2024-07-02T12:26:45.184+00:00</time>
      </trkpt>
      <trkpt lat="49.27021" lon="1.09263">
        <ele>101</ele>
        <time>2024-07-02T12:26:49.252+00:00</time>
      </trkpt>
      <trkpt lat="49.27025" lon="1.09264">
        <ele>101</ele>
        <time>2024-07-02T12:26:53.615+00:00</time>
      </trkpt>
      <trkpt lat="49.27029" lon="1.09264">
        <ele>107</ele>
        <time>2024-07-02T12:26:57.724+00:00</time>
      </trkpt>
      <trkpt lat="49.27033" lon="1.09263">
        <ele>101</ele>
        <time>2024-07-02T12:27:02.213+00:00</time>
      </trkpt>
      <trkpt lat="49.27038" lon="1.0926">
        <ele>101</ele>
        <time>2024-07-02T12:27:06.845+00:00</time>
      </trkpt>
      <trkpt lat="49.27043" lon="1.09258">
        <ele>102</ele>
        <time>2024-07-02T12:27:10.910+00:00</time>
      </trkpt>
      <trkpt lat="49.27048" lon="1.09257">
        <ele>102</ele>
        <time>2024-07-02T12:27:14.964+00:00</time>
      </trkpt>
      <trkpt lat="49.27054" lon="1.09258">
        <ele>102</ele>
        <time>2024-07-02T12:27:19.516+00:00</time>
      </trkpt>
      <trkpt lat="49.2706" lon="1.09254">
        <ele>102</ele>
        <time>2024-07-02T12:27:24.086+00:00</time>
      </trkpt>
      <trkpt lat="49.27066" lon="1.0925">
        <ele>102</ele>
        <time>2024-07-02T12:27:28.110+00:00</time>
      </trkpt>
      <trkpt lat="49.27072" lon="1.09246">
        <ele>102</ele>
        <time>2024-07-02T12:27:32.613+00:00</time>
      </trkpt>
      <trkpt lat="49.27078" lon="1.09244">
        <ele>102</ele>
        <time>2024-07-02T12:27:37.581+00:00</time>
      </trkpt>
      <trkpt lat="49.27082" lon="1.09243">
        <ele>102</ele>
        <time>2024-07-02T12:27:41.591+00:00</time>
      </trkpt>
      <trkpt lat="49.27088" lon="1.09241">
        <ele>102</ele>
        <time>2024-07-02T12:27:46.250+00:00</time>
      </trkpt>
      <trkpt lat="49.27095" lon="1.09238">
        <ele>102</ele>
        <time>2024-07-02T12:27:50.887+00:00</time>
      </trkpt>
      <trkpt lat="49.27101" lon="1.09234">
        <ele>97</ele>
        <time>2024-07-02T12:27:55.531+00:00</time>
      </trkpt>
      <trkpt lat="49.27107" lon="1.09228">
        <ele>97</ele>
        <time>2024-07-02T12:27:59.840+00:00</time>
      </trkpt>
      <trkpt lat="49.27111" lon="1.09223">
        <ele>97</ele>
        <time>2024-07-02T12:28:03.849+00:00</time>
      </trkpt>
      <trkpt lat="49.27115" lon="1.09219">
        <ele>97</ele>
        <time>2024-07-02T12:28:07.885+00:00</time>
      </trkpt>
      <trkpt lat="49.2712" lon="1.09215">
        <ele>97</ele>
        <time>2024-07-02T12:28:11.929+00:00</time>
      </trkpt>
      <trkpt lat="49.27121" lon="1.09215">
        <ele>97</ele>
        <time>2024-07-02T12:28:16.599+00:00</time>
      </trkpt>
      <trkpt lat="49.2712" lon="1.09221">
        <ele>97</ele>
        <time>2024-07-02T12:28:29.615+00:00</time>
      </trkpt>
      <trkpt lat="49.2712" lon="1.09222">
        <ele>97</ele>
        <time>2024-07-02T12:28:33.903+00:00</time>
      </trkpt>
      <trkpt lat="49.27121" lon="1.09223">
        <ele>97</ele>
        <time>2024-07-02T12:28:39.453+00:00</time>
      </trkpt>
      <trkpt lat="49.27124" lon="1.09228">
        <ele>97</ele>
        <time>2024-07-02T12:28:43.926+00:00</time>
      </trkpt>
      <trkpt lat="49.27127" lon="1.09234">
        <ele>101</ele>
        <time>2024-07-02T12:28:48.344+00:00</time>
      </trkpt>
      <trkpt lat="49.27129" lon="1.09239">
        <ele>105</ele>
        <time>2024-07-02T12:28:52.890+00:00</time>
      </trkpt>
      <trkpt lat="49.27131" lon="1.09242">
        <ele>105</ele>
        <time>2024-07-02T12:28:57.365+00:00</time>
      </trkpt>
      <trkpt lat="49.27131" lon="1.09246">
        <ele>105</ele>
        <time>2024-07-02T12:29:01.512+00:00</time>
      </trkpt>
      <trkpt lat="49.27134" lon="1.09248">
        <ele>105</ele>
        <time>2024-07-02T12:29:06.147+00:00</time>
      </trkpt>
      <trkpt lat="49.27138" lon="1.09252">
        <ele>105</ele>
        <time>2024-07-02T12:29:10.588+00:00</time>
      </trkpt>
      <trkpt lat="49.27141" lon="1.09256">
        <ele>105</ele>
        <time>2024-07-02T12:29:15.132+00:00</time>
      </trkpt>
      <trkpt lat="49.27142" lon="1.09259">
        <ele>105</ele>
        <time>2024-07-02T12:29:19.451+00:00</time>
      </trkpt>
      <trkpt lat="49.27144" lon="1.09262">
        <ele>105</ele>
        <time>2024-07-02T12:29:23.593+00:00</time>
      </trkpt>
      <trkpt lat="49.27147" lon="1.09267">
        <ele>109</ele>
        <time>2024-07-02T12:29:28.249+00:00</time>
      </trkpt>
      <trkpt lat="49.2715" lon="1.09272">
        <ele>109</ele>
        <time>2024-07-02T12:29:32.590+00:00</time>
      </trkpt>
      <trkpt lat="49.27153" lon="1.09276">
        <ele>109</ele>
        <time>2024-07-02T12:29:36.615+00:00</time>
      </trkpt>
      <trkpt lat="49.27156" lon="1.09278">
        <ele>109</ele>
        <time>2024-07-02T12:29:41.599+00:00</time>
      </trkpt>
      <trkpt lat="49.27157" lon="1.09281">
        <ele>109</ele>
        <time>2024-07-02T12:29:45.619+00:00</time>
      </trkpt>
      <trkpt lat="49.2716" lon="1.09286">
        <ele>109</ele>
        <time>2024-07-02T12:29:50.271+00:00</time>
      </trkpt>
      <trkpt lat="49.27162" lon="1.09291">
        <ele>109</ele>
        <time>2024-07-02T12:29:54.405+00:00</time>
      </trkpt>
      <trkpt lat="49.27165" lon="1.09296">
        <ele>112</ele>
        <time>2024-07-02T12:29:58.549+00:00</time>
      </trkpt>
      <trkpt lat="49.27168" lon="1.09302">
        <ele>112</ele>
        <time>2024-07-02T12:30:02.600+00:00</time>
      </trkpt>
      <trkpt lat="49.27171" lon="1.09307">
        <ele>112</ele>
        <time>2024-07-02T12:30:07.314+00:00</time>
      </trkpt>
      <trkpt lat="49.27175" lon="1.09313">
        <ele>112</ele>
        <time>2024-07-02T12:30:11.912+00:00</time>
      </trkpt>
      <trkpt lat="49.27179" lon="1.09318">
        <ele>112</ele>
        <time>2024-07-02T12:30:16.445+00:00</time>
      </trkpt>
      <trkpt lat="49.27183" lon="1.09323">
        <ele>112</ele>
        <time>2024-07-02T12:30:21.047+00:00</time>
      </trkpt>
      <trkpt lat="49.27186" lon="1.09327">
        <ele>112</ele>
        <time>2024-07-02T12:30:25.052+00:00</time>
      </trkpt>
      <trkpt lat="49.27189" lon="1.09332">
        <ele>112</ele>
        <time>2024-07-02T12:30:29.210+00:00</time>
      </trkpt>
      <trkpt lat="49.27192" lon="1.09338">
        <ele>112</ele>
        <time>2024-07-02T12:30:33.828+00:00</time>
      </trkpt>
      <trkpt lat="49.27194" lon="1.09343">
        <ele>112</ele>
        <time>2024-07-02T12:30:38.321+00:00</time>
      </trkpt>
      <trkpt lat="49.272" lon="1.09352">
        <ele>113</ele>
        <time>2024-07-02T12:31:00.612+00:00</time>
      </trkpt>
      <trkpt lat="49.272" lon="1.09353">
        <ele>113</ele>
        <time>2024-07-02T12:31:05.598+00:00</time>
      </trkpt>
      <trkpt lat="49.272" lon="1.09357">
        <ele>113</ele>
        <time>2024-07-02T12:31:10.584+00:00</time>
      </trkpt>
      <trkpt lat="49.272" lon="1.09358">
        <ele>113</ele>
        <time>2024-07-02T12:31:23.632+00:00</time>
      </trkpt>
      <trkpt lat="49.272" lon="1.09361">
        <ele>113</ele>
        <time>2024-07-02T12:31:28.593+00:00</time>
      </trkpt>
      <trkpt lat="49.27204" lon="1.09362">
        <ele>113</ele>
        <time>2024-07-02T12:36:42.604+00:00</time>
      </trkpt>
      <trkpt lat="49.27201" lon="1.09369">
        <ele>113</ele>
        <time>2024-07-02T12:36:47.615+00:00</time>
      </trkpt>
      <trkpt lat="49.27198" lon="1.09373">
        <ele>113</ele>
        <time>2024-07-02T12:36:52.614+00:00</time>
      </trkpt>
      <trkpt lat="49.27197" lon="1.09377">
        <ele>113</ele>
        <time>2024-07-02T12:36:57.602+00:00</time>
      </trkpt>
      <trkpt lat="49.27193" lon="1.09381">
        <ele>113</ele>
        <time>2024-07-02T12:37:02.588+00:00</time>
      </trkpt>
      <trkpt lat="49.27193" lon="1.09386">
        <ele>113</ele>
        <time>2024-07-02T12:37:06.611+00:00</time>
      </trkpt>
      <trkpt lat="49.2719" lon="1.0939">
        <ele>113</ele>
        <time>2024-07-02T12:37:11.622+00:00</time>
      </trkpt>
      <trkpt lat="49.27186" lon="1.09394">
        <ele>113</ele>
        <time>2024-07-02T12:37:16.610+00:00</time>
      </trkpt>
      <trkpt lat="49.27183" lon="1.09397">
        <ele>113</ele>
        <time>2024-07-02T12:37:20.604+00:00</time>
      </trkpt>
      <trkpt lat="49.2718" lon="1.094">
        <ele>116</ele>
        <time>2024-07-02T12:37:25.609+00:00</time>
      </trkpt>
      <trkpt lat="49.27177" lon="1.09403">
        <ele>117</ele>
        <time>2024-07-02T12:37:30.597+00:00</time>
      </trkpt>
      <trkpt lat="49.27174" lon="1.09404">
        <ele>117</ele>
        <time>2024-07-02T12:37:34.614+00:00</time>
      </trkpt>
      <trkpt lat="49.27171" lon="1.09407">
        <ele>117</ele>
        <time>2024-07-02T12:37:39.613+00:00</time>
      </trkpt>
      <trkpt lat="49.27167" lon="1.09411">
        <ele>117</ele>
        <time>2024-07-02T12:37:44.599+00:00</time>
      </trkpt>
      <trkpt lat="49.27163" lon="1.09415">
        <ele>117</ele>
        <time>2024-07-02T12:37:48.613+00:00</time>
      </trkpt>
      <trkpt lat="49.27159" lon="1.09419">
        <ele>117</ele>
        <time>2024-07-02T12:37:53.609+00:00</time>
      </trkpt>
      <trkpt lat="49.27155" lon="1.09424">
        <ele>117</ele>
        <time>2024-07-02T12:37:58.595+00:00</time>
      </trkpt>
      <trkpt lat="49.27152" lon="1.09428">
        <ele>122</ele>
        <time>2024-07-02T12:38:03.601+00:00</time>
      </trkpt>
      <trkpt lat="49.27149" lon="1.09431">
        <ele>123</ele>
        <time>2024-07-02T12:38:08.598+00:00</time>
      </trkpt>
      <trkpt lat="49.27146" lon="1.09437">
        <ele>123</ele>
        <time>2024-07-02T12:38:13.622+00:00</time>
      </trkpt>
      <trkpt lat="49.27143" lon="1.09442">
        <ele>123</ele>
        <time>2024-07-02T12:38:17.615+00:00</time>
      </trkpt>
      <trkpt lat="49.27142" lon="1.09451">
        <ele>123</ele>
        <time>2024-07-02T12:38:22.604+00:00</time>
      </trkpt>
      <trkpt lat="49.27141" lon="1.09459">
        <ele>123</ele>
        <time>2024-07-02T12:38:27.588+00:00</time>
      </trkpt>
      <trkpt lat="49.27138" lon="1.09465">
        <ele>123</ele>
        <time>2024-07-02T12:38:31.600+00:00</time>
      </trkpt>
      <trkpt lat="49.27136" lon="1.09472">
        <ele>123</ele>
        <time>2024-07-02T12:38:36.614+00:00</time>
      </trkpt>
      <trkpt lat="49.27135" lon="1.0948">
        <ele>123</ele>
        <time>2024-07-02T12:38:41.591+00:00</time>
      </trkpt>
      <trkpt lat="49.27133" lon="1.09486">
        <ele>122</ele>
        <time>2024-07-02T12:38:45.588+00:00</time>
      </trkpt>
      <trkpt lat="49.27128" lon="1.09494">
        <ele>122</ele>
        <time>2024-07-02T12:38:50.569+00:00</time>
      </trkpt>
      <trkpt lat="49.27127" lon="1.09502">
        <ele>122</ele>
        <time>2024-07-02T12:38:54.600+00:00</time>
      </trkpt>
      <trkpt lat="49.27126" lon="1.09508">
        <ele>122</ele>
        <time>2024-07-02T12:38:58.610+00:00</time>
      </trkpt>
      <trkpt lat="49.27126" lon="1.09517">
        <ele>122</ele>
        <time>2024-07-02T12:39:02.621+00:00</time>
      </trkpt>
      <trkpt lat="49.27124" lon="1.09529">
        <ele>126</ele>
        <time>2024-07-02T12:39:07.588+00:00</time>
      </trkpt>
      <trkpt lat="49.27122" lon="1.09536">
        <ele>126</ele>
        <time>2024-07-02T12:39:11.608+00:00</time>
      </trkpt>
      <trkpt lat="49.27121" lon="1.09541">
        <ele>126</ele>
        <time>2024-07-02T12:39:15.608+00:00</time>
      </trkpt>
      <trkpt lat="49.2712" lon="1.09549">
        <ele>126</ele>
        <time>2024-07-02T12:39:20.597+00:00</time>
      </trkpt>
      <trkpt lat="49.2712" lon="1.09556">
        <ele>126</ele>
        <time>2024-07-02T12:39:24.618+00:00</time>
      </trkpt>
      <trkpt lat="49.27122" lon="1.09567">
        <ele>126</ele>
        <time>2024-07-02T12:39:29.609+00:00</time>
      </trkpt>
      <trkpt lat="49.27124" lon="1.09578">
        <ele>127</ele>
        <time>2024-07-02T12:39:34.589+00:00</time>
      </trkpt>
      <trkpt lat="49.27123" lon="1.09586">
        <ele>127</ele>
        <time>2024-07-02T12:39:39.600+00:00</time>
      </trkpt>
      <trkpt lat="49.27123" lon="1.09592">
        <ele>127</ele>
        <time>2024-07-02T12:39:43.593+00:00</time>
      </trkpt>
      <trkpt lat="49.27122" lon="1.096">
        <ele>128</ele>
        <time>2024-07-02T12:39:48.576+00:00</time>
      </trkpt>
      <trkpt lat="49.27123" lon="1.09607">
        <ele>128</ele>
        <time>2024-07-02T12:39:52.602+00:00</time>
      </trkpt>
      <trkpt lat="49.27124" lon="1.09618">
        <ele>128</ele>
        <time>2024-07-02T12:39:57.607+00:00</time>
      </trkpt>
      <trkpt lat="49.27124" lon="1.09625">
        <ele>128</ele>
        <time>2024-07-02T12:40:01.627+00:00</time>
      </trkpt>
      <trkpt lat="49.27127" lon="1.09636">
        <ele>126</ele>
        <time>2024-07-02T12:40:06.596+00:00</time>
      </trkpt>
      <trkpt lat="49.27127" lon="1.09644">
        <ele>126</ele>
        <time>2024-07-02T12:40:10.616+00:00</time>
      </trkpt>
      <trkpt lat="49.27129" lon="1.09654">
        <ele>127</ele>
        <time>2024-07-02T12:40:15.611+00:00</time>
      </trkpt>
      <trkpt lat="49.27132" lon="1.09661">
        <ele>127</ele>
        <time>2024-07-02T12:40:20.581+00:00</time>
      </trkpt>
      <trkpt lat="49.27133" lon="1.09668">
        <ele>127</ele>
        <time>2024-07-02T12:40:24.610+00:00</time>
      </trkpt>
      <trkpt lat="49.27135" lon="1.09677">
        <ele>127</ele>
        <time>2024-07-02T12:40:29.187+00:00</time>
      </trkpt>
      <trkpt lat="49.27137" lon="1.09684">
        <ele>127</ele>
        <time>2024-07-02T12:40:33.444+00:00</time>
      </trkpt>
      <trkpt lat="49.2714" lon="1.0969">
        <ele>127</ele>
        <time>2024-07-02T12:40:37.598+00:00</time>
      </trkpt>
      <trkpt lat="49.27143" lon="1.09696">
        <ele>127</ele>
        <time>2024-07-02T12:40:41.925+00:00</time>
      </trkpt>
      <trkpt lat="49.27145" lon="1.09702">
        <ele>127</ele>
        <time>2024-07-02T12:40:46.150+00:00</time>
      </trkpt>
      <trkpt lat="49.27148" lon="1.09708">
        <ele>127</ele>
        <time>2024-07-02T12:40:50.346+00:00</time>
      </trkpt>
      <trkpt lat="49.27151" lon="1.09714">
        <ele>128</ele>
        <time>2024-07-02T12:40:54.520+00:00</time>
      </trkpt>
      <trkpt lat="49.27154" lon="1.09719">
        <ele>123</ele>
        <time>2024-07-02T12:40:58.691+00:00</time>
      </trkpt>
      <trkpt lat="49.27158" lon="1.09724">
        <ele>123</ele>
        <time>2024-07-02T12:41:02.782+00:00</time>
      </trkpt>
      <trkpt lat="49.27161" lon="1.0973">
        <ele>123</ele>
        <time>2024-07-02T12:41:06.973+00:00</time>
      </trkpt>
      <trkpt lat="49.27164" lon="1.09738">
        <ele>123</ele>
        <time>2024-07-02T12:41:11.183+00:00</time>
      </trkpt>
      <trkpt lat="49.27167" lon="1.09745">
        <ele>123</ele>
        <time>2024-07-02T12:41:15.319+00:00</time>
      </trkpt>
      <trkpt lat="49.27169" lon="1.09753">
        <ele>123</ele>
        <time>2024-07-02T12:41:19.602+00:00</time>
      </trkpt>
      <trkpt lat="49.27171" lon="1.09761">
        <ele>123</ele>
        <time>2024-07-02T12:41:24.331+00:00</time>
      </trkpt>
      <trkpt lat="49.27171" lon="1.09768">
        <ele>122</ele>
        <time>2024-07-02T12:41:28.503+00:00</time>
      </trkpt>
      <trkpt lat="49.27171" lon="1.09773">
        <ele>122</ele>
        <time>2024-07-02T12:41:32.621+00:00</time>
      </trkpt>
      <trkpt lat="49.2717" lon="1.0978">
        <ele>122</ele>
        <time>2024-07-02T12:41:36.972+00:00</time>
      </trkpt>
      <trkpt lat="49.27169" lon="1.09789">
        <ele>122</ele>
        <time>2024-07-02T12:41:41.268+00:00</time>
      </trkpt>
      <trkpt lat="49.27169" lon="1.09797">
        <ele>123</ele>
        <time>2024-07-02T12:41:45.507+00:00</time>
      </trkpt>
      <trkpt lat="49.27169" lon="1.09806">
        <ele>123</ele>
        <time>2024-07-02T12:41:49.546+00:00</time>
      </trkpt>
      <trkpt lat="49.27169" lon="1.09814">
        <ele>123</ele>
        <time>2024-07-02T12:41:53.755+00:00</time>
      </trkpt>
      <trkpt lat="49.27169" lon="1.09822">
        <ele>124</ele>
        <time>2024-07-02T12:41:58.005+00:00</time>
      </trkpt>
      <trkpt lat="49.27168" lon="1.09829">
        <ele>124</ele>
        <time>2024-07-02T12:42:02.165+00:00</time>
      </trkpt>
      <trkpt lat="49.27167" lon="1.09836">
        <ele>124</ele>
        <time>2024-07-02T12:42:06.408+00:00</time>
      </trkpt>
      <trkpt lat="49.27166" lon="1.09843">
        <ele>124</ele>
        <time>2024-07-02T12:42:10.551+00:00</time>
      </trkpt>
      <trkpt lat="49.27164" lon="1.09848">
        <ele>125</ele>
        <time>2024-07-02T12:42:14.823+00:00</time>
      </trkpt>
      <trkpt lat="49.27161" lon="1.09854">
        <ele>125</ele>
        <time>2024-07-02T12:42:18.988+00:00</time>
      </trkpt>
      <trkpt lat="49.27159" lon="1.09862">
        <ele>125</ele>
        <time>2024-07-02T12:42:23.225+00:00</time>
      </trkpt>
      <trkpt lat="49.27158" lon="1.09868">
        <ele>125</ele>
        <time>2024-07-02T12:42:27.391+00:00</time>
      </trkpt>
      <trkpt lat="49.27157" lon="1.09876">
        <ele>125</ele>
        <time>2024-07-02T12:42:31.603+00:00</time>
      </trkpt>
      <trkpt lat="49.27156" lon="1.09883">
        <ele>125</ele>
        <time>2024-07-02T12:42:35.870+00:00</time>
      </trkpt>
      <trkpt lat="49.27156" lon="1.09891">
        <ele>125</ele>
        <time>2024-07-02T12:42:39.944+00:00</time>
      </trkpt>
      <trkpt lat="49.27157" lon="1.09899">
        <ele>125</ele>
        <time>2024-07-02T12:42:44.070+00:00</time>
      </trkpt>
      <trkpt lat="49.27159" lon="1.09907">
        <ele>126</ele>
        <time>2024-07-02T12:42:48.389+00:00</time>
      </trkpt>
      <trkpt lat="49.27159" lon="1.09914">
        <ele>126</ele>
        <time>2024-07-02T12:42:52.596+00:00</time>
      </trkpt>
      <trkpt lat="49.27159" lon="1.09922">
        <ele>126</ele>
        <time>2024-07-02T12:42:56.840+00:00</time>
      </trkpt>
      <trkpt lat="49.27161" lon="1.09927">
        <ele>126</ele>
        <time>2024-07-02T12:43:01.574+00:00</time>
      </trkpt>
      <trkpt lat="49.27162" lon="1.09933">
        <ele>126</ele>
        <time>2024-07-02T12:43:05.853+00:00</time>
      </trkpt>
      <trkpt lat="49.2716" lon="1.09942">
        <ele>126</ele>
        <time>2024-07-02T12:43:10.189+00:00</time>
      </trkpt>
      <trkpt lat="49.27159" lon="1.09949">
        <ele>126</ele>
        <time>2024-07-02T12:43:14.384+00:00</time>
      </trkpt>
      <trkpt lat="49.2716" lon="1.09954">
        <ele>126</ele>
        <time>2024-07-02T12:43:18.596+00:00</time>
      </trkpt>
      <trkpt lat="49.2716" lon="1.09961">
        <ele>126</ele>
        <time>2024-07-02T12:43:22.925+00:00</time>
      </trkpt>
      <trkpt lat="49.27161" lon="1.09967">
        <ele>126</ele>
        <time>2024-07-02T12:43:27.122+00:00</time>
      </trkpt>
      <trkpt lat="49.27161" lon="1.09975">
        <ele>126</ele>
        <time>2024-07-02T12:43:31.327+00:00</time>
      </trkpt>
      <trkpt lat="49.27162" lon="1.09981">
        <ele>126</ele>
        <time>2024-07-02T12:43:35.508+00:00</time>
      </trkpt>
      <trkpt lat="49.27163" lon="1.09988">
        <ele>125</ele>
        <time>2024-07-02T12:43:39.747+00:00</time>
      </trkpt>
      <trkpt lat="49.27164" lon="1.09994">
        <ele>125</ele>
        <time>2024-07-02T12:43:43.967+00:00</time>
      </trkpt>
      <trkpt lat="49.27165" lon="1.1">
        <ele>125</ele>
        <time>2024-07-02T12:43:48.113+00:00</time>
      </trkpt>
      <trkpt lat="49.27165" lon="1.10006">
        <ele>125</ele>
        <time>2024-07-02T12:43:52.230+00:00</time>
      </trkpt>
      <trkpt lat="49.27165" lon="1.10011">
        <ele>125</ele>
        <time>2024-07-02T12:43:56.408+00:00</time>
      </trkpt>
      <trkpt lat="49.27165" lon="1.10018">
        <ele>125</ele>
        <time>2024-07-02T12:44:00.529+00:00</time>
      </trkpt>
      <trkpt lat="49.27166" lon="1.10024">
        <ele>125</ele>
        <time>2024-07-02T12:44:04.745+00:00</time>
      </trkpt>
      <trkpt lat="49.27166" lon="1.10029">
        <ele>125</ele>
        <time>2024-07-02T12:44:08.968+00:00</time>
      </trkpt>
      <trkpt lat="49.27167" lon="1.10036">
        <ele>125</ele>
        <time>2024-07-02T12:44:13.249+00:00</time>
      </trkpt>
      <trkpt lat="49.27167" lon="1.10042">
        <ele>125</ele>
        <time>2024-07-02T12:44:17.528+00:00</time>
      </trkpt>
      <trkpt lat="49.27167" lon="1.10049">
        <ele>125</ele>
        <time>2024-07-02T12:44:21.602+00:00</time>
      </trkpt>
      <trkpt lat="49.27167" lon="1.10056">
        <ele>125</ele>
        <time>2024-07-02T12:44:26.448+00:00</time>
      </trkpt>
      <trkpt lat="49.27168" lon="1.10063">
        <ele>125</ele>
        <time>2024-07-02T12:44:30.623+00:00</time>
      </trkpt>
      <trkpt lat="49.27167" lon="1.10069">
        <ele>125</ele>
        <time>2024-07-02T12:44:34.808+00:00</time>
      </trkpt>
      <trkpt lat="49.27166" lon="1.10077">
        <ele>125</ele>
        <time>2024-07-02T12:44:39.033+00:00</time>
      </trkpt>
      <trkpt lat="49.27167" lon="1.10085">
        <ele>125</ele>
        <time>2024-07-02T12:44:43.225+00:00</time>
      </trkpt>
      <trkpt lat="49.27169" lon="1.10092">
        <ele>125</ele>
        <time>2024-07-02T12:44:47.451+00:00</time>
      </trkpt>
      <trkpt lat="49.2717" lon="1.10099">
        <ele>124</ele>
        <time>2024-07-02T12:44:51.564+00:00</time>
      </trkpt>
      <trkpt lat="49.2717" lon="1.10104">
        <ele>124</ele>
        <time>2024-07-02T12:44:55.810+00:00</time>
      </trkpt>
      <trkpt lat="49.2717" lon="1.10109">
        <ele>124</ele>
        <time>2024-07-02T12:44:59.965+00:00</time>
      </trkpt>
      <trkpt lat="49.2717" lon="1.10116">
        <ele>124</ele>
        <time>2024-07-02T12:45:04.109+00:00</time>
      </trkpt>
      <trkpt lat="49.27169" lon="1.10124">
        <ele>124</ele>
        <time>2024-07-02T12:45:08.266+00:00</time>
      </trkpt>
      <trkpt lat="49.2717" lon="1.1013">
        <ele>124</ele>
        <time>2024-07-02T12:45:12.328+00:00</time>
      </trkpt>
      <trkpt lat="49.27171" lon="1.10136">
        <ele>124</ele>
        <time>2024-07-02T12:45:16.519+00:00</time>
      </trkpt>
      <trkpt lat="49.27172" lon="1.10144">
        <ele>124</ele>
        <time>2024-07-02T12:45:20.585+00:00</time>
      </trkpt>
      <trkpt lat="49.27173" lon="1.10151">
        <ele>124</ele>
        <time>2024-07-02T12:45:24.767+00:00</time>
      </trkpt>
      <trkpt lat="49.27174" lon="1.1016">
        <ele>125</ele>
        <time>2024-07-02T12:45:29.469+00:00</time>
      </trkpt>
      <trkpt lat="49.27175" lon="1.10167">
        <ele>125</ele>
        <time>2024-07-02T12:45:33.544+00:00</time>
      </trkpt>
      <trkpt lat="49.27176" lon="1.10173">
        <ele>125</ele>
        <time>2024-07-02T12:45:37.589+00:00</time>
      </trkpt>
      <trkpt lat="49.27179" lon="1.1018">
        <ele>125</ele>
        <time>2024-07-02T12:45:42.330+00:00</time>
      </trkpt>
      <trkpt lat="49.27181" lon="1.10187">
        <ele>124</ele>
        <time>2024-07-02T12:45:46.367+00:00</time>
      </trkpt>
      <trkpt lat="49.27181" lon="1.10194">
        <ele>124</ele>
        <time>2024-07-02T12:45:50.483+00:00</time>
      </trkpt>
      <trkpt lat="49.27182" lon="1.10201">
        <ele>124</ele>
        <time>2024-07-02T12:45:54.572+00:00</time>
      </trkpt>
      <trkpt lat="49.27181" lon="1.10208">
        <ele>124</ele>
        <time>2024-07-02T12:45:58.597+00:00</time>
      </trkpt>
      <trkpt lat="49.27182" lon="1.10215">
        <ele>124</ele>
        <time>2024-07-02T12:46:02.825+00:00</time>
      </trkpt>
      <trkpt lat="49.27184" lon="1.10222">
        <ele>124</ele>
        <time>2024-07-02T12:46:06.932+00:00</time>
      </trkpt>
      <trkpt lat="49.27185" lon="1.10229">
        <ele>124</ele>
        <time>2024-07-02T12:46:11.128+00:00</time>
      </trkpt>
      <trkpt lat="49.27184" lon="1.10235">
        <ele>124</ele>
        <time>2024-07-02T12:46:15.203+00:00</time>
      </trkpt>
      <trkpt lat="49.27184" lon="1.10241">
        <ele>124</ele>
        <time>2024-07-02T12:46:19.328+00:00</time>
      </trkpt>
      <trkpt lat="49.27184" lon="1.1025">
        <ele>124</ele>
        <time>2024-07-02T12:46:23.509+00:00</time>
      </trkpt>
      <trkpt lat="49.27184" lon="1.10256">
        <ele>124</ele>
        <time>2024-07-02T12:46:27.597+00:00</time>
      </trkpt>
      <trkpt lat="49.27185" lon="1.10263">
        <ele>124</ele>
        <time>2024-07-02T12:46:31.928+00:00</time>
      </trkpt>
      <trkpt lat="49.27185" lon="1.1027">
        <ele>125</ele>
        <time>2024-07-02T12:46:36.091+00:00</time>
      </trkpt>
      <trkpt lat="49.27186" lon="1.10276">
        <ele>125</ele>
        <time>2024-07-02T12:46:40.273+00:00</time>
      </trkpt>
      <trkpt lat="49.27186" lon="1.10283">
        <ele>125</ele>
        <time>2024-07-02T12:46:44.492+00:00</time>
      </trkpt>
      <trkpt lat="49.27187" lon="1.10291">
        <ele>125</ele>
        <time>2024-07-02T12:46:48.593+00:00</time>
      </trkpt>
      <trkpt lat="49.27187" lon="1.10298">
        <ele>125</ele>
        <time>2024-07-02T12:46:53.154+00:00</time>
      </trkpt>
      <trkpt lat="49.27187" lon="1.103">
        <ele>125</ele>
        <time>2024-07-02T12:46:57.606+00:00</time>
      </trkpt>
      <trkpt lat="49.2719" lon="1.10308">
        <ele>125</ele>
        <time>2024-07-02T12:47:01.847+00:00</time>
      </trkpt>
      <trkpt lat="49.27192" lon="1.10315">
        <ele>125</ele>
        <time>2024-07-02T12:47:06.050+00:00</time>
      </trkpt>
      <trkpt lat="49.27193" lon="1.10322">
        <ele>125</ele>
        <time>2024-07-02T12:47:10.129+00:00</time>
      </trkpt>
      <trkpt lat="49.27196" lon="1.10328">
        <ele>125</ele>
        <time>2024-07-02T12:47:14.401+00:00</time>
      </trkpt>
      <trkpt lat="49.27197" lon="1.10338">
        <ele>125</ele>
        <time>2024-07-02T12:47:18.987+00:00</time>
      </trkpt>
      <trkpt lat="49.27196" lon="1.10345">
        <ele>125</ele>
        <time>2024-07-02T12:47:23.208+00:00</time>
      </trkpt>
      <trkpt lat="49.27195" lon="1.10346">
        <ele>125</ele>
        <time>2024-07-02T12:47:27.595+00:00</time>
      </trkpt>
      <trkpt lat="49.27198" lon="1.10352">
        <ele>125</ele>
        <time>2024-07-02T12:47:31.992+00:00</time>
      </trkpt>
      <trkpt lat="49.27201" lon="1.10362">
        <ele>125</ele>
        <time>2024-07-02T12:47:36.591+00:00</time>
      </trkpt>
      <trkpt lat="49.272" lon="1.10373">
        <ele>125</ele>
        <time>2024-07-02T12:47:40.622+00:00</time>
      </trkpt>
      <trkpt lat="49.272" lon="1.10385">
        <ele>125</ele>
        <time>2024-07-02T12:47:44.616+00:00</time>
      </trkpt>
      <trkpt lat="49.272" lon="1.10399">
        <ele>125</ele>
        <time>2024-07-02T12:47:49.301+00:00</time>
      </trkpt>
      <trkpt lat="49.272" lon="1.10409">
        <ele>126</ele>
        <time>2024-07-02T12:47:53.369+00:00</time>
      </trkpt>
      <trkpt lat="49.27202" lon="1.10419">
        <ele>126</ele>
        <time>2024-07-02T12:47:57.591+00:00</time>
      </trkpt>
      <trkpt lat="49.27204" lon="1.10427">
        <ele>126</ele>
        <time>2024-07-02T12:48:02.026+00:00</time>
      </trkpt>
      <trkpt lat="49.27204" lon="1.10437">
        <ele>126</ele>
        <time>2024-07-02T12:48:06.387+00:00</time>
      </trkpt>
      <trkpt lat="49.27205" lon="1.10448">
        <ele>126</ele>
        <time>2024-07-02T12:48:10.963+00:00</time>
      </trkpt>
      <trkpt lat="49.27206" lon="1.10457">
        <ele>126</ele>
        <time>2024-07-02T12:48:15.048+00:00</time>
      </trkpt>
      <trkpt lat="49.27208" lon="1.10464">
        <ele>126</ele>
        <time>2024-07-02T12:48:19.195+00:00</time>
      </trkpt>
      <trkpt lat="49.27209" lon="1.10473">
        <ele>126</ele>
        <time>2024-07-02T12:48:23.608+00:00</time>
      </trkpt>
      <trkpt lat="49.2721" lon="1.10482">
        <ele>126</ele>
        <time>2024-07-02T12:48:27.614+00:00</time>
      </trkpt>
      <trkpt lat="49.27211" lon="1.10489">
        <ele>126</ele>
        <time>2024-07-02T12:48:31.656+00:00</time>
      </trkpt>
      <trkpt lat="49.27211" lon="1.10494">
        <ele>126</ele>
        <time>2024-07-02T12:48:36.107+00:00</time>
      </trkpt>
      <trkpt lat="49.27213" lon="1.10502">
        <ele>126</ele>
        <time>2024-07-02T12:48:40.190+00:00</time>
      </trkpt>
      <trkpt lat="49.27214" lon="1.1051">
        <ele>126</ele>
        <time>2024-07-02T12:48:44.617+00:00</time>
      </trkpt>
      <trkpt lat="49.27214" lon="1.10517">
        <ele>125</ele>
        <time>2024-07-02T12:48:48.802+00:00</time>
      </trkpt>
      <trkpt lat="49.27214" lon="1.10524">
        <ele>125</ele>
        <time>2024-07-02T12:48:52.950+00:00</time>
      </trkpt>
      <trkpt lat="49.27213" lon="1.10531">
        <ele>125</ele>
        <time>2024-07-02T12:48:57.022+00:00</time>
      </trkpt>
      <trkpt lat="49.27211" lon="1.10537">
        <ele>125</ele>
        <time>2024-07-02T12:49:01.089+00:00</time>
      </trkpt>
      <trkpt lat="49.27208" lon="1.10542">
        <ele>126</ele>
        <time>2024-07-02T12:49:05.284+00:00</time>
      </trkpt>
      <trkpt lat="49.27204" lon="1.10547">
        <ele>126</ele>
        <time>2024-07-02T12:49:09.508+00:00</time>
      </trkpt>
      <trkpt lat="49.27201" lon="1.10552">
        <ele>126</ele>
        <time>2024-07-02T12:49:36.604+00:00</time>
      </trkpt>
      <trkpt lat="49.272" lon="1.10554">
        <ele>126</ele>
        <time>2024-07-02T12:49:41.322+00:00</time>
      </trkpt>
      <trkpt lat="49.27197" lon="1.10558">
        <ele>126</ele>
        <time>2024-07-02T12:49:45.567+00:00</time>
      </trkpt>
      <trkpt lat="49.27194" lon="1.10563">
        <ele>126</ele>
        <time>2024-07-02T12:49:49.603+00:00</time>
      </trkpt>
      <trkpt lat="49.27192" lon="1.1057">
        <ele>126</ele>
        <time>2024-07-02T12:49:53.600+00:00</time>
      </trkpt>
      <trkpt lat="49.27195" lon="1.1058">
        <ele>126</ele>
        <time>2024-07-02T12:49:58.105+00:00</time>
      </trkpt>
      <trkpt lat="49.27196" lon="1.10589">
        <ele>126</ele>
        <time>2024-07-02T12:50:02.167+00:00</time>
      </trkpt>
      <trkpt lat="49.27198" lon="1.10599">
        <ele>126</ele>
        <time>2024-07-02T12:50:06.801+00:00</time>
      </trkpt>
      <trkpt lat="49.272" lon="1.10608">
        <ele>126</ele>
        <time>2024-07-02T12:50:11.387+00:00</time>
      </trkpt>
      <trkpt lat="49.27203" lon="1.10615">
        <ele>126</ele>
        <time>2024-07-02T12:50:16.085+00:00</time>
      </trkpt>
      <trkpt lat="49.27205" lon="1.10622">
        <ele>126</ele>
        <time>2024-07-02T12:50:20.529+00:00</time>
      </trkpt>
      <trkpt lat="49.27207" lon="1.10628">
        <ele>126</ele>
        <time>2024-07-02T12:50:24.608+00:00</time>
      </trkpt>
      <trkpt lat="49.2721" lon="1.10637">
        <ele>126</ele>
        <time>2024-07-02T12:50:29.047+00:00</time>
      </trkpt>
      <trkpt lat="49.27212" lon="1.10645">
        <ele>126</ele>
        <time>2024-07-02T12:50:33.523+00:00</time>
      </trkpt>
      <trkpt lat="49.27215" lon="1.1065">
        <ele>126</ele>
        <time>2024-07-02T12:50:37.505+00:00</time>
      </trkpt>
      <trkpt lat="49.27217" lon="1.10657">
        <ele>126</ele>
        <time>2024-07-02T12:50:41.613+00:00</time>
      </trkpt>
      <trkpt lat="49.27219" lon="1.10663">
        <ele>126</ele>
        <time>2024-07-02T12:50:45.924+00:00</time>
      </trkpt>
      <trkpt lat="49.27221" lon="1.10668">
        <ele>126</ele>
        <time>2024-07-02T12:50:49.975+00:00</time>
      </trkpt>
      <trkpt lat="49.27223" lon="1.10674">
        <ele>126</ele>
        <time>2024-07-02T12:50:54.231+00:00</time>
      </trkpt>
      <trkpt lat="49.27226" lon="1.10682">
        <ele>125</ele>
        <time>2024-07-02T12:50:58.612+00:00</time>
      </trkpt>
      <trkpt lat="49.27228" lon="1.10689">
        <ele>125</ele>
        <time>2024-07-02T12:51:02.630+00:00</time>
      </trkpt>
      <trkpt lat="49.2723" lon="1.10696">
        <ele>125</ele>
        <time>2024-07-02T12:51:06.826+00:00</time>
      </trkpt>
      <trkpt lat="49.27231" lon="1.10704">
        <ele>125</ele>
        <time>2024-07-02T12:51:10.933+00:00</time>
      </trkpt>
      <trkpt lat="49.27234" lon="1.10711">
        <ele>124</ele>
        <time>2024-07-02T12:51:15.125+00:00</time>
      </trkpt>
      <trkpt lat="49.27236" lon="1.10716">
        <ele>124</ele>
        <time>2024-07-02T12:51:19.213+00:00</time>
      </trkpt>
      <trkpt lat="49.27239" lon="1.10722">
        <ele>124</ele>
        <time>2024-07-02T12:51:23.343+00:00</time>
      </trkpt>
      <trkpt lat="49.27242" lon="1.10728">
        <ele>124</ele>
        <time>2024-07-02T12:51:27.462+00:00</time>
      </trkpt>
      <trkpt lat="49.27245" lon="1.10734">
        <ele>124</ele>
        <time>2024-07-02T12:51:31.610+00:00</time>
      </trkpt>
      <trkpt lat="49.27245" lon="1.10736">
        <ele>124</ele>
        <time>2024-07-02T12:51:35.613+00:00</time>
      </trkpt>
      <trkpt lat="49.27245" lon="1.10735">
        <ele>124</ele>
        <time>2024-07-02T12:51:40.409+00:00</time>
      </trkpt>
      <trkpt lat="49.27247" lon="1.1074">
        <ele>123</ele>
        <time>2024-07-02T12:51:44.931+00:00</time>
      </trkpt>
      <trkpt lat="49.2725" lon="1.10747">
        <ele>123</ele>
        <time>2024-07-02T12:51:48.964+00:00</time>
      </trkpt>
      <trkpt lat="49.27253" lon="1.10752">
        <ele>123</ele>
        <time>2024-07-02T12:51:53.108+00:00</time>
      </trkpt>
      <trkpt lat="49.27256" lon="1.10757">
        <ele>123</ele>
        <time>2024-07-02T12:51:57.213+00:00</time>
      </trkpt>
      <trkpt lat="49.2726" lon="1.10762">
        <ele>123</ele>
        <time>2024-07-02T12:52:01.304+00:00</time>
      </trkpt>
      <trkpt lat="49.27264" lon="1.10766">
        <ele>123</ele>
        <time>2024-07-02T12:52:05.578+00:00</time>
      </trkpt>
      <trkpt lat="49.27268" lon="1.1077">
        <ele>124</ele>
        <time>2024-07-02T12:52:09.848+00:00</time>
      </trkpt>
      <trkpt lat="49.27275" lon="1.10778">
        <ele>124</ele>
        <time>2024-07-02T12:52:19.406+00:00</time>
      </trkpt>
      <trkpt lat="49.27276" lon="1.10779">
        <ele>124</ele>
        <time>2024-07-02T12:52:24.603+00:00</time>
      </trkpt>
      <trkpt lat="49.27275" lon="1.10781">
        <ele>124</ele>
        <time>2024-07-02T12:52:29.133+00:00</time>
      </trkpt>
      <trkpt lat="49.27271" lon="1.10785">
        <ele>124</ele>
        <time>2024-07-02T12:52:33.270+00:00</time>
      </trkpt>
      <trkpt lat="49.27267" lon="1.1079">
        <ele>124</ele>
        <time>2024-07-02T12:52:37.885+00:00</time>
      </trkpt>
      <trkpt lat="49.27269" lon="1.10795">
        <ele>126</ele>
        <time>2024-07-02T12:52:55.031+00:00</time>
      </trkpt>
      <trkpt lat="49.2727" lon="1.10789">
        <ele>124</ele>
        <time>2024-07-02T12:52:59.127+00:00</time>
      </trkpt>
      <trkpt lat="49.27275" lon="1.10787">
        <ele>124</ele>
        <time>2024-07-02T12:53:03.512+00:00</time>
      </trkpt>
      <trkpt lat="49.27278" lon="1.10785">
        <ele>124</ele>
        <time>2024-07-02T12:53:07.801+00:00</time>
      </trkpt>
      <trkpt lat="49.27282" lon="1.10782">
        <ele>124</ele>
        <time>2024-07-02T12:53:12.403+00:00</time>
      </trkpt>
      <trkpt lat="49.27284" lon="1.10789">
        <ele>124</ele>
        <time>2024-07-02T12:53:16.588+00:00</time>
      </trkpt>
      <trkpt lat="49.27285" lon="1.10797">
        <ele>126</ele>
        <time>2024-07-02T12:53:20.604+00:00</time>
      </trkpt>
      <trkpt lat="49.27288" lon="1.10799">
        <ele>126</ele>
        <time>2024-07-02T12:53:24.962+00:00</time>
      </trkpt>
      <trkpt lat="49.27293" lon="1.108">
        <ele>128</ele>
        <time>2024-07-02T12:53:29.575+00:00</time>
      </trkpt>
      <trkpt lat="49.27297" lon="1.10803">
        <ele>128</ele>
        <time>2024-07-02T12:53:42.846+00:00</time>
      </trkpt>
      <trkpt lat="49.27295" lon="1.10807">
        <ele>128</ele>
        <time>2024-07-02T12:53:47.203+00:00</time>
      </trkpt>
      <trkpt lat="49.27295" lon="1.10814">
        <ele>128</ele>
        <time>2024-07-02T12:53:51.427+00:00</time>
      </trkpt>
      <trkpt lat="49.27294" lon="1.10821">
        <ele>128</ele>
        <time>2024-07-02T12:53:55.506+00:00</time>
      </trkpt>
      <trkpt lat="49.27292" lon="1.10827">
        <ele>128</ele>
        <time>2024-07-02T12:53:59.592+00:00</time>
      </trkpt>
      <trkpt lat="49.27292" lon="1.10832">
        <ele>128</ele>
        <time>2024-07-02T12:54:03.769+00:00</time>
      </trkpt>
      <trkpt lat="49.27293" lon="1.10838">
        <ele>128</ele>
        <time>2024-07-02T12:54:07.964+00:00</time>
      </trkpt>
      <trkpt lat="49.27296" lon="1.10844">
        <ele>128</ele>
        <time>2024-07-02T12:54:12.589+00:00</time>
      </trkpt>
      <trkpt lat="49.27299" lon="1.10849">
        <ele>127</ele>
        <time>2024-07-02T12:54:17.104+00:00</time>
      </trkpt>
      <trkpt lat="49.27301" lon="1.10856">
        <ele>127</ele>
        <time>2024-07-02T12:54:21.191+00:00</time>
      </trkpt>
      <trkpt lat="49.27304" lon="1.10863">
        <ele>127</ele>
        <time>2024-07-02T12:54:25.267+00:00</time>
      </trkpt>
      <trkpt lat="49.27305" lon="1.10869">
        <ele>127</ele>
        <time>2024-07-02T12:54:29.582+00:00</time>
      </trkpt>
      <trkpt lat="49.27306" lon="1.10874">
        <ele>127</ele>
        <time>2024-07-02T12:54:33.601+00:00</time>
      </trkpt>
      <trkpt lat="49.27307" lon="1.1088">
        <ele>126</ele>
        <time>2024-07-02T12:54:37.842+00:00</time>
      </trkpt>
      <trkpt lat="49.27309" lon="1.10885">
        <ele>126</ele>
        <time>2024-07-02T12:54:41.989+00:00</time>
      </trkpt>
      <trkpt lat="49.27311" lon="1.10889">
        <ele>126</ele>
        <time>2024-07-02T12:54:46.184+00:00</time>
      </trkpt>
      <trkpt lat="49.27313" lon="1.10893">
        <ele>126</ele>
        <time>2024-07-02T12:54:50.247+00:00</time>
      </trkpt>
      <trkpt lat="49.27316" lon="1.10897">
        <ele>126</ele>
        <time>2024-07-02T12:54:54.216+00:00</time>
      </trkpt>
      <trkpt lat="49.27318" lon="1.10905">
        <ele>125</ele>
        <time>2024-07-02T12:54:58.590+00:00</time>
      </trkpt>
      <trkpt lat="49.2732" lon="1.10912">
        <ele>127</ele>
        <time>2024-07-02T12:55:03.025+00:00</time>
      </trkpt>
      <trkpt lat="49.27323" lon="1.10918">
        <ele>127</ele>
        <time>2024-07-02T12:55:07.192+00:00</time>
      </trkpt>
      <trkpt lat="49.27325" lon="1.10925">
        <ele>127</ele>
        <time>2024-07-02T12:55:11.385+00:00</time>
      </trkpt>
      <trkpt lat="49.27327" lon="1.10932">
        <ele>126</ele>
        <time>2024-07-02T12:55:15.525+00:00</time>
      </trkpt>
      <trkpt lat="49.27329" lon="1.10939">
        <ele>126</ele>
        <time>2024-07-02T12:55:19.593+00:00</time>
      </trkpt>
      <trkpt lat="49.2733" lon="1.10945">
        <ele>126</ele>
        <time>2024-07-02T12:55:24.022+00:00</time>
      </trkpt>
      <trkpt lat="49.27331" lon="1.10953">
        <ele>126</ele>
        <time>2024-07-02T12:55:28.597+00:00</time>
      </trkpt>
      <trkpt lat="49.27333" lon="1.1096">
        <ele>125</ele>
        <time>2024-07-02T12:55:32.846+00:00</time>
      </trkpt>
      <trkpt lat="49.27336" lon="1.10966">
        <ele>125</ele>
        <time>2024-07-02T12:55:37.012+00:00</time>
      </trkpt>
      <trkpt lat="49.27338" lon="1.1097">
        <ele>125</ele>
        <time>2024-07-02T12:55:41.150+00:00</time>
      </trkpt>
      <trkpt lat="49.27339" lon="1.10975">
        <ele>125</ele>
        <time>2024-07-02T12:55:45.271+00:00</time>
      </trkpt>
      <trkpt lat="49.27339" lon="1.1098">
        <ele>125</ele>
        <time>2024-07-02T12:55:49.422+00:00</time>
      </trkpt>
      <trkpt lat="49.27339" lon="1.10986">
        <ele>124</ele>
        <time>2024-07-02T12:55:53.601+00:00</time>
      </trkpt>
      <trkpt lat="49.2734" lon="1.10993">
        <ele>124</ele>
        <time>2024-07-02T12:55:57.887+00:00</time>
      </trkpt>
      <trkpt lat="49.2734" lon="1.11001">
        <ele>124</ele>
        <time>2024-07-02T12:56:02.089+00:00</time>
      </trkpt>
      <trkpt lat="49.27341" lon="1.11007">
        <ele>124</ele>
        <time>2024-07-02T12:56:06.189+00:00</time>
      </trkpt>
      <trkpt lat="49.27342" lon="1.11014">
        <ele>124</ele>
        <time>2024-07-02T12:56:10.390+00:00</time>
      </trkpt>
      <trkpt lat="49.27343" lon="1.1102">
        <ele>124</ele>
        <time>2024-07-02T12:56:14.512+00:00</time>
      </trkpt>
      <trkpt lat="49.27344" lon="1.11028">
        <ele>124</ele>
        <time>2024-07-02T12:56:18.606+00:00</time>
      </trkpt>
      <trkpt lat="49.27345" lon="1.11036">
        <ele>124</ele>
        <time>2024-07-02T12:56:22.907+00:00</time>
      </trkpt>
      <trkpt lat="49.27345" lon="1.11043">
        <ele>124</ele>
        <time>2024-07-02T12:56:27.087+00:00</time>
      </trkpt>
      <trkpt lat="49.27346" lon="1.1105">
        <ele>124</ele>
        <time>2024-07-02T12:56:31.247+00:00</time>
      </trkpt>
      <trkpt lat="49.27348" lon="1.11058">
        <ele>124</ele>
        <time>2024-07-02T12:56:35.494+00:00</time>
      </trkpt>
      <trkpt lat="49.27351" lon="1.11064">
        <ele>124</ele>
        <time>2024-07-02T12:56:39.608+00:00</time>
      </trkpt>
      <trkpt lat="49.27353" lon="1.11073">
        <ele>125</ele>
        <time>2024-07-02T12:56:44.332+00:00</time>
      </trkpt>
      <trkpt lat="49.27355" lon="1.11081">
        <ele>125</ele>
        <time>2024-07-02T12:56:48.492+00:00</time>
      </trkpt>
      <trkpt lat="49.27357" lon="1.11088">
        <ele>125</ele>
        <time>2024-07-02T12:56:53.226+00:00</time>
      </trkpt>
      <trkpt lat="49.27358" lon="1.11095">
        <ele>125</ele>
        <time>2024-07-02T12:56:57.574+00:00</time>
      </trkpt>
      <trkpt lat="49.27361" lon="1.111">
        <ele>126</ele>
        <time>2024-07-02T12:57:01.903+00:00</time>
      </trkpt>
      <trkpt lat="49.27364" lon="1.11107">
        <ele>126</ele>
        <time>2024-07-02T12:57:06.168+00:00</time>
      </trkpt>
      <trkpt lat="49.27365" lon="1.11118">
        <ele>126</ele>
        <time>2024-07-02T12:57:10.619+00:00</time>
      </trkpt>
      <trkpt lat="49.27364" lon="1.11127">
        <ele>128</ele>
        <time>2024-07-02T12:57:14.966+00:00</time>
      </trkpt>
      <trkpt lat="49.27363" lon="1.11134">
        <ele>128</ele>
        <time>2024-07-02T12:57:19.131+00:00</time>
      </trkpt>
      <trkpt lat="49.27361" lon="1.11141">
        <ele>128</ele>
        <time>2024-07-02T12:57:23.242+00:00</time>
      </trkpt>
      <trkpt lat="49.27358" lon="1.11147">
        <ele>128</ele>
        <time>2024-07-02T12:57:27.405+00:00</time>
      </trkpt>
      <trkpt lat="49.27354" lon="1.11151">
        <ele>128</ele>
        <time>2024-07-02T12:57:31.532+00:00</time>
      </trkpt>
      <trkpt lat="49.2735" lon="1.11156">
        <ele>129</ele>
        <time>2024-07-02T12:57:35.600+00:00</time>
      </trkpt>
      <trkpt lat="49.27347" lon="1.11161">
        <ele>129</ele>
        <time>2024-07-02T12:57:39.823+00:00</time>
      </trkpt>
      <trkpt lat="49.27342" lon="1.11165">
        <ele>129</ele>
        <time>2024-07-02T12:57:44.063+00:00</time>
      </trkpt>
      <trkpt lat="49.27338" lon="1.11169">
        <ele>129</ele>
        <time>2024-07-02T12:57:48.306+00:00</time>
      </trkpt>
      <trkpt lat="49.27334" lon="1.11172">
        <ele>129</ele>
        <time>2024-07-02T12:57:52.511+00:00</time>
      </trkpt>
      <trkpt lat="49.27331" lon="1.11176">
        <ele>129</ele>
        <time>2024-07-02T12:57:56.809+00:00</time>
      </trkpt>
      <trkpt lat="49.27328" lon="1.1118">
        <ele>129</ele>
        <time>2024-07-02T12:58:01.169+00:00</time>
      </trkpt>
      <trkpt lat="49.27325" lon="1.11185">
        <ele>130</ele>
        <time>2024-07-02T12:58:05.423+00:00</time>
      </trkpt>
      <trkpt lat="49.27322" lon="1.11189">
        <ele>130</ele>
        <time>2024-07-02T12:58:09.601+00:00</time>
      </trkpt>
      <trkpt lat="49.27318" lon="1.11193">
        <ele>128</ele>
        <time>2024-07-02T12:58:14.107+00:00</time>
      </trkpt>
      <trkpt lat="49.27315" lon="1.11198">
        <ele>128</ele>
        <time>2024-07-02T12:58:18.410+00:00</time>
      </trkpt>
      <trkpt lat="49.27312" lon="1.11204">
        <ele>128</ele>
        <time>2024-07-02T12:58:22.589+00:00</time>
      </trkpt>
      <trkpt lat="49.2731" lon="1.11211">
        <ele>130</ele>
        <time>2024-07-02T12:58:26.902+00:00</time>
      </trkpt>
      <trkpt lat="49.27307" lon="1.11218">
        <ele>130</ele>
        <time>2024-07-02T12:58:31.047+00:00</time>
      </trkpt>
      <trkpt lat="49.27306" lon="1.11224">
        <ele>130</ele>
        <time>2024-07-02T12:58:35.329+00:00</time>
      </trkpt>
      <trkpt lat="49.27305" lon="1.1123">
        <ele>130</ele>
        <time>2024-07-02T12:58:39.572+00:00</time>
      </trkpt>
      <trkpt lat="49.27305" lon="1.11236">
        <ele>130</ele>
        <time>2024-07-02T12:58:43.822+00:00</time>
      </trkpt>
      <trkpt lat="49.27303" lon="1.11244">
        <ele>130</ele>
        <time>2024-07-02T12:58:48.046+00:00</time>
      </trkpt>
      <trkpt lat="49.27302" lon="1.11252">
        <ele>130</ele>
        <time>2024-07-02T12:58:52.369+00:00</time>
      </trkpt>
      <trkpt lat="49.27298" lon="1.1126">
        <ele>130</ele>
        <time>2024-07-02T12:58:56.568+00:00</time>
      </trkpt>
      <trkpt lat="49.27295" lon="1.11267">
        <ele>129</ele>
        <time>2024-07-02T12:59:00.829+00:00</time>
      </trkpt>
      <trkpt lat="49.27291" lon="1.11275">
        <ele>131</ele>
        <time>2024-07-02T12:59:04.989+00:00</time>
      </trkpt>
      <trkpt lat="49.27289" lon="1.11282">
        <ele>131</ele>
        <time>2024-07-02T12:59:09.148+00:00</time>
      </trkpt>
      <trkpt lat="49.27287" lon="1.11291">
        <ele>131</ele>
        <time>2024-07-02T12:59:13.364+00:00</time>
      </trkpt>
      <trkpt lat="49.27286" lon="1.113">
        <ele>131</ele>
        <time>2024-07-02T12:59:17.553+00:00</time>
      </trkpt>
      <trkpt lat="49.27284" lon="1.11308">
        <ele>131</ele>
        <time>2024-07-02T12:59:21.771+00:00</time>
      </trkpt>
      <trkpt lat="49.27283" lon="1.11316">
        <ele>131</ele>
        <time>2024-07-02T12:59:25.963+00:00</time>
      </trkpt>
      <trkpt lat="49.27282" lon="1.11324">
        <ele>131</ele>
        <time>2024-07-02T12:59:30.082+00:00</time>
      </trkpt>
      <trkpt lat="49.27281" lon="1.11332">
        <ele>131</ele>
        <time>2024-07-02T12:59:34.267+00:00</time>
      </trkpt>
      <trkpt lat="49.2728" lon="1.11339">
        <ele>131</ele>
        <time>2024-07-02T12:59:38.407+00:00</time>
      </trkpt>
      <trkpt lat="49.27279" lon="1.11348">
        <ele>131</ele>
        <time>2024-07-02T12:59:42.569+00:00</time>
      </trkpt>
      <trkpt lat="49.27279" lon="1.11355">
        <ele>131</ele>
        <time>2024-07-02T12:59:46.790+00:00</time>
      </trkpt>
      <trkpt lat="49.27278" lon="1.11363">
        <ele>131</ele>
        <time>2024-07-02T12:59:50.881+00:00</time>
      </trkpt>
      <trkpt lat="49.27278" lon="1.1137">
        <ele>131</ele>
        <time>2024-07-02T12:59:54.968+00:00</time>
      </trkpt>
      <trkpt lat="49.27276" lon="1.11377">
        <ele>132</ele>
        <time>2024-07-02T12:59:59.412+00:00</time>
      </trkpt>
      <trkpt lat="49.27276" lon="1.11385">
        <ele>132</ele>
        <time>2024-07-02T13:00:03.604+00:00</time>
      </trkpt>
      <trkpt lat="49.27274" lon="1.11393">
        <ele>132</ele>
        <time>2024-07-02T13:00:08.167+00:00</time>
      </trkpt>
      <trkpt lat="49.27273" lon="1.11401">
        <ele>132</ele>
        <time>2024-07-02T13:00:12.518+00:00</time>
      </trkpt>
      <trkpt lat="49.27271" lon="1.11409">
        <ele>132</ele>
        <time>2024-07-02T13:00:17.252+00:00</time>
      </trkpt>
      <trkpt lat="49.27269" lon="1.11416">
        <ele>132</ele>
        <time>2024-07-02T13:00:21.864+00:00</time>
      </trkpt>
      <trkpt lat="49.27268" lon="1.11421">
        <ele>132</ele>
        <time>2024-07-02T13:00:26.006+00:00</time>
      </trkpt>
      <trkpt lat="49.27266" lon="1.11428">
        <ele>132</ele>
        <time>2024-07-02T13:00:30.269+00:00</time>
      </trkpt>
      <trkpt lat="49.27264" lon="1.11434">
        <ele>131</ele>
        <time>2024-07-02T13:00:34.366+00:00</time>
      </trkpt>
      <trkpt lat="49.27262" lon="1.11441">
        <ele>134</ele>
        <time>2024-07-02T13:00:38.567+00:00</time>
      </trkpt>
      <trkpt lat="49.27261" lon="1.11448">
        <ele>134</ele>
        <time>2024-07-02T13:00:42.731+00:00</time>
      </trkpt>
      <trkpt lat="49.27259" lon="1.11454">
        <ele>134</ele>
        <time>2024-07-02T13:00:46.905+00:00</time>
      </trkpt>
      <trkpt lat="49.27258" lon="1.1146">
        <ele>132</ele>
        <time>2024-07-02T13:00:51.107+00:00</time>
      </trkpt>
      <trkpt lat="49.27257" lon="1.11466">
        <ele>132</ele>
        <time>2024-07-02T13:00:55.369+00:00</time>
      </trkpt>
      <trkpt lat="49.27256" lon="1.11472">
        <ele>132</ele>
        <time>2024-07-02T13:00:59.523+00:00</time>
      </trkpt>
      <trkpt lat="49.27256" lon="1.11479">
        <ele>132</ele>
        <time>2024-07-02T13:01:03.591+00:00</time>
      </trkpt>
      <trkpt lat="49.27255" lon="1.11487">
        <ele>129</ele>
        <time>2024-07-02T13:01:07.864+00:00</time>
      </trkpt>
      <trkpt lat="49.27254" lon="1.11494">
        <ele>129</ele>
        <time>2024-07-02T13:01:12.128+00:00</time>
      </trkpt>
      <trkpt lat="49.27253" lon="1.11501">
        <ele>129</ele>
        <time>2024-07-02T13:01:16.252+00:00</time>
      </trkpt>
      <trkpt lat="49.27251" lon="1.11508">
        <ele>129</ele>
        <time>2024-07-02T13:01:20.343+00:00</time>
      </trkpt>
      <trkpt lat="49.2725" lon="1.11515">
        <ele>129</ele>
        <time>2024-07-02T13:01:24.604+00:00</time>
      </trkpt>
      <trkpt lat="49.27248" lon="1.11523">
        <ele>129</ele>
        <time>2024-07-02T13:01:29.350+00:00</time>
      </trkpt>
      <trkpt lat="49.27247" lon="1.1153">
        <ele>129</ele>
        <time>2024-07-02T13:01:33.603+00:00</time>
      </trkpt>
      <trkpt lat="49.27246" lon="1.11537">
        <ele>129</ele>
        <time>2024-07-02T13:01:38.318+00:00</time>
      </trkpt>
      <trkpt lat="49.27245" lon="1.11545">
        <ele>129</ele>
        <time>2024-07-02T13:01:42.548+00:00</time>
      </trkpt>
      <trkpt lat="49.27245" lon="1.11553">
        <ele>129</ele>
        <time>2024-07-02T13:01:46.601+00:00</time>
      </trkpt>
      <trkpt lat="49.27245" lon="1.1156">
        <ele>129</ele>
        <time>2024-07-02T13:01:50.805+00:00</time>
      </trkpt>
      <trkpt lat="49.27245" lon="1.11568">
        <ele>129</ele>
        <time>2024-07-02T13:01:54.968+00:00</time>
      </trkpt>
      <trkpt lat="49.27244" lon="1.11575">
        <ele>129</ele>
        <time>2024-07-02T13:01:59.068+00:00</time>
      </trkpt>
      <trkpt lat="49.27243" lon="1.11583">
        <ele>129</ele>
        <time>2024-07-02T13:02:03.107+00:00</time>
      </trkpt>
      <trkpt lat="49.27242" lon="1.11592">
        <ele>129</ele>
        <time>2024-07-02T13:02:07.605+00:00</time>
      </trkpt>
      <trkpt lat="49.27241" lon="1.116">
        <ele>129</ele>
        <time>2024-07-02T13:02:11.862+00:00</time>
      </trkpt>
      <trkpt lat="49.27241" lon="1.11608">
        <ele>129</ele>
        <time>2024-07-02T13:02:15.989+00:00</time>
      </trkpt>
      <trkpt lat="49.27241" lon="1.11616">
        <ele>129</ele>
        <time>2024-07-02T13:02:20.072+00:00</time>
      </trkpt>
      <trkpt lat="49.2724" lon="1.11623">
        <ele>129</ele>
        <time>2024-07-02T13:02:24.291+00:00</time>
      </trkpt>
      <trkpt lat="49.2724" lon="1.1163">
        <ele>126</ele>
        <time>2024-07-02T13:02:28.345+00:00</time>
      </trkpt>
      <trkpt lat="49.27241" lon="1.11638">
        <ele>126</ele>
        <time>2024-07-02T13:02:32.448+00:00</time>
      </trkpt>
      <trkpt lat="49.27243" lon="1.11645">
        <ele>126</ele>
        <time>2024-07-02T13:02:36.527+00:00</time>
      </trkpt>
      <trkpt lat="49.27245" lon="1.11652">
        <ele>126</ele>
        <time>2024-07-02T13:02:40.609+00:00</time>
      </trkpt>
      <trkpt lat="49.27246" lon="1.11658">
        <ele>125</ele>
        <time>2024-07-02T13:02:44.729+00:00</time>
      </trkpt>
      <trkpt lat="49.27248" lon="1.11666">
        <ele>125</ele>
        <time>2024-07-02T13:02:49.244+00:00</time>
      </trkpt>
      <trkpt lat="49.27249" lon="1.11674">
        <ele>125</ele>
        <time>2024-07-02T13:02:53.526+00:00</time>
      </trkpt>
      <trkpt lat="49.2725" lon="1.1168">
        <ele>125</ele>
        <time>2024-07-02T13:02:57.590+00:00</time>
      </trkpt>
      <trkpt lat="49.27252" lon="1.11687">
        <ele>124</ele>
        <time>2024-07-02T13:03:01.602+00:00</time>
      </trkpt>
      <trkpt lat="49.27252" lon="1.11694">
        <ele>124</ele>
        <time>2024-07-02T13:03:05.907+00:00</time>
      </trkpt>
      <trkpt lat="49.27253" lon="1.11701">
        <ele>124</ele>
        <time>2024-07-02T13:03:10.028+00:00</time>
      </trkpt>
      <trkpt lat="49.27253" lon="1.1171">
        <ele>125</ele>
        <time>2024-07-02T13:03:14.169+00:00</time>
      </trkpt>
      <trkpt lat="49.27253" lon="1.11717">
        <ele>125</ele>
        <time>2024-07-02T13:03:18.370+00:00</time>
      </trkpt>
      <trkpt lat="49.27253" lon="1.11724">
        <ele>125</ele>
        <time>2024-07-02T13:03:22.431+00:00</time>
      </trkpt>
      <trkpt lat="49.27254" lon="1.1173">
        <ele>125</ele>
        <time>2024-07-02T13:03:26.503+00:00</time>
      </trkpt>
      <trkpt lat="49.27255" lon="1.11737">
        <ele>126</ele>
        <time>2024-07-02T13:03:30.520+00:00</time>
      </trkpt>
      <trkpt lat="49.27257" lon="1.11745">
        <ele>126</ele>
        <time>2024-07-02T13:03:35.006+00:00</time>
      </trkpt>
      <trkpt lat="49.27259" lon="1.11751">
        <ele>126</ele>
        <time>2024-07-02T13:03:39.152+00:00</time>
      </trkpt>
      <trkpt lat="49.2726" lon="1.11758">
        <ele>126</ele>
        <time>2024-07-02T13:03:43.171+00:00</time>
      </trkpt>
      <trkpt lat="49.27261" lon="1.11765">
        <ele>126</ele>
        <time>2024-07-02T13:03:47.244+00:00</time>
      </trkpt>
      <trkpt lat="49.27262" lon="1.11772">
        <ele>126</ele>
        <time>2024-07-02T13:03:51.607+00:00</time>
      </trkpt>
      <trkpt lat="49.27263" lon="1.1178">
        <ele>126</ele>
        <time>2024-07-02T13:03:55.653+00:00</time>
      </trkpt>
      <trkpt lat="49.27263" lon="1.11788">
        <ele>126</ele>
        <time>2024-07-02T13:03:59.809+00:00</time>
      </trkpt>
      <trkpt lat="49.27263" lon="1.11795">
        <ele>126</ele>
        <time>2024-07-02T13:04:03.964+00:00</time>
      </trkpt>
      <trkpt lat="49.27264" lon="1.11801">
        <ele>122</ele>
        <time>2024-07-02T13:04:08.004+00:00</time>
      </trkpt>
      <trkpt lat="49.27265" lon="1.11808">
        <ele>122</ele>
        <time>2024-07-02T13:04:12.249+00:00</time>
      </trkpt>
      <trkpt lat="49.27267" lon="1.11814">
        <ele>122</ele>
        <time>2024-07-02T13:04:16.323+00:00</time>
      </trkpt>
      <trkpt lat="49.27268" lon="1.11821">
        <ele>120</ele>
        <time>2024-07-02T13:04:20.609+00:00</time>
      </trkpt>
      <trkpt lat="49.2727" lon="1.11827">
        <ele>120</ele>
        <time>2024-07-02T13:04:24.821+00:00</time>
      </trkpt>
      <trkpt lat="49.27271" lon="1.11833">
        <ele>120</ele>
        <time>2024-07-02T13:04:29.003+00:00</time>
      </trkpt>
      <trkpt lat="49.27271" lon="1.11841">
        <ele>120</ele>
        <time>2024-07-02T13:04:33.328+00:00</time>
      </trkpt>
      <trkpt lat="49.27271" lon="1.11848">
        <ele>119</ele>
        <time>2024-07-02T13:04:37.551+00:00</time>
      </trkpt>
      <trkpt lat="49.27271" lon="1.11855">
        <ele>119</ele>
        <time>2024-07-02T13:04:41.820+00:00</time>
      </trkpt>
      <trkpt lat="49.27266" lon="1.11867">
        <ele>119</ele>
        <time>2024-07-02T13:07:36.600+00:00</time>
      </trkpt>
      <trkpt lat="49.27265" lon="1.11869">
        <ele>119</ele>
        <time>2024-07-02T13:07:41.597+00:00</time>
      </trkpt>
      <trkpt lat="49.27265" lon="1.1187">
        <ele>119</ele>
        <time>2024-07-02T13:07:45.597+00:00</time>
      </trkpt>
      <trkpt lat="49.27265" lon="1.11871">
        <ele>119</ele>
        <time>2024-07-02T13:07:50.602+00:00</time>
      </trkpt>
      <trkpt lat="49.27265" lon="1.11872">
        <ele>119</ele>
        <time>2024-07-02T13:08:00.585+00:00</time>
      </trkpt>
      <trkpt lat="49.2727" lon="1.11871">
        <ele>119</ele>
        <time>2024-07-02T13:10:12.601+00:00</time>
      </trkpt>
      <trkpt lat="49.27272" lon="1.11873">
        <ele>119</ele>
        <time>2024-07-02T13:10:17.620+00:00</time>
      </trkpt>
      <trkpt lat="49.27272" lon="1.11875">
        <ele>117</ele>
        <time>2024-07-02T13:10:22.605+00:00</time>
      </trkpt>
      <trkpt lat="49.27273" lon="1.11878">
        <ele>117</ele>
        <time>2024-07-02T13:10:26.762+00:00</time>
      </trkpt>
      <trkpt lat="49.27274" lon="1.11882">
        <ele>117</ele>
        <time>2024-07-02T13:10:31.029+00:00</time>
      </trkpt>
      <trkpt lat="49.27275" lon="1.11887">
        <ele>117</ele>
        <time>2024-07-02T13:10:35.305+00:00</time>
      </trkpt>
      <trkpt lat="49.27274" lon="1.11893">
        <ele>117</ele>
        <time>2024-07-02T13:10:39.527+00:00</time>
      </trkpt>
      <trkpt lat="49.27273" lon="1.11897">
        <ele>117</ele>
        <time>2024-07-02T13:10:43.599+00:00</time>
      </trkpt>
      <trkpt lat="49.27272" lon="1.11903">
        <ele>117</ele>
        <time>2024-07-02T13:10:47.614+00:00</time>
      </trkpt>
      <trkpt lat="49.27271" lon="1.1191">
        <ele>117</ele>
        <time>2024-07-02T13:10:51.791+00:00</time>
      </trkpt>
      <trkpt lat="49.2727" lon="1.11915">
        <ele>117</ele>
        <time>2024-07-02T13:10:55.826+00:00</time>
      </trkpt>
      <trkpt lat="49.27268" lon="1.11919">
        <ele>117</ele>
        <time>2024-07-02T13:11:00.072+00:00</time>
      </trkpt>
      <trkpt lat="49.2727" lon="1.11927">
        <ele>117</ele>
        <time>2024-07-02T13:11:04.147+00:00</time>
      </trkpt>
      <trkpt lat="49.27271" lon="1.11934">
        <ele>117</ele>
        <time>2024-07-02T13:11:08.211+00:00</time>
      </trkpt>
      <trkpt lat="49.2727" lon="1.11939">
        <ele>117</ele>
        <time>2024-07-02T13:11:12.279+00:00</time>
      </trkpt>
      <trkpt lat="49.2727" lon="1.11946">
        <ele>117</ele>
        <time>2024-07-02T13:11:16.529+00:00</time>
      </trkpt>
      <trkpt lat="49.27269" lon="1.11952">
        <ele>117</ele>
        <time>2024-07-02T13:11:20.598+00:00</time>
      </trkpt>
      <trkpt lat="49.27268" lon="1.1196">
        <ele>119</ele>
        <time>2024-07-02T13:11:24.767+00:00</time>
      </trkpt>
      <trkpt lat="49.27268" lon="1.11967">
        <ele>119</ele>
        <time>2024-07-02T13:11:28.843+00:00</time>
      </trkpt>
      <trkpt lat="49.27267" lon="1.11975">
        <ele>119</ele>
        <time>2024-07-02T13:11:33.428+00:00</time>
      </trkpt>
      <trkpt lat="49.27267" lon="1.11982">
        <ele>119</ele>
        <time>2024-07-02T13:11:37.443+00:00</time>
      </trkpt>
      <trkpt lat="49.27268" lon="1.1199">
        <ele>121</ele>
        <time>2024-07-02T13:11:41.592+00:00</time>
      </trkpt>
      <trkpt lat="49.2727" lon="1.11997">
        <ele>121</ele>
        <time>2024-07-02T13:11:45.962+00:00</time>
      </trkpt>
      <trkpt lat="49.27271" lon="1.12004">
        <ele>121</ele>
        <time>2024-07-02T13:11:49.987+00:00</time>
      </trkpt>
      <trkpt lat="49.27271" lon="1.12012">
        <ele>121</ele>
        <time>2024-07-02T13:11:54.164+00:00</time>
      </trkpt>
      <trkpt lat="49.27269" lon="1.12018">
        <ele>123</ele>
        <time>2024-07-02T13:11:58.249+00:00</time>
      </trkpt>
      <trkpt lat="49.27268" lon="1.12023">
        <ele>123</ele>
        <time>2024-07-02T13:12:02.291+00:00</time>
      </trkpt>
      <trkpt lat="49.27266" lon="1.12029">
        <ele>123</ele>
        <time>2024-07-02T13:12:06.441+00:00</time>
      </trkpt>
      <trkpt lat="49.27267" lon="1.12036">
        <ele>123</ele>
        <time>2024-07-02T13:12:10.592+00:00</time>
      </trkpt>
      <trkpt lat="49.27267" lon="1.12043">
        <ele>124</ele>
        <time>2024-07-02T13:12:14.769+00:00</time>
      </trkpt>
      <trkpt lat="49.27269" lon="1.12051">
        <ele>124</ele>
        <time>2024-07-02T13:12:18.986+00:00</time>
      </trkpt>
      <trkpt lat="49.2727" lon="1.12059">
        <ele>124</ele>
        <time>2024-07-02T13:12:23.208+00:00</time>
      </trkpt>
      <trkpt lat="49.2727" lon="1.12066">
        <ele>124</ele>
        <time>2024-07-02T13:12:27.348+00:00</time>
      </trkpt>
      <trkpt lat="49.27271" lon="1.12074">
        <ele>124</ele>
        <time>2024-07-02T13:12:31.523+00:00</time>
      </trkpt>
      <trkpt lat="49.27272" lon="1.1208">
        <ele>124</ele>
        <time>2024-07-02T13:12:35.563+00:00</time>
      </trkpt>
      <trkpt lat="49.27273" lon="1.12087">
        <ele>124</ele>
        <time>2024-07-02T13:12:40.264+00:00</time>
      </trkpt>
      <trkpt lat="49.27274" lon="1.12095">
        <ele>124</ele>
        <time>2024-07-02T13:12:44.348+00:00</time>
      </trkpt>
      <trkpt lat="49.27274" lon="1.12103">
        <ele>124</ele>
        <time>2024-07-02T13:12:48.405+00:00</time>
      </trkpt>
      <trkpt lat="49.27273" lon="1.1211">
        <ele>124</ele>
        <time>2024-07-02T13:12:52.968+00:00</time>
      </trkpt>
      <trkpt lat="49.27273" lon="1.12118">
        <ele>124</ele>
        <time>2024-07-02T13:12:57.167+00:00</time>
      </trkpt>
      <trkpt lat="49.27273" lon="1.12125">
        <ele>123</ele>
        <time>2024-07-02T13:13:01.600+00:00</time>
      </trkpt>
      <trkpt lat="49.27272" lon="1.12132">
        <ele>123</ele>
        <time>2024-07-02T13:13:06.312+00:00</time>
      </trkpt>
      <trkpt lat="49.27273" lon="1.12139">
        <ele>123</ele>
        <time>2024-07-02T13:13:10.982+00:00</time>
      </trkpt>
      <trkpt lat="49.27273" lon="1.12144">
        <ele>123</ele>
        <time>2024-07-02T13:13:15.027+00:00</time>
      </trkpt>
      <trkpt lat="49.27272" lon="1.12149">
        <ele>123</ele>
        <time>2024-07-02T13:13:19.204+00:00</time>
      </trkpt>
      <trkpt lat="49.27269" lon="1.12155">
        <ele>123</ele>
        <time>2024-07-02T13:13:23.408+00:00</time>
      </trkpt>
      <trkpt lat="49.27268" lon="1.12161">
        <ele>123</ele>
        <time>2024-07-02T13:13:27.543+00:00</time>
      </trkpt>
      <trkpt lat="49.27266" lon="1.12167">
        <ele>123</ele>
        <time>2024-07-02T13:13:32.061+00:00</time>
      </trkpt>
      <trkpt lat="49.27266" lon="1.12175">
        <ele>123</ele>
        <time>2024-07-02T13:13:36.231+00:00</time>
      </trkpt>
      <trkpt lat="49.27264" lon="1.12181">
        <ele>122</ele>
        <time>2024-07-02T13:13:40.447+00:00</time>
      </trkpt>
      <trkpt lat="49.27263" lon="1.12189">
        <ele>122</ele>
        <time>2024-07-02T13:13:44.613+00:00</time>
      </trkpt>
      <trkpt lat="49.27261" lon="1.12198">
        <ele>122</ele>
        <time>2024-07-02T13:13:49.085+00:00</time>
      </trkpt>
      <trkpt lat="49.2726" lon="1.12207">
        <ele>122</ele>
        <time>2024-07-02T13:13:53.419+00:00</time>
      </trkpt>
      <trkpt lat="49.27259" lon="1.12215">
        <ele>121</ele>
        <time>2024-07-02T13:13:57.593+00:00</time>
      </trkpt>
      <trkpt lat="49.27258" lon="1.12222">
        <ele>121</ele>
        <time>2024-07-02T13:14:02.072+00:00</time>
      </trkpt>
      <trkpt lat="49.27258" lon="1.1223">
        <ele>121</ele>
        <time>2024-07-02T13:14:06.386+00:00</time>
      </trkpt>
      <trkpt lat="49.27257" lon="1.12238">
        <ele>121</ele>
        <time>2024-07-02T13:14:10.570+00:00</time>
      </trkpt>
      <trkpt lat="49.27255" lon="1.12244">
        <ele>121</ele>
        <time>2024-07-02T13:14:14.865+00:00</time>
      </trkpt>
      <trkpt lat="49.27254" lon="1.12252">
        <ele>121</ele>
        <time>2024-07-02T13:14:19.189+00:00</time>
      </trkpt>
      <trkpt lat="49.27252" lon="1.1226">
        <ele>121</ele>
        <time>2024-07-02T13:14:23.411+00:00</time>
      </trkpt>
      <trkpt lat="49.27251" lon="1.12267">
        <ele>122</ele>
        <time>2024-07-02T13:14:27.827+00:00</time>
      </trkpt>
      <trkpt lat="49.2725" lon="1.12273">
        <ele>122</ele>
        <time>2024-07-02T13:14:32.064+00:00</time>
      </trkpt>
      <trkpt lat="49.27247" lon="1.12279">
        <ele>122</ele>
        <time>2024-07-02T13:14:36.600+00:00</time>
      </trkpt>
      <trkpt lat="49.27245" lon="1.12286">
        <ele>122</ele>
        <time>2024-07-02T13:14:41.367+00:00</time>
      </trkpt>
      <trkpt lat="49.27244" lon="1.12294">
        <ele>123</ele>
        <time>2024-07-02T13:14:45.599+00:00</time>
      </trkpt>
      <trkpt lat="49.27241" lon="1.12301">
        <ele>123</ele>
        <time>2024-07-02T13:14:49.948+00:00</time>
      </trkpt>
      <trkpt lat="49.27239" lon="1.12306">
        <ele>123</ele>
        <time>2024-07-02T13:14:54.209+00:00</time>
      </trkpt>
      <trkpt lat="49.27238" lon="1.12311">
        <ele>123</ele>
        <time>2024-07-02T13:14:58.585+00:00</time>
      </trkpt>
      <trkpt lat="49.27238" lon="1.12317">
        <ele>123</ele>
        <time>2024-07-02T13:15:02.907+00:00</time>
      </trkpt>
      <trkpt lat="49.27237" lon="1.12325">
        <ele>123</ele>
        <time>2024-07-02T13:15:07.194+00:00</time>
      </trkpt>
      <trkpt lat="49.27236" lon="1.12332">
        <ele>122</ele>
        <time>2024-07-02T13:15:11.598+00:00</time>
      </trkpt>
      <trkpt lat="49.27238" lon="1.12339">
        <ele>123</ele>
        <time>2024-07-02T13:15:15.614+00:00</time>
      </trkpt>
      <trkpt lat="49.27239" lon="1.12344">
        <ele>123</ele>
        <time>2024-07-02T13:15:20.264+00:00</time>
      </trkpt>
      <trkpt lat="49.27239" lon="1.12352">
        <ele>123</ele>
        <time>2024-07-02T13:15:24.408+00:00</time>
      </trkpt>
      <trkpt lat="49.2724" lon="1.12358">
        <ele>123</ele>
        <time>2024-07-02T13:15:28.599+00:00</time>
      </trkpt>
      <trkpt lat="49.27241" lon="1.12366">
        <ele>123</ele>
        <time>2024-07-02T13:15:33.127+00:00</time>
      </trkpt>
      <trkpt lat="49.27241" lon="1.12375">
        <ele>123</ele>
        <time>2024-07-02T13:15:37.589+00:00</time>
      </trkpt>
      <trkpt lat="49.27241" lon="1.12383">
        <ele>123</ele>
        <time>2024-07-02T13:15:42.004+00:00</time>
      </trkpt>
      <trkpt lat="49.27241" lon="1.12391">
        <ele>123</ele>
        <time>2024-07-02T13:15:46.290+00:00</time>
      </trkpt>
      <trkpt lat="49.2724" lon="1.12398">
        <ele>123</ele>
        <time>2024-07-02T13:15:50.600+00:00</time>
      </trkpt>
      <trkpt lat="49.2724" lon="1.12406">
        <ele>125</ele>
        <time>2024-07-02T13:15:55.230+00:00</time>
      </trkpt>
      <trkpt lat="49.2724" lon="1.12409">
        <ele>125</ele>
        <time>2024-07-02T13:15:59.227+00:00</time>
      </trkpt>
      <trkpt lat="49.27242" lon="1.12413">
        <ele>125</ele>
        <time>2024-07-02T13:16:03.362+00:00</time>
      </trkpt>
      <trkpt lat="49.27243" lon="1.12417">
        <ele>125</ele>
        <time>2024-07-02T13:16:07.601+00:00</time>
      </trkpt>
      <trkpt lat="49.27243" lon="1.1242">
        <ele>125</ele>
        <time>2024-07-02T13:16:11.596+00:00</time>
      </trkpt>
      <trkpt lat="49.27245" lon="1.12431">
        <ele>125</ele>
        <time>2024-07-02T13:16:16.245+00:00</time>
      </trkpt>
      <trkpt lat="49.27244" lon="1.12436">
        <ele>126</ele>
        <time>2024-07-02T13:16:46.602+00:00</time>
      </trkpt>
      <trkpt lat="49.27244" lon="1.1244">
        <ele>126</ele>
        <time>2024-07-02T13:16:50.613+00:00</time>
      </trkpt>
      <trkpt lat="49.27248" lon="1.12449">
        <ele>126</ele>
        <time>2024-07-02T13:16:55.143+00:00</time>
      </trkpt>
      <trkpt lat="49.27247" lon="1.12455">
        <ele>126</ele>
        <time>2024-07-02T13:16:59.567+00:00</time>
      </trkpt>
      <trkpt lat="49.27246" lon="1.12462">
        <ele>127</ele>
        <time>2024-07-02T13:17:03.994+00:00</time>
      </trkpt>
      <trkpt lat="49.27244" lon="1.12469">
        <ele>127</ele>
        <time>2024-07-02T13:17:08.592+00:00</time>
      </trkpt>
      <trkpt lat="49.27243" lon="1.12474">
        <ele>127</ele>
        <time>2024-07-02T13:17:12.863+00:00</time>
      </trkpt>
      <trkpt lat="49.27243" lon="1.1248">
        <ele>127</ele>
        <time>2024-07-02T13:17:17.093+00:00</time>
      </trkpt>
      <trkpt lat="49.27244" lon="1.12485">
        <ele>127</ele>
        <time>2024-07-02T13:17:21.367+00:00</time>
      </trkpt>
      <trkpt lat="49.27243" lon="1.12489">
        <ele>129</ele>
        <time>2024-07-02T13:17:25.426+00:00</time>
      </trkpt>
      <trkpt lat="49.27241" lon="1.12492">
        <ele>129</ele>
        <time>2024-07-02T13:17:29.604+00:00</time>
      </trkpt>
      <trkpt lat="49.2724" lon="1.12498">
        <ele>129</ele>
        <time>2024-07-02T13:17:34.027+00:00</time>
      </trkpt>
      <trkpt lat="49.27239" lon="1.12502">
        <ele>129</ele>
        <time>2024-07-02T13:17:38.604+00:00</time>
      </trkpt>
      <trkpt lat="49.2724" lon="1.12504">
        <ele>129</ele>
        <time>2024-07-02T13:17:43.593+00:00</time>
      </trkpt>
      <trkpt lat="49.2724" lon="1.12505">
        <ele>129</ele>
        <time>2024-07-02T13:17:48.584+00:00</time>
      </trkpt>
      <trkpt lat="49.2724" lon="1.12512">
        <ele>129</ele>
        <time>2024-07-02T13:17:53.173+00:00</time>
      </trkpt>
      <trkpt lat="49.2724" lon="1.1252">
        <ele>130</ele>
        <time>2024-07-02T13:17:58.142+00:00</time>
      </trkpt>
      <trkpt lat="49.27241" lon="1.12524">
        <ele>130</ele>
        <time>2024-07-02T13:18:02.595+00:00</time>
      </trkpt>
      <trkpt lat="49.27242" lon="1.12528">
        <ele>130</ele>
        <time>2024-07-02T13:18:06.787+00:00</time>
      </trkpt>
      <trkpt lat="49.2724" lon="1.12534">
        <ele>130</ele>
        <time>2024-07-02T13:18:11.070+00:00</time>
      </trkpt>
      <trkpt lat="49.27238" lon="1.1254">
        <ele>130</ele>
        <time>2024-07-02T13:18:15.370+00:00</time>
      </trkpt>
      <trkpt lat="49.27232" lon="1.12546">
        <ele>133</ele>
        <time>2024-07-02T13:18:19.624+00:00</time>
      </trkpt>
      <trkpt lat="49.27228" lon="1.12553">
        <ele>133</ele>
        <time>2024-07-02T13:18:23.603+00:00</time>
      </trkpt>
      <trkpt lat="49.27225" lon="1.12561">
        <ele>133</ele>
        <time>2024-07-02T13:18:28.169+00:00</time>
      </trkpt>
      <trkpt lat="49.27224" lon="1.12568">
        <ele>133</ele>
        <time>2024-07-02T13:18:32.407+00:00</time>
      </trkpt>
      <trkpt lat="49.27222" lon="1.12575">
        <ele>131</ele>
        <time>2024-07-02T13:18:36.523+00:00</time>
      </trkpt>
      <trkpt lat="49.27221" lon="1.12582">
        <ele>131</ele>
        <time>2024-07-02T13:18:40.609+00:00</time>
      </trkpt>
      <trkpt lat="49.27219" lon="1.12589">
        <ele>131</ele>
        <time>2024-07-02T13:18:44.890+00:00</time>
      </trkpt>
      <trkpt lat="49.27218" lon="1.12596">
        <ele>131</ele>
        <time>2024-07-02T13:18:49.212+00:00</time>
      </trkpt>
      <trkpt lat="49.27215" lon="1.12603">
        <ele>130</ele>
        <time>2024-07-02T13:18:53.943+00:00</time>
      </trkpt>
      <trkpt lat="49.27213" lon="1.1261">
        <ele>130</ele>
        <time>2024-07-02T13:18:58.067+00:00</time>
      </trkpt>
      <trkpt lat="49.27212" lon="1.12617">
        <ele>130</ele>
        <time>2024-07-02T13:19:02.329+00:00</time>
      </trkpt>
      <trkpt lat="49.2721" lon="1.12624">
        <ele>130</ele>
        <time>2024-07-02T13:19:06.595+00:00</time>
      </trkpt>
      <trkpt lat="49.27209" lon="1.12633">
        <ele>129</ele>
        <time>2024-07-02T13:19:11.574+00:00</time>
      </trkpt>
      <trkpt lat="49.27209" lon="1.12639">
        <ele>129</ele>
        <time>2024-07-02T13:19:15.547+00:00</time>
      </trkpt>
      <trkpt lat="49.27208" lon="1.12646">
        <ele>130</ele>
        <time>2024-07-02T13:19:19.601+00:00</time>
      </trkpt>
      <trkpt lat="49.27206" lon="1.12652">
        <ele>130</ele>
        <time>2024-07-02T13:19:23.946+00:00</time>
      </trkpt>
      <trkpt lat="49.27205" lon="1.12659">
        <ele>128</ele>
        <time>2024-07-02T13:19:28.203+00:00</time>
      </trkpt>
      <trkpt lat="49.27205" lon="1.12667">
        <ele>128</ele>
        <time>2024-07-02T13:19:32.572+00:00</time>
      </trkpt>
      <trkpt lat="49.27205" lon="1.12674">
        <ele>128</ele>
        <time>2024-07-02T13:19:36.782+00:00</time>
      </trkpt>
      <trkpt lat="49.27204" lon="1.1268">
        <ele>128</ele>
        <time>2024-07-02T13:19:41.108+00:00</time>
      </trkpt>
      <trkpt lat="49.27203" lon="1.12688">
        <ele>128</ele>
        <time>2024-07-02T13:19:45.415+00:00</time>
      </trkpt>
      <trkpt lat="49.27202" lon="1.12696">
        <ele>128</ele>
        <time>2024-07-02T13:19:49.601+00:00</time>
      </trkpt>
      <trkpt lat="49.27202" lon="1.12703">
        <ele>128</ele>
        <time>2024-07-02T13:19:53.930+00:00</time>
      </trkpt>
      <trkpt lat="49.27201" lon="1.12711">
        <ele>128</ele>
        <time>2024-07-02T13:19:58.247+00:00</time>
      </trkpt>
      <trkpt lat="49.27199" lon="1.12719">
        <ele>128</ele>
        <time>2024-07-02T13:20:02.526+00:00</time>
      </trkpt>
      <trkpt lat="49.27199" lon="1.12727">
        <ele>128</ele>
        <time>2024-07-02T13:20:06.923+00:00</time>
      </trkpt>
      <trkpt lat="49.27198" lon="1.12734">
        <ele>128</ele>
        <time>2024-07-02T13:20:11.271+00:00</time>
      </trkpt>
      <trkpt lat="49.27197" lon="1.12741">
        <ele>129</ele>
        <time>2024-07-02T13:20:15.604+00:00</time>
      </trkpt>
      <trkpt lat="49.27197" lon="1.12749">
        <ele>129</ele>
        <time>2024-07-02T13:20:19.684+00:00</time>
      </trkpt>
      <trkpt lat="49.27197" lon="1.12756">
        <ele>129</ele>
        <time>2024-07-02T13:20:23.858+00:00</time>
      </trkpt>
      <trkpt lat="49.27196" lon="1.12763">
        <ele>129</ele>
        <time>2024-07-02T13:20:28.147+00:00</time>
      </trkpt>
      <trkpt lat="49.27195" lon="1.1277">
        <ele>130</ele>
        <time>2024-07-02T13:20:32.499+00:00</time>
      </trkpt>
      <trkpt lat="49.27195" lon="1.12776">
        <ele>130</ele>
        <time>2024-07-02T13:20:36.807+00:00</time>
      </trkpt>
      <trkpt lat="49.27194" lon="1.12784">
        <ele>130</ele>
        <time>2024-07-02T13:20:41.203+00:00</time>
      </trkpt>
      <trkpt lat="49.27195" lon="1.12791">
        <ele>130</ele>
        <time>2024-07-02T13:20:45.546+00:00</time>
      </trkpt>
      <trkpt lat="49.27195" lon="1.12797">
        <ele>131</ele>
        <time>2024-07-02T13:20:49.600+00:00</time>
      </trkpt>
      <trkpt lat="49.27193" lon="1.12803">
        <ele>131</ele>
        <time>2024-07-02T13:20:54.054+00:00</time>
      </trkpt>
      <trkpt lat="49.27191" lon="1.12808">
        <ele>131</ele>
        <time>2024-07-02T13:20:58.091+00:00</time>
      </trkpt>
      <trkpt lat="49.27191" lon="1.12813">
        <ele>131</ele>
        <time>2024-07-02T13:21:02.428+00:00</time>
      </trkpt>
      <trkpt lat="49.27191" lon="1.12819">
        <ele>131</ele>
        <time>2024-07-02T13:21:07.028+00:00</time>
      </trkpt>
      <trkpt lat="49.2719" lon="1.12826">
        <ele>131</ele>
        <time>2024-07-02T13:21:11.312+00:00</time>
      </trkpt>
      <trkpt lat="49.2719" lon="1.12832">
        <ele>131</ele>
        <time>2024-07-02T13:21:15.582+00:00</time>
      </trkpt>
      <trkpt lat="49.2719" lon="1.12839">
        <ele>131</ele>
        <time>2024-07-02T13:21:19.884+00:00</time>
      </trkpt>
      <trkpt lat="49.27191" lon="1.12845">
        <ele>131</ele>
        <time>2024-07-02T13:21:24.229+00:00</time>
      </trkpt>
      <trkpt lat="49.2719" lon="1.12852">
        <ele>133</ele>
        <time>2024-07-02T13:21:28.520+00:00</time>
      </trkpt>
      <trkpt lat="49.27188" lon="1.12857">
        <ele>133</ele>
        <time>2024-07-02T13:21:32.880+00:00</time>
      </trkpt>
      <trkpt lat="49.27186" lon="1.12863">
        <ele>133</ele>
        <time>2024-07-02T13:21:37.129+00:00</time>
      </trkpt>
      <trkpt lat="49.27184" lon="1.1287">
        <ele>133</ele>
        <time>2024-07-02T13:21:41.370+00:00</time>
      </trkpt>
      <trkpt lat="49.27182" lon="1.12876">
        <ele>136</ele>
        <time>2024-07-02T13:21:45.545+00:00</time>
      </trkpt>
      <trkpt lat="49.27179" lon="1.12883">
        <ele>135</ele>
        <time>2024-07-02T13:21:49.829+00:00</time>
      </trkpt>
      <trkpt lat="49.27178" lon="1.1289">
        <ele>135</ele>
        <time>2024-07-02T13:21:54.141+00:00</time>
      </trkpt>
      <trkpt lat="49.27176" lon="1.12897">
        <ele>135</ele>
        <time>2024-07-02T13:21:58.514+00:00</time>
      </trkpt>
      <trkpt lat="49.27174" lon="1.12904">
        <ele>135</ele>
        <time>2024-07-02T13:22:02.789+00:00</time>
      </trkpt>
      <trkpt lat="49.27172" lon="1.1291">
        <ele>135</ele>
        <time>2024-07-02T13:22:07.027+00:00</time>
      </trkpt>
      <trkpt lat="49.27171" lon="1.12916">
        <ele>135</ele>
        <time>2024-07-02T13:22:11.066+00:00</time>
      </trkpt>
      <trkpt lat="49.27168" lon="1.12923">
        <ele>135</ele>
        <time>2024-07-02T13:22:15.428+00:00</time>
      </trkpt>
      <trkpt lat="49.27165" lon="1.12929">
        <ele>135</ele>
        <time>2024-07-02T13:22:19.707+00:00</time>
      </trkpt>
      <trkpt lat="49.27162" lon="1.12937">
        <ele>136</ele>
        <time>2024-07-02T13:22:24.045+00:00</time>
      </trkpt>
      <trkpt lat="49.27159" lon="1.12945">
        <ele>136</ele>
        <time>2024-07-02T13:22:28.327+00:00</time>
      </trkpt>
      <trkpt lat="49.27156" lon="1.12953">
        <ele>136</ele>
        <time>2024-07-02T13:22:32.523+00:00</time>
      </trkpt>
      <trkpt lat="49.27154" lon="1.1296">
        <ele>137</ele>
        <time>2024-07-02T13:22:36.588+00:00</time>
      </trkpt>
      <trkpt lat="49.27152" lon="1.12967">
        <ele>138</ele>
        <time>2024-07-02T13:22:40.833+00:00</time>
      </trkpt>
      <trkpt lat="49.2715" lon="1.12974">
        <ele>138</ele>
        <time>2024-07-02T13:22:44.982+00:00</time>
      </trkpt>
      <trkpt lat="49.27149" lon="1.12979">
        <ele>138</ele>
        <time>2024-07-02T13:22:49.208+00:00</time>
      </trkpt>
      <trkpt lat="49.27147" lon="1.12985">
        <ele>138</ele>
        <time>2024-07-02T13:22:53.417+00:00</time>
      </trkpt>
      <trkpt lat="49.27145" lon="1.1299">
        <ele>139</ele>
        <time>2024-07-02T13:22:57.592+00:00</time>
      </trkpt>
      <trkpt lat="49.27142" lon="1.12996">
        <ele>139</ele>
        <time>2024-07-02T13:23:01.929+00:00</time>
      </trkpt>
      <trkpt lat="49.2714" lon="1.13">
        <ele>139</ele>
        <time>2024-07-02T13:23:06.092+00:00</time>
      </trkpt>
      <trkpt lat="49.27138" lon="1.13005">
        <ele>139</ele>
        <time>2024-07-02T13:23:10.604+00:00</time>
      </trkpt>
      <trkpt lat="49.27136" lon="1.13012">
        <ele>139</ele>
        <time>2024-07-02T13:23:14.986+00:00</time>
      </trkpt>
      <trkpt lat="49.27136" lon="1.1302">
        <ele>140</ele>
        <time>2024-07-02T13:23:19.293+00:00</time>
      </trkpt>
      <trkpt lat="49.27135" lon="1.13027">
        <ele>140</ele>
        <time>2024-07-02T13:23:23.589+00:00</time>
      </trkpt>
      <trkpt lat="49.27134" lon="1.13035">
        <ele>140</ele>
        <time>2024-07-02T13:23:27.614+00:00</time>
      </trkpt>
      <trkpt lat="49.27133" lon="1.13042">
        <ele>140</ele>
        <time>2024-07-02T13:23:32.025+00:00</time>
      </trkpt>
      <trkpt lat="49.27132" lon="1.1305">
        <ele>140</ele>
        <time>2024-07-02T13:23:36.446+00:00</time>
      </trkpt>
      <trkpt lat="49.2713" lon="1.13057">
        <ele>140</ele>
        <time>2024-07-02T13:23:40.608+00:00</time>
      </trkpt>
      <trkpt lat="49.27125" lon="1.13066">
        <ele>142</ele>
        <time>2024-07-02T13:24:37.613+00:00</time>
      </trkpt>
      <trkpt lat="49.27125" lon="1.13069">
        <ele>142</ele>
        <time>2024-07-02T13:24:42.611+00:00</time>
      </trkpt>
      <trkpt lat="49.27124" lon="1.13074">
        <ele>142</ele>
        <time>2024-07-02T13:24:47.629+00:00</time>
      </trkpt>
      <trkpt lat="49.27126" lon="1.13075">
        <ele>139</ele>
        <time>2024-07-02T13:24:52.600+00:00</time>
      </trkpt>
      <trkpt lat="49.27127" lon="1.13077">
        <ele>139</ele>
        <time>2024-07-02T13:24:57.610+00:00</time>
      </trkpt>
      <trkpt lat="49.27128" lon="1.13077">
        <ele>139</ele>
        <time>2024-07-02T13:25:03.609+00:00</time>
      </trkpt>
      <trkpt lat="49.27127" lon="1.13081">
        <ele>139</ele>
        <time>2024-07-02T13:25:07.600+00:00</time>
      </trkpt>
      <trkpt lat="49.27126" lon="1.13088">
        <ele>139</ele>
        <time>2024-07-02T13:25:12.608+00:00</time>
      </trkpt>
      <trkpt lat="49.27126" lon="1.13096">
        <ele>139</ele>
        <time>2024-07-02T13:25:17.352+00:00</time>
      </trkpt>
      <trkpt lat="49.27125" lon="1.13103">
        <ele>139</ele>
        <time>2024-07-02T13:25:22.050+00:00</time>
      </trkpt>
      <trkpt lat="49.27125" lon="1.1311">
        <ele>142</ele>
        <time>2024-07-02T13:25:26.086+00:00</time>
      </trkpt>
      <trkpt lat="49.27124" lon="1.13116">
        <ele>142</ele>
        <time>2024-07-02T13:25:30.148+00:00</time>
      </trkpt>
      <trkpt lat="49.27124" lon="1.13122">
        <ele>142</ele>
        <time>2024-07-02T13:25:34.270+00:00</time>
      </trkpt>
      <trkpt lat="49.27123" lon="1.13128">
        <ele>142</ele>
        <time>2024-07-02T13:25:38.384+00:00</time>
      </trkpt>
      <trkpt lat="49.27123" lon="1.13134">
        <ele>142</ele>
        <time>2024-07-02T13:25:42.516+00:00</time>
      </trkpt>
      <trkpt lat="49.27122" lon="1.1314">
        <ele>142</ele>
        <time>2024-07-02T13:25:46.688+00:00</time>
      </trkpt>
      <trkpt lat="49.27121" lon="1.13147">
        <ele>142</ele>
        <time>2024-07-02T13:25:50.701+00:00</time>
      </trkpt>
      <trkpt lat="49.27121" lon="1.13154">
        <ele>141</ele>
        <time>2024-07-02T13:25:54.806+00:00</time>
      </trkpt>
      <trkpt lat="49.2712" lon="1.1316">
        <ele>141</ele>
        <time>2024-07-02T13:25:58.987+00:00</time>
      </trkpt>
      <trkpt lat="49.2712" lon="1.13167">
        <ele>141</ele>
        <time>2024-07-02T13:26:03.187+00:00</time>
      </trkpt>
      <trkpt lat="49.27119" lon="1.13175">
        <ele>141</ele>
        <time>2024-07-02T13:26:07.452+00:00</time>
      </trkpt>
      <trkpt lat="49.27118" lon="1.13184">
        <ele>140</ele>
        <time>2024-07-02T13:26:11.579+00:00</time>
      </trkpt>
      <trkpt lat="49.27118" lon="1.13191">
        <ele>140</ele>
        <time>2024-07-02T13:26:15.824+00:00</time>
      </trkpt>
      <trkpt lat="49.27117" lon="1.13199">
        <ele>140</ele>
        <time>2024-07-02T13:26:20.012+00:00</time>
      </trkpt>
      <trkpt lat="49.27116" lon="1.13206">
        <ele>140</ele>
        <time>2024-07-02T13:26:24.090+00:00</time>
      </trkpt>
      <trkpt lat="49.27115" lon="1.13213">
        <ele>140</ele>
        <time>2024-07-02T13:26:28.264+00:00</time>
      </trkpt>
      <trkpt lat="49.27116" lon="1.13221">
        <ele>140</ele>
        <time>2024-07-02T13:26:32.403+00:00</time>
      </trkpt>
      <trkpt lat="49.27116" lon="1.13228">
        <ele>140</ele>
        <time>2024-07-02T13:26:36.564+00:00</time>
      </trkpt>
      <trkpt lat="49.27114" lon="1.13234">
        <ele>140</ele>
        <time>2024-07-02T13:26:40.547+00:00</time>
      </trkpt>
      <trkpt lat="49.27113" lon="1.13241">
        <ele>140</ele>
        <time>2024-07-02T13:26:44.585+00:00</time>
      </trkpt>
      <trkpt lat="49.27112" lon="1.13251">
        <ele>140</ele>
        <time>2024-07-02T13:26:49.281+00:00</time>
      </trkpt>
      <trkpt lat="49.27111" lon="1.13259">
        <ele>140</ele>
        <time>2024-07-02T13:26:53.337+00:00</time>
      </trkpt>
      <trkpt lat="49.27111" lon="1.13266">
        <ele>140</ele>
        <time>2024-07-02T13:26:57.508+00:00</time>
      </trkpt>
      <trkpt lat="49.2711" lon="1.13274">
        <ele>140</ele>
        <time>2024-07-02T13:27:01.589+00:00</time>
      </trkpt>
      <trkpt lat="49.27109" lon="1.13282">
        <ele>140</ele>
        <time>2024-07-02T13:27:06.064+00:00</time>
      </trkpt>
      <trkpt lat="49.27107" lon="1.1329">
        <ele>140</ele>
        <time>2024-07-02T13:27:10.288+00:00</time>
      </trkpt>
      <trkpt lat="49.27105" lon="1.13297">
        <ele>138</ele>
        <time>2024-07-02T13:27:14.586+00:00</time>
      </trkpt>
      <trkpt lat="49.27103" lon="1.13303">
        <ele>138</ele>
        <time>2024-07-02T13:27:18.890+00:00</time>
      </trkpt>
      <trkpt lat="49.27102" lon="1.13309">
        <ele>138</ele>
        <time>2024-07-02T13:27:23.144+00:00</time>
      </trkpt>
      <trkpt lat="49.27101" lon="1.13316">
        <ele>138</ele>
        <time>2024-07-02T13:27:27.525+00:00</time>
      </trkpt>
      <trkpt lat="49.27101" lon="1.13323">
        <ele>137</ele>
        <time>2024-07-02T13:27:31.868+00:00</time>
      </trkpt>
      <trkpt lat="49.27101" lon="1.13329">
        <ele>137</ele>
        <time>2024-07-02T13:27:36.168+00:00</time>
      </trkpt>
      <trkpt lat="49.27102" lon="1.13335">
        <ele>137</ele>
        <time>2024-07-02T13:27:40.446+00:00</time>
      </trkpt>
      <trkpt lat="49.27102" lon="1.1334">
        <ele>137</ele>
        <time>2024-07-02T13:27:44.601+00:00</time>
      </trkpt>
      <trkpt lat="49.27101" lon="1.13346">
        <ele>137</ele>
        <time>2024-07-02T13:27:49.596+00:00</time>
      </trkpt>
      <trkpt lat="49.27099" lon="1.13352">
        <ele>135</ele>
        <time>2024-07-02T13:27:53.891+00:00</time>
      </trkpt>
      <trkpt lat="49.27098" lon="1.13359">
        <ele>135</ele>
        <time>2024-07-02T13:27:58.143+00:00</time>
      </trkpt>
      <trkpt lat="49.27096" lon="1.13364">
        <ele>140</ele>
        <time>2024-07-02T13:28:02.512+00:00</time>
      </trkpt>
      <trkpt lat="49.27092" lon="1.13365">
        <ele>140</ele>
        <time>2024-07-02T13:28:06.783+00:00</time>
      </trkpt>
      <trkpt lat="49.27089" lon="1.13367">
        <ele>140</ele>
        <time>2024-07-02T13:28:11.187+00:00</time>
      </trkpt>
      <trkpt lat="49.27085" lon="1.13369">
        <ele>140</ele>
        <time>2024-07-02T13:28:15.542+00:00</time>
      </trkpt>
      <trkpt lat="49.27081" lon="1.13371">
        <ele>140</ele>
        <time>2024-07-02T13:28:19.846+00:00</time>
      </trkpt>
      <trkpt lat="49.27077" lon="1.13374">
        <ele>140</ele>
        <time>2024-07-02T13:28:24.212+00:00</time>
      </trkpt>
      <trkpt lat="49.27073" lon="1.13376">
        <ele>139</ele>
        <time>2024-07-02T13:28:28.584+00:00</time>
      </trkpt>
      <trkpt lat="49.27069" lon="1.13378">
        <ele>142</ele>
        <time>2024-07-02T13:28:32.911+00:00</time>
      </trkpt>
      <trkpt lat="49.27064" lon="1.1338">
        <ele>142</ele>
        <time>2024-07-02T13:28:37.245+00:00</time>
      </trkpt>
      <trkpt lat="49.2706" lon="1.13384">
        <ele>142</ele>
        <time>2024-07-02T13:28:41.529+00:00</time>
      </trkpt>
      <trkpt lat="49.27056" lon="1.13387">
        <ele>142</ele>
        <time>2024-07-02T13:28:45.879+00:00</time>
      </trkpt>
      <trkpt lat="49.27053" lon="1.13391">
        <ele>142</ele>
        <time>2024-07-02T13:28:50.212+00:00</time>
      </trkpt>
      <trkpt lat="49.27049" lon="1.13394">
        <ele>142</ele>
        <time>2024-07-02T13:28:54.527+00:00</time>
      </trkpt>
      <trkpt lat="49.27046" lon="1.134">
        <ele>142</ele>
        <time>2024-07-02T13:28:58.747+00:00</time>
      </trkpt>
      <trkpt lat="49.27042" lon="1.13405">
        <ele>138</ele>
        <time>2024-07-02T13:29:03.002+00:00</time>
      </trkpt>
      <trkpt lat="49.27037" lon="1.13408">
        <ele>140</ele>
        <time>2024-07-02T13:29:07.247+00:00</time>
      </trkpt>
      <trkpt lat="49.27032" lon="1.1341">
        <ele>140</ele>
        <time>2024-07-02T13:29:11.612+00:00</time>
      </trkpt>
      <trkpt lat="49.27027" lon="1.13414">
        <ele>140</ele>
        <time>2024-07-02T13:29:15.928+00:00</time>
      </trkpt>
      <trkpt lat="49.27022" lon="1.13418">
        <ele>140</ele>
        <time>2024-07-02T13:29:20.123+00:00</time>
      </trkpt>
      <trkpt lat="49.27018" lon="1.13419">
        <ele>140</ele>
        <time>2024-07-02T13:29:24.403+00:00</time>
      </trkpt>
      <trkpt lat="49.27014" lon="1.13421">
        <ele>143</ele>
        <time>2024-07-02T13:29:28.581+00:00</time>
      </trkpt>
      <trkpt lat="49.27009" lon="1.13423">
        <ele>143</ele>
        <time>2024-07-02T13:29:33.026+00:00</time>
      </trkpt>
      <trkpt lat="49.27005" lon="1.13426">
        <ele>143</ele>
        <time>2024-07-02T13:29:37.310+00:00</time>
      </trkpt>
      <trkpt lat="49.27001" lon="1.13429">
        <ele>143</ele>
        <time>2024-07-02T13:29:41.611+00:00</time>
      </trkpt>
      <trkpt lat="49.26996" lon="1.13433">
        <ele>142</ele>
        <time>2024-07-02T13:29:45.946+00:00</time>
      </trkpt>
      <trkpt lat="49.26991" lon="1.13436">
        <ele>142</ele>
        <time>2024-07-02T13:29:50.193+00:00</time>
      </trkpt>
      <trkpt lat="49.26986" lon="1.13439">
        <ele>143</ele>
        <time>2024-07-02T13:29:54.410+00:00</time>
      </trkpt>
      <trkpt lat="49.2698" lon="1.13439">
        <ele>143</ele>
        <time>2024-07-02T13:29:58.597+00:00</time>
      </trkpt>
      <trkpt lat="49.26976" lon="1.13442">
        <ele>143</ele>
        <time>2024-07-02T13:30:02.931+00:00</time>
      </trkpt>
      <trkpt lat="49.26971" lon="1.13445">
        <ele>143</ele>
        <time>2024-07-02T13:30:07.205+00:00</time>
      </trkpt>
      <trkpt lat="49.26968" lon="1.13448">
        <ele>143</ele>
        <time>2024-07-02T13:30:11.325+00:00</time>
      </trkpt>
      <trkpt lat="49.26965" lon="1.13452">
        <ele>143</ele>
        <time>2024-07-02T13:30:15.577+00:00</time>
      </trkpt>
      <trkpt lat="49.26961" lon="1.13454">
        <ele>143</ele>
        <time>2024-07-02T13:30:19.942+00:00</time>
      </trkpt>
      <trkpt lat="49.26957" lon="1.13455">
        <ele>143</ele>
        <time>2024-07-02T13:30:24.206+00:00</time>
      </trkpt>
      <trkpt lat="49.26952" lon="1.13456">
        <ele>143</ele>
        <time>2024-07-02T13:30:28.474+00:00</time>
      </trkpt>
      <trkpt lat="49.26948" lon="1.13458">
        <ele>143</ele>
        <time>2024-07-02T13:30:32.596+00:00</time>
      </trkpt>
      <trkpt lat="49.26942" lon="1.13457">
        <ele>143</ele>
        <time>2024-07-02T13:30:37.009+00:00</time>
      </trkpt>
      <trkpt lat="49.26937" lon="1.13457">
        <ele>143</ele>
        <time>2024-07-02T13:30:41.291+00:00</time>
      </trkpt>
      <trkpt lat="49.26931" lon="1.13457">
        <ele>143</ele>
        <time>2024-07-02T13:30:45.526+00:00</time>
      </trkpt>
      <trkpt lat="49.26926" lon="1.13456">
        <ele>143</ele>
        <time>2024-07-02T13:30:49.710+00:00</time>
      </trkpt>
      <trkpt lat="49.26921" lon="1.13455">
        <ele>143</ele>
        <time>2024-07-02T13:30:53.945+00:00</time>
      </trkpt>
      <trkpt lat="49.26916" lon="1.13453">
        <ele>143</ele>
        <time>2024-07-02T13:30:58.192+00:00</time>
      </trkpt>
      <trkpt lat="49.2691" lon="1.13451">
        <ele>143</ele>
        <time>2024-07-02T13:31:02.506+00:00</time>
      </trkpt>
      <trkpt lat="49.26905" lon="1.13449">
        <ele>143</ele>
        <time>2024-07-02T13:31:06.745+00:00</time>
      </trkpt>
      <trkpt lat="49.269" lon="1.13447">
        <ele>145</ele>
        <time>2024-07-02T13:31:10.994+00:00</time>
      </trkpt>
      <trkpt lat="49.26894" lon="1.13446">
        <ele>145</ele>
        <time>2024-07-02T13:31:15.327+00:00</time>
      </trkpt>
      <trkpt lat="49.2689" lon="1.13445">
        <ele>145</ele>
        <time>2024-07-02T13:31:19.596+00:00</time>
      </trkpt>
      <trkpt lat="49.26886" lon="1.13444">
        <ele>145</ele>
        <time>2024-07-02T13:31:23.869+00:00</time>
      </trkpt>
      <trkpt lat="49.26883" lon="1.13441">
        <ele>145</ele>
        <time>2024-07-02T13:31:28.132+00:00</time>
      </trkpt>
      <trkpt lat="49.26879" lon="1.13438">
        <ele>145</ele>
        <time>2024-07-02T13:31:32.302+00:00</time>
      </trkpt>
      <trkpt lat="49.26874" lon="1.13436">
        <ele>146</ele>
        <time>2024-07-02T13:31:36.598+00:00</time>
      </trkpt>
      <trkpt lat="49.26869" lon="1.13435">
        <ele>146</ele>
        <time>2024-07-02T13:31:40.810+00:00</time>
      </trkpt>
      <trkpt lat="49.26863" lon="1.13434">
        <ele>146</ele>
        <time>2024-07-02T13:31:45.068+00:00</time>
      </trkpt>
      <trkpt lat="49.26858" lon="1.13433">
        <ele>146</ele>
        <time>2024-07-02T13:31:49.109+00:00</time>
      </trkpt>
      <trkpt lat="49.26853" lon="1.13433">
        <ele>146</ele>
        <time>2024-07-02T13:31:53.245+00:00</time>
      </trkpt>
      <trkpt lat="49.26846" lon="1.13431">
        <ele>146</ele>
        <time>2024-07-02T13:31:57.524+00:00</time>
      </trkpt>
      <trkpt lat="49.26841" lon="1.13428">
        <ele>146</ele>
        <time>2024-07-02T13:32:01.601+00:00</time>
      </trkpt>
      <trkpt lat="49.26834" lon="1.13425">
        <ele>146</ele>
        <time>2024-07-02T13:32:05.808+00:00</time>
      </trkpt>
      <trkpt lat="49.26828" lon="1.13424">
        <ele>146</ele>
        <time>2024-07-02T13:32:10.547+00:00</time>
      </trkpt>
      <trkpt lat="49.26823" lon="1.13423">
        <ele>146</ele>
        <time>2024-07-02T13:32:14.596+00:00</time>
      </trkpt>
      <trkpt lat="49.26818" lon="1.13422">
        <ele>146</ele>
        <time>2024-07-02T13:32:18.868+00:00</time>
      </trkpt>
      <trkpt lat="49.26813" lon="1.13421">
        <ele>146</ele>
        <time>2024-07-02T13:32:23.033+00:00</time>
      </trkpt>
      <trkpt lat="49.26809" lon="1.13421">
        <ele>146</ele>
        <time>2024-07-02T13:32:27.210+00:00</time>
      </trkpt>
      <trkpt lat="49.26804" lon="1.13418">
        <ele>146</ele>
        <time>2024-07-02T13:32:31.350+00:00</time>
      </trkpt>
      <trkpt lat="49.26801" lon="1.13413">
        <ele>146</ele>
        <time>2024-07-02T13:32:35.524+00:00</time>
      </trkpt>
      <trkpt lat="49.26796" lon="1.13411">
        <ele>146</ele>
        <time>2024-07-02T13:32:39.603+00:00</time>
      </trkpt>
      <trkpt lat="49.26791" lon="1.13409">
        <ele>146</ele>
        <time>2024-07-02T13:32:43.983+00:00</time>
      </trkpt>
      <trkpt lat="49.26787" lon="1.13407">
        <ele>146</ele>
        <time>2024-07-02T13:32:48.207+00:00</time>
      </trkpt>
      <trkpt lat="49.26783" lon="1.13405">
        <ele>146</ele>
        <time>2024-07-02T13:32:52.221+00:00</time>
      </trkpt>
      <trkpt lat="49.26778" lon="1.13403">
        <ele>146</ele>
        <time>2024-07-02T13:32:56.585+00:00</time>
      </trkpt>
      <trkpt lat="49.26773" lon="1.13402">
        <ele>145</ele>
        <time>2024-07-02T13:33:00.760+00:00</time>
      </trkpt>
      <trkpt lat="49.26768" lon="1.134">
        <ele>145</ele>
        <time>2024-07-02T13:33:05.048+00:00</time>
      </trkpt>
      <trkpt lat="49.26764" lon="1.13398">
        <ele>146</ele>
        <time>2024-07-02T13:33:09.169+00:00</time>
      </trkpt>
      <trkpt lat="49.26759" lon="1.13395">
        <ele>146</ele>
        <time>2024-07-02T13:33:13.545+00:00</time>
      </trkpt>
      <trkpt lat="49.26754" lon="1.13393">
        <ele>146</ele>
        <time>2024-07-02T13:33:18.590+00:00</time>
      </trkpt>
      <trkpt lat="49.2675" lon="1.13391">
        <ele>146</ele>
        <time>2024-07-02T13:33:22.846+00:00</time>
      </trkpt>
      <trkpt lat="49.26745" lon="1.13389">
        <ele>146</ele>
        <time>2024-07-02T13:33:27.128+00:00</time>
      </trkpt>
      <trkpt lat="49.26741" lon="1.13386">
        <ele>146</ele>
        <time>2024-07-02T13:33:31.391+00:00</time>
      </trkpt>
      <trkpt lat="49.26736" lon="1.13383">
        <ele>147</ele>
        <time>2024-07-02T13:33:35.593+00:00</time>
      </trkpt>
      <trkpt lat="49.26732" lon="1.13382">
        <ele>147</ele>
        <time>2024-07-02T13:33:39.869+00:00</time>
      </trkpt>
      <trkpt lat="49.26727" lon="1.1338">
        <ele>147</ele>
        <time>2024-07-02T13:33:43.910+00:00</time>
      </trkpt>
      <trkpt lat="49.26722" lon="1.13377">
        <ele>147</ele>
        <time>2024-07-02T13:33:48.344+00:00</time>
      </trkpt>
      <trkpt lat="49.26718" lon="1.13374">
        <ele>147</ele>
        <time>2024-07-02T13:33:52.507+00:00</time>
      </trkpt>
      <trkpt lat="49.26715" lon="1.1337">
        <ele>147</ele>
        <time>2024-07-02T13:33:56.570+00:00</time>
      </trkpt>
      <trkpt lat="49.2671" lon="1.13369">
        <ele>147</ele>
        <time>2024-07-02T13:34:00.904+00:00</time>
      </trkpt>
      <trkpt lat="49.26706" lon="1.13367">
        <ele>147</ele>
        <time>2024-07-02T13:34:05.371+00:00</time>
      </trkpt>
      <trkpt lat="49.26701" lon="1.13365">
        <ele>147</ele>
        <time>2024-07-02T13:34:09.980+00:00</time>
      </trkpt>
      <trkpt lat="49.26695" lon="1.13362">
        <ele>147</ele>
        <time>2024-07-02T13:34:14.603+00:00</time>
      </trkpt>
      <trkpt lat="49.2669" lon="1.13359">
        <ele>147</ele>
        <time>2024-07-02T13:34:19.007+00:00</time>
      </trkpt>
      <trkpt lat="49.26685" lon="1.13358">
        <ele>147</ele>
        <time>2024-07-02T13:34:23.233+00:00</time>
      </trkpt>
      <trkpt lat="49.26681" lon="1.13356">
        <ele>146</ele>
        <time>2024-07-02T13:34:27.407+00:00</time>
      </trkpt>
      <trkpt lat="49.26676" lon="1.13355">
        <ele>146</ele>
        <time>2024-07-02T13:34:31.609+00:00</time>
      </trkpt>
      <trkpt lat="49.26671" lon="1.13353">
        <ele>146</ele>
        <time>2024-07-02T13:34:35.832+00:00</time>
      </trkpt>
      <trkpt lat="49.26667" lon="1.13352">
        <ele>146</ele>
        <time>2024-07-02T13:34:40.025+00:00</time>
      </trkpt>
      <trkpt lat="49.26662" lon="1.13352">
        <ele>146</ele>
        <time>2024-07-02T13:34:44.105+00:00</time>
      </trkpt>
      <trkpt lat="49.26658" lon="1.13348">
        <ele>146</ele>
        <time>2024-07-02T13:34:48.351+00:00</time>
      </trkpt>
      <trkpt lat="49.26653" lon="1.13346">
        <ele>147</ele>
        <time>2024-07-02T13:34:52.604+00:00</time>
      </trkpt>
      <trkpt lat="49.26648" lon="1.13344">
        <ele>144</ele>
        <time>2024-07-02T13:34:57.072+00:00</time>
      </trkpt>
      <trkpt lat="49.26643" lon="1.13342">
        <ele>144</ele>
        <time>2024-07-02T13:35:01.274+00:00</time>
      </trkpt>
      <trkpt lat="49.26638" lon="1.1334">
        <ele>144</ele>
        <time>2024-07-02T13:35:05.442+00:00</time>
      </trkpt>
      <trkpt lat="49.26633" lon="1.13337">
        <ele>144</ele>
        <time>2024-07-02T13:35:09.631+00:00</time>
      </trkpt>
      <trkpt lat="49.26629" lon="1.13332">
        <ele>144</ele>
        <time>2024-07-02T13:35:13.788+00:00</time>
      </trkpt>
      <trkpt lat="49.26624" lon="1.13332">
        <ele>142</ele>
        <time>2024-07-02T13:35:17.801+00:00</time>
      </trkpt>
      <trkpt lat="49.26618" lon="1.1333">
        <ele>142</ele>
        <time>2024-07-02T13:35:21.948+00:00</time>
      </trkpt>
      <trkpt lat="49.26614" lon="1.13329">
        <ele>142</ele>
        <time>2024-07-02T13:35:26.069+00:00</time>
      </trkpt>
      <trkpt lat="49.2661" lon="1.1333">
        <ele>142</ele>
        <time>2024-07-02T13:35:30.269+00:00</time>
      </trkpt>
      <trkpt lat="49.26606" lon="1.13327">
        <ele>142</ele>
        <time>2024-07-02T13:35:34.592+00:00</time>
      </trkpt>
      <trkpt lat="49.26601" lon="1.13323">
        <ele>142</ele>
        <time>2024-07-02T13:35:38.804+00:00</time>
      </trkpt>
      <trkpt lat="49.26596" lon="1.1332">
        <ele>141</ele>
        <time>2024-07-02T13:35:43.605+00:00</time>
      </trkpt>
      <trkpt lat="49.26592" lon="1.13317">
        <ele>141</ele>
        <time>2024-07-02T13:35:48.192+00:00</time>
      </trkpt>
      <trkpt lat="49.26588" lon="1.13314">
        <ele>141</ele>
        <time>2024-07-02T13:35:52.323+00:00</time>
      </trkpt>
      <trkpt lat="49.26584" lon="1.13312">
        <ele>141</ele>
        <time>2024-07-02T13:35:56.503+00:00</time>
      </trkpt>
      <trkpt lat="49.2658" lon="1.1331">
        <ele>141</ele>
        <time>2024-07-02T13:36:00.586+00:00</time>
      </trkpt>
      <trkpt lat="49.26576" lon="1.13308">
        <ele>141</ele>
        <time>2024-07-02T13:36:04.805+00:00</time>
      </trkpt>
      <trkpt lat="49.26571" lon="1.13305">
        <ele>141</ele>
        <time>2024-07-02T13:36:08.932+00:00</time>
      </trkpt>
      <trkpt lat="49.26567" lon="1.13303">
        <ele>141</ele>
        <time>2024-07-02T13:36:13.084+00:00</time>
      </trkpt>
      <trkpt lat="49.26562" lon="1.13302">
        <ele>141</ele>
        <time>2024-07-02T13:36:17.193+00:00</time>
      </trkpt>
      <trkpt lat="49.26558" lon="1.13301">
        <ele>141</ele>
        <time>2024-07-02T13:36:21.448+00:00</time>
      </trkpt>
      <trkpt lat="49.26554" lon="1.13298">
        <ele>141</ele>
        <time>2024-07-02T13:36:25.582+00:00</time>
      </trkpt>
      <trkpt lat="49.26549" lon="1.13297">
        <ele>141</ele>
        <time>2024-07-02T13:36:29.611+00:00</time>
      </trkpt>
      <trkpt lat="49.26544" lon="1.13295">
        <ele>141</ele>
        <time>2024-07-02T13:36:33.808+00:00</time>
      </trkpt>
      <trkpt lat="49.2654" lon="1.13292">
        <ele>140</ele>
        <time>2024-07-02T13:36:38.025+00:00</time>
      </trkpt>
      <trkpt lat="49.26535" lon="1.1329">
        <ele>140</ele>
        <time>2024-07-02T13:36:42.132+00:00</time>
      </trkpt>
      <trkpt lat="49.2653" lon="1.13288">
        <ele>140</ele>
        <time>2024-07-02T13:36:46.285+00:00</time>
      </trkpt>
      <trkpt lat="49.26526" lon="1.13285">
        <ele>140</ele>
        <time>2024-07-02T13:36:50.368+00:00</time>
      </trkpt>
      <trkpt lat="49.2652" lon="1.13283">
        <ele>140</ele>
        <time>2024-07-02T13:36:54.467+00:00</time>
      </trkpt>
      <trkpt lat="49.26513" lon="1.13282">
        <ele>140</ele>
        <time>2024-07-02T13:36:58.581+00:00</time>
      </trkpt>
      <trkpt lat="49.26507" lon="1.1328">
        <ele>140</ele>
        <time>2024-07-02T13:37:03.266+00:00</time>
      </trkpt>
      <trkpt lat="49.26501" lon="1.13278">
        <ele>140</ele>
        <time>2024-07-02T13:37:07.927+00:00</time>
      </trkpt>
      <trkpt lat="49.26496" lon="1.13276">
        <ele>140</ele>
        <time>2024-07-02T13:37:11.928+00:00</time>
      </trkpt>
      <trkpt lat="49.26491" lon="1.13275">
        <ele>140</ele>
        <time>2024-07-02T13:37:15.984+00:00</time>
      </trkpt>
      <trkpt lat="49.26486" lon="1.13273">
        <ele>140</ele>
        <time>2024-07-02T13:37:20.002+00:00</time>
      </trkpt>
      <trkpt lat="49.26482" lon="1.13271">
        <ele>140</ele>
        <time>2024-07-02T13:37:24.053+00:00</time>
      </trkpt>
      <trkpt lat="49.26478" lon="1.13271">
        <ele>140</ele>
        <time>2024-07-02T13:37:28.123+00:00</time>
      </trkpt>
      <trkpt lat="49.26474" lon="1.1327">
        <ele>140</ele>
        <time>2024-07-02T13:37:32.309+00:00</time>
      </trkpt>
      <trkpt lat="49.26469" lon="1.13266">
        <ele>140</ele>
        <time>2024-07-02T13:37:36.567+00:00</time>
      </trkpt>
      <trkpt lat="49.26464" lon="1.13262">
        <ele>141</ele>
        <time>2024-07-02T13:37:40.603+00:00</time>
      </trkpt>
      <trkpt lat="49.2646" lon="1.1326">
        <ele>141</ele>
        <time>2024-07-02T13:37:44.703+00:00</time>
      </trkpt>
      <trkpt lat="49.26455" lon="1.13256">
        <ele>139</ele>
        <time>2024-07-02T13:37:49.004+00:00</time>
      </trkpt>
      <trkpt lat="49.26449" lon="1.13254">
        <ele>139</ele>
        <time>2024-07-02T13:37:53.497+00:00</time>
      </trkpt>
      <trkpt lat="49.26445" lon="1.13252">
        <ele>139</ele>
        <time>2024-07-02T13:37:57.596+00:00</time>
      </trkpt>
      <trkpt lat="49.2644" lon="1.13249">
        <ele>139</ele>
        <time>2024-07-02T13:38:01.906+00:00</time>
      </trkpt>
      <trkpt lat="49.26436" lon="1.13248">
        <ele>139</ele>
        <time>2024-07-02T13:38:06.004+00:00</time>
      </trkpt>
      <trkpt lat="49.26434" lon="1.13248">
        <ele>139</ele>
        <time>2024-07-02T13:38:10.110+00:00</time>
      </trkpt>
      <trkpt lat="49.26429" lon="1.13246">
        <ele>139</ele>
        <time>2024-07-02T13:38:14.327+00:00</time>
      </trkpt>
      <trkpt lat="49.26424" lon="1.13246">
        <ele>139</ele>
        <time>2024-07-02T13:38:18.384+00:00</time>
      </trkpt>
      <trkpt lat="49.26419" lon="1.13248">
        <ele>139</ele>
        <time>2024-07-02T13:38:22.454+00:00</time>
      </trkpt>
      <trkpt lat="49.26414" lon="1.13248">
        <ele>139</ele>
        <time>2024-07-02T13:38:26.583+00:00</time>
      </trkpt>
      <trkpt lat="49.2641" lon="1.13248">
        <ele>139</ele>
        <time>2024-07-02T13:38:30.626+00:00</time>
      </trkpt>
      <trkpt lat="49.26405" lon="1.13249">
        <ele>139</ele>
        <time>2024-07-02T13:38:35.005+00:00</time>
      </trkpt>
      <trkpt lat="49.264" lon="1.1325">
        <ele>137</ele>
        <time>2024-07-02T13:38:39.187+00:00</time>
      </trkpt>
      <trkpt lat="49.26396" lon="1.13251">
        <ele>137</ele>
        <time>2024-07-02T13:38:43.405+00:00</time>
      </trkpt>
      <trkpt lat="49.26391" lon="1.13253">
        <ele>137</ele>
        <time>2024-07-02T13:38:47.588+00:00</time>
      </trkpt>
      <trkpt lat="49.26388" lon="1.13255">
        <ele>137</ele>
        <time>2024-07-02T13:38:51.895+00:00</time>
      </trkpt>
      <trkpt lat="49.26383" lon="1.13256">
        <ele>137</ele>
        <time>2024-07-02T13:38:56.088+00:00</time>
      </trkpt>
      <trkpt lat="49.26379" lon="1.13256">
        <ele>137</ele>
        <time>2024-07-02T13:39:00.351+00:00</time>
      </trkpt>
      <trkpt lat="49.26375" lon="1.13258">
        <ele>137</ele>
        <time>2024-07-02T13:39:04.590+00:00</time>
      </trkpt>
      <trkpt lat="49.26371" lon="1.1326">
        <ele>135</ele>
        <time>2024-07-02T13:39:08.595+00:00</time>
      </trkpt>
      <trkpt lat="49.26366" lon="1.13261">
        <ele>135</ele>
        <time>2024-07-02T13:39:12.863+00:00</time>
      </trkpt>
      <trkpt lat="49.26361" lon="1.13263">
        <ele>135</ele>
        <time>2024-07-02T13:39:17.134+00:00</time>
      </trkpt>
      <trkpt lat="49.26357" lon="1.13266">
        <ele>135</ele>
        <time>2024-07-02T13:39:21.308+00:00</time>
      </trkpt>
      <trkpt lat="49.26354" lon="1.13266">
        <ele>135</ele>
        <time>2024-07-02T13:39:25.526+00:00</time>
      </trkpt>
      <trkpt lat="49.2635" lon="1.13268">
        <ele>135</ele>
        <time>2024-07-02T13:39:29.563+00:00</time>
      </trkpt>
      <trkpt lat="49.26345" lon="1.13269">
        <ele>135</ele>
        <time>2024-07-02T13:39:33.601+00:00</time>
      </trkpt>
      <trkpt lat="49.26339" lon="1.13269">
        <ele>135</ele>
        <time>2024-07-02T13:39:38.507+00:00</time>
      </trkpt>
      <trkpt lat="49.26335" lon="1.1327">
        <ele>135</ele>
        <time>2024-07-02T13:39:42.598+00:00</time>
      </trkpt>
      <trkpt lat="49.26332" lon="1.13271">
        <ele>135</ele>
        <time>2024-07-02T13:39:46.751+00:00</time>
      </trkpt>
      <trkpt lat="49.26328" lon="1.13272">
        <ele>135</ele>
        <time>2024-07-02T13:39:50.886+00:00</time>
      </trkpt>
      <trkpt lat="49.26324" lon="1.13273">
        <ele>135</ele>
        <time>2024-07-02T13:39:55.111+00:00</time>
      </trkpt>
      <trkpt lat="49.26321" lon="1.13275">
        <ele>135</ele>
        <time>2024-07-02T13:39:59.302+00:00</time>
      </trkpt>
      <trkpt lat="49.26317" lon="1.13277">
        <ele>133</ele>
        <time>2024-07-02T13:40:03.547+00:00</time>
      </trkpt>
      <trkpt lat="49.26313" lon="1.13278">
        <ele>133</ele>
        <time>2024-07-02T13:40:07.727+00:00</time>
      </trkpt>
      <trkpt lat="49.26308" lon="1.1328">
        <ele>133</ele>
        <time>2024-07-02T13:40:12.516+00:00</time>
      </trkpt>
      <trkpt lat="49.26303" lon="1.13282">
        <ele>133</ele>
        <time>2024-07-02T13:40:16.577+00:00</time>
      </trkpt>
      <trkpt lat="49.263" lon="1.13284">
        <ele>133</ele>
        <time>2024-07-02T13:40:21.018+00:00</time>
      </trkpt>
      <trkpt lat="49.26295" lon="1.13286">
        <ele>133</ele>
        <time>2024-07-02T13:40:25.207+00:00</time>
      </trkpt>
      <trkpt lat="49.2629" lon="1.13289">
        <ele>132</ele>
        <time>2024-07-02T13:40:29.365+00:00</time>
      </trkpt>
      <trkpt lat="49.26285" lon="1.13292">
        <ele>132</ele>
        <time>2024-07-02T13:40:33.530+00:00</time>
      </trkpt>
      <trkpt lat="49.2628" lon="1.13295">
        <ele>132</ele>
        <time>2024-07-02T13:40:37.744+00:00</time>
      </trkpt>
      <trkpt lat="49.26275" lon="1.13298">
        <ele>132</ele>
        <time>2024-07-02T13:40:41.933+00:00</time>
      </trkpt>
      <trkpt lat="49.2627" lon="1.133">
        <ele>132</ele>
        <time>2024-07-02T13:40:46.043+00:00</time>
      </trkpt>
      <trkpt lat="49.26265" lon="1.13303">
        <ele>132</ele>
        <time>2024-07-02T13:40:50.210+00:00</time>
      </trkpt>
      <trkpt lat="49.2626" lon="1.13305">
        <ele>132</ele>
        <time>2024-07-02T13:40:54.321+00:00</time>
      </trkpt>
      <trkpt lat="49.26255" lon="1.13307">
        <ele>132</ele>
        <time>2024-07-02T13:40:58.608+00:00</time>
      </trkpt>
      <trkpt lat="49.2625" lon="1.13312">
        <ele>132</ele>
        <time>2024-07-02T13:41:03.344+00:00</time>
      </trkpt>
      <trkpt lat="49.26247" lon="1.13316">
        <ele>132</ele>
        <time>2024-07-02T13:41:07.598+00:00</time>
      </trkpt>
      <trkpt lat="49.26246" lon="1.13317">
        <ele>132</ele>
        <time>2024-07-02T13:41:12.599+00:00</time>
      </trkpt>
      <trkpt lat="49.26243" lon="1.13319">
        <ele>132</ele>
        <time>2024-07-02T13:41:17.589+00:00</time>
      </trkpt>
      <trkpt lat="49.26238" lon="1.13323">
        <ele>132</ele>
        <time>2024-07-02T13:41:21.803+00:00</time>
      </trkpt>
      <trkpt lat="49.26234" lon="1.13327">
        <ele>131</ele>
        <time>2024-07-02T13:41:26.429+00:00</time>
      </trkpt>
      <trkpt lat="49.26231" lon="1.13332">
        <ele>131</ele>
        <time>2024-07-02T13:41:30.588+00:00</time>
      </trkpt>
      <trkpt lat="49.26227" lon="1.13337">
        <ele>131</ele>
        <time>2024-07-02T13:41:34.846+00:00</time>
      </trkpt>
      <trkpt lat="49.26223" lon="1.13341">
        <ele>131</ele>
        <time>2024-07-02T13:41:39.030+00:00</time>
      </trkpt>
      <trkpt lat="49.26219" lon="1.13348">
        <ele>131</ele>
        <time>2024-07-02T13:41:43.365+00:00</time>
      </trkpt>
      <trkpt lat="49.26216" lon="1.13354">
        <ele>131</ele>
        <time>2024-07-02T13:41:47.594+00:00</time>
      </trkpt>
      <trkpt lat="49.26213" lon="1.13359">
        <ele>131</ele>
        <time>2024-07-02T13:41:51.911+00:00</time>
      </trkpt>
      <trkpt lat="49.26212" lon="1.13367">
        <ele>131</ele>
        <time>2024-07-02T13:41:56.602+00:00</time>
      </trkpt>
      <trkpt lat="49.26212" lon="1.13375">
        <ele>131</ele>
        <time>2024-07-02T13:42:01.209+00:00</time>
      </trkpt>
      <trkpt lat="49.26213" lon="1.1338">
        <ele>131</ele>
        <time>2024-07-02T13:42:05.266+00:00</time>
      </trkpt>
      <trkpt lat="49.26214" lon="1.13385">
        <ele>131</ele>
        <time>2024-07-02T13:42:09.391+00:00</time>
      </trkpt>
      <trkpt lat="49.26214" lon="1.13392">
        <ele>131</ele>
        <time>2024-07-02T13:42:13.506+00:00</time>
      </trkpt>
      <trkpt lat="49.26214" lon="1.134">
        <ele>131</ele>
        <time>2024-07-02T13:42:17.572+00:00</time>
      </trkpt>
      <trkpt lat="49.26214" lon="1.13407">
        <ele>130</ele>
        <time>2024-07-02T13:42:21.929+00:00</time>
      </trkpt>
      <trkpt lat="49.26214" lon="1.13415">
        <ele>130</ele>
        <time>2024-07-02T13:42:26.143+00:00</time>
      </trkpt>
      <trkpt lat="49.26215" lon="1.13424">
        <ele>130</ele>
        <time>2024-07-02T13:42:30.597+00:00</time>
      </trkpt>
      <trkpt lat="49.26217" lon="1.1343">
        <ele>130</ele>
        <time>2024-07-02T13:42:34.578+00:00</time>
      </trkpt>
      <trkpt lat="49.26218" lon="1.13439">
        <ele>131</ele>
        <time>2024-07-02T13:42:39.566+00:00</time>
      </trkpt>
      <trkpt lat="49.26218" lon="1.13448">
        <ele>131</ele>
        <time>2024-07-02T13:42:44.168+00:00</time>
      </trkpt>
      <trkpt lat="49.26219" lon="1.13453">
        <ele>131</ele>
        <time>2024-07-02T13:42:48.592+00:00</time>
      </trkpt>
      <trkpt lat="49.26219" lon="1.13462">
        <ele>131</ele>
        <time>2024-07-02T13:42:53.147+00:00</time>
      </trkpt>
      <trkpt lat="49.26217" lon="1.1347">
        <ele>131</ele>
        <time>2024-07-02T13:42:57.370+00:00</time>
      </trkpt>
      <trkpt lat="49.26215" lon="1.13477">
        <ele>131</ele>
        <time>2024-07-02T13:43:01.384+00:00</time>
      </trkpt>
      <trkpt lat="49.26214" lon="1.13485">
        <ele>131</ele>
        <time>2024-07-02T13:43:05.521+00:00</time>
      </trkpt>
      <trkpt lat="49.26214" lon="1.13494">
        <ele>131</ele>
        <time>2024-07-02T13:43:09.631+00:00</time>
      </trkpt>
      <trkpt lat="49.26215" lon="1.13503">
        <ele>131</ele>
        <time>2024-07-02T13:43:14.290+00:00</time>
      </trkpt>
      <trkpt lat="49.26215" lon="1.13511">
        <ele>131</ele>
        <time>2024-07-02T13:43:18.428+00:00</time>
      </trkpt>
      <trkpt lat="49.26217" lon="1.13519">
        <ele>130</ele>
        <time>2024-07-02T13:43:22.550+00:00</time>
      </trkpt>
      <trkpt lat="49.26218" lon="1.13527">
        <ele>130</ele>
        <time>2024-07-02T13:43:26.584+00:00</time>
      </trkpt>
      <trkpt lat="49.26219" lon="1.13535">
        <ele>130</ele>
        <time>2024-07-02T13:43:31.185+00:00</time>
      </trkpt>
      <trkpt lat="49.26221" lon="1.13542">
        <ele>130</ele>
        <time>2024-07-02T13:43:35.308+00:00</time>
      </trkpt>
      <trkpt lat="49.26221" lon="1.1355">
        <ele>130</ele>
        <time>2024-07-02T13:43:39.804+00:00</time>
      </trkpt>
      <trkpt lat="49.26222" lon="1.13557">
        <ele>130</ele>
        <time>2024-07-02T13:43:43.868+00:00</time>
      </trkpt>
      <trkpt lat="49.26224" lon="1.13564">
        <ele>130</ele>
        <time>2024-07-02T13:43:47.946+00:00</time>
      </trkpt>
      <trkpt lat="49.26225" lon="1.13573">
        <ele>130</ele>
        <time>2024-07-02T13:43:52.503+00:00</time>
      </trkpt>
      <trkpt lat="49.26225" lon="1.1358">
        <ele>130</ele>
        <time>2024-07-02T13:43:56.572+00:00</time>
      </trkpt>
      <trkpt lat="49.26225" lon="1.13586">
        <ele>130</ele>
        <time>2024-07-02T13:44:00.592+00:00</time>
      </trkpt>
      <trkpt lat="49.26222" lon="1.13603">
        <ele>130</ele>
        <time>2024-07-02T13:44:33.609+00:00</time>
      </trkpt>
      <trkpt lat="49.26221" lon="1.13603">
        <ele>130</ele>
        <time>2024-07-02T13:44:39.586+00:00</time>
      </trkpt>
      <trkpt lat="49.2622" lon="1.13602">
        <ele>130</ele>
        <time>2024-07-02T13:44:44.088+00:00</time>
      </trkpt>
      <trkpt lat="49.2622" lon="1.13603">
        <ele>130</ele>
        <time>2024-07-02T13:44:48.080+00:00</time>
      </trkpt>
      <trkpt lat="49.26215" lon="1.13603">
        <ele>130</ele>
        <time>2024-07-02T13:44:52.523+00:00</time>
      </trkpt>
      <trkpt lat="49.26215" lon="1.136">
        <ele>130</ele>
        <time>2024-07-02T13:47:45.585+00:00</time>
      </trkpt>
      <trkpt lat="49.26214" lon="1.13601">
        <ele>130</ele>
        <time>2024-07-02T13:47:50.587+00:00</time>
      </trkpt>
      <trkpt lat="49.26211" lon="1.13599">
        <ele>130</ele>
        <time>2024-07-02T13:47:55.169+00:00</time>
      </trkpt>
      <trkpt lat="49.26207" lon="1.13599">
        <ele>132</ele>
        <time>2024-07-02T13:47:59.596+00:00</time>
      </trkpt>
      <trkpt lat="49.26203" lon="1.13597">
        <ele>132</ele>
        <time>2024-07-02T13:48:04.409+00:00</time>
      </trkpt>
      <trkpt lat="49.26198" lon="1.13595">
        <ele>132</ele>
        <time>2024-07-02T13:48:08.589+00:00</time>
      </trkpt>
      <trkpt lat="49.26193" lon="1.13592">
        <ele>132</ele>
        <time>2024-07-02T13:48:12.603+00:00</time>
      </trkpt>
      <trkpt lat="49.26188" lon="1.13588">
        <ele>132</ele>
        <time>2024-07-02T13:48:17.148+00:00</time>
      </trkpt>
      <trkpt lat="49.26184" lon="1.13588">
        <ele>132</ele>
        <time>2024-07-02T13:48:21.609+00:00</time>
      </trkpt>
      <trkpt lat="49.26179" lon="1.13589">
        <ele>133</ele>
        <time>2024-07-02T13:48:26.204+00:00</time>
      </trkpt>
      <trkpt lat="49.26176" lon="1.13589">
        <ele>133</ele>
        <time>2024-07-02T13:48:30.597+00:00</time>
      </trkpt>
      <trkpt lat="49.26175" lon="1.13588">
        <ele>133</ele>
        <time>2024-07-02T13:48:34.987+00:00</time>
      </trkpt>
      <trkpt lat="49.2617" lon="1.13585">
        <ele>133</ele>
        <time>2024-07-02T13:48:39.523+00:00</time>
      </trkpt>
      <trkpt lat="49.26165" lon="1.13582">
        <ele>133</ele>
        <time>2024-07-02T13:48:43.597+00:00</time>
      </trkpt>
      <trkpt lat="49.2616" lon="1.13579">
        <ele>133</ele>
        <time>2024-07-02T13:48:47.931+00:00</time>
      </trkpt>
      <trkpt lat="49.26156" lon="1.13577">
        <ele>133</ele>
        <time>2024-07-02T13:48:51.926+00:00</time>
      </trkpt>
      <trkpt lat="49.26151" lon="1.13575">
        <ele>132</ele>
        <time>2024-07-02T13:48:55.933+00:00</time>
      </trkpt>
      <trkpt lat="49.26146" lon="1.13574">
        <ele>132</ele>
        <time>2024-07-02T13:49:00.598+00:00</time>
      </trkpt>
      <trkpt lat="49.26143" lon="1.13573">
        <ele>132</ele>
        <time>2024-07-02T13:49:04.709+00:00</time>
      </trkpt>
      <trkpt lat="49.26138" lon="1.1357">
        <ele>132</ele>
        <time>2024-07-02T13:49:09.206+00:00</time>
      </trkpt>
      <trkpt lat="49.26134" lon="1.13567">
        <ele>131</ele>
        <time>2024-07-02T13:49:13.305+00:00</time>
      </trkpt>
      <trkpt lat="49.26129" lon="1.13564">
        <ele>131</ele>
        <time>2024-07-02T13:49:17.596+00:00</time>
      </trkpt>
      <trkpt lat="49.26125" lon="1.13561">
        <ele>131</ele>
        <time>2024-07-02T13:49:21.784+00:00</time>
      </trkpt>
      <trkpt lat="49.2612" lon="1.1356">
        <ele>130</ele>
        <time>2024-07-02T13:49:25.911+00:00</time>
      </trkpt>
      <trkpt lat="49.26115" lon="1.13557">
        <ele>130</ele>
        <time>2024-07-02T13:49:30.105+00:00</time>
      </trkpt>
      <trkpt lat="49.26111" lon="1.13555">
        <ele>130</ele>
        <time>2024-07-02T13:49:34.371+00:00</time>
      </trkpt>
      <trkpt lat="49.26106" lon="1.13553">
        <ele>130</ele>
        <time>2024-07-02T13:49:38.545+00:00</time>
      </trkpt>
      <trkpt lat="49.26101" lon="1.1355">
        <ele>130</ele>
        <time>2024-07-02T13:49:42.597+00:00</time>
      </trkpt>
      <trkpt lat="49.26096" lon="1.13548">
        <ele>131</ele>
        <time>2024-07-02T13:49:46.825+00:00</time>
      </trkpt>
      <trkpt lat="49.26092" lon="1.13545">
        <ele>131</ele>
        <time>2024-07-02T13:49:51.016+00:00</time>
      </trkpt>
      <trkpt lat="49.26087" lon="1.13543">
        <ele>131</ele>
        <time>2024-07-02T13:49:55.028+00:00</time>
      </trkpt>
      <trkpt lat="49.26083" lon="1.13542">
        <ele>130</ele>
        <time>2024-07-02T13:49:59.268+00:00</time>
      </trkpt>
      <trkpt lat="49.26079" lon="1.13539">
        <ele>130</ele>
        <time>2024-07-02T13:50:03.530+00:00</time>
      </trkpt>
      <trkpt lat="49.26076" lon="1.13538">
        <ele>130</ele>
        <time>2024-07-02T13:50:07.600+00:00</time>
      </trkpt>
      <trkpt lat="49.26071" lon="1.13535">
        <ele>130</ele>
        <time>2024-07-02T13:50:11.764+00:00</time>
      </trkpt>
      <trkpt lat="49.26067" lon="1.13533">
        <ele>133</ele>
        <time>2024-07-02T13:50:16.029+00:00</time>
      </trkpt>
      <trkpt lat="49.26062" lon="1.1353">
        <ele>133</ele>
        <time>2024-07-02T13:50:20.343+00:00</time>
      </trkpt>
      <trkpt lat="49.26057" lon="1.13528">
        <ele>133</ele>
        <time>2024-07-02T13:50:24.587+00:00</time>
      </trkpt>
      <trkpt lat="49.2605" lon="1.13527">
        <ele>133</ele>
        <time>2024-07-02T13:50:29.286+00:00</time>
      </trkpt>
      <trkpt lat="49.26045" lon="1.13525">
        <ele>133</ele>
        <time>2024-07-02T13:50:33.568+00:00</time>
      </trkpt>
      <trkpt lat="49.2604" lon="1.13522">
        <ele>134</ele>
        <time>2024-07-02T13:50:37.608+00:00</time>
      </trkpt>
      <trkpt lat="49.26036" lon="1.1352">
        <ele>134</ele>
        <time>2024-07-02T13:50:41.943+00:00</time>
      </trkpt>
      <trkpt lat="49.26031" lon="1.13518">
        <ele>134</ele>
        <time>2024-07-02T13:50:46.209+00:00</time>
      </trkpt>
      <trkpt lat="49.26027" lon="1.13516">
        <ele>134</ele>
        <time>2024-07-02T13:50:50.581+00:00</time>
      </trkpt>
      <trkpt lat="49.26022" lon="1.13514">
        <ele>134</ele>
        <time>2024-07-02T13:50:55.082+00:00</time>
      </trkpt>
      <trkpt lat="49.26018" lon="1.13511">
        <ele>134</ele>
        <time>2024-07-02T13:50:59.230+00:00</time>
      </trkpt>
      <trkpt lat="49.26014" lon="1.13506">
        <ele>134</ele>
        <time>2024-07-02T13:51:03.228+00:00</time>
      </trkpt>
      <trkpt lat="49.26009" lon="1.13505">
        <ele>136</ele>
        <time>2024-07-02T13:51:07.591+00:00</time>
      </trkpt>
      <trkpt lat="49.26002" lon="1.13504">
        <ele>136</ele>
        <time>2024-07-02T13:51:11.944+00:00</time>
      </trkpt>
      <trkpt lat="49.25997" lon="1.13503">
        <ele>136</ele>
        <time>2024-07-02T13:51:16.090+00:00</time>
      </trkpt>
      <trkpt lat="49.25994" lon="1.13505">
        <ele>136</ele>
        <time>2024-07-02T13:51:20.305+00:00</time>
      </trkpt>
      <trkpt lat="49.25993" lon="1.13511">
        <ele>136</ele>
        <time>2024-07-02T13:51:24.594+00:00</time>
      </trkpt>
      <trkpt lat="49.25992" lon="1.13516">
        <ele>136</ele>
        <time>2024-07-02T13:51:28.634+00:00</time>
      </trkpt>
      <trkpt lat="49.25989" lon="1.13521">
        <ele>136</ele>
        <time>2024-07-02T13:51:33.266+00:00</time>
      </trkpt>
      <trkpt lat="49.25989" lon="1.13527">
        <ele>136</ele>
        <time>2024-07-02T13:51:37.604+00:00</time>
      </trkpt>
      <trkpt lat="49.25988" lon="1.13532">
        <ele>136</ele>
        <time>2024-07-02T13:51:41.887+00:00</time>
      </trkpt>
      <trkpt lat="49.25986" lon="1.13538">
        <ele>136</ele>
        <time>2024-07-02T13:51:46.103+00:00</time>
      </trkpt>
      <trkpt lat="49.25985" lon="1.13544">
        <ele>137</ele>
        <time>2024-07-02T13:51:50.255+00:00</time>
      </trkpt>
      <trkpt lat="49.25985" lon="1.13547">
        <ele>137</ele>
        <time>2024-07-02T13:51:54.610+00:00</time>
      </trkpt>
      <trkpt lat="49.25985" lon="1.13552">
        <ele>137</ele>
        <time>2024-07-02T13:51:58.781+00:00</time>
      </trkpt>
      <trkpt lat="49.25984" lon="1.13558">
        <ele>137</ele>
        <time>2024-07-02T13:52:03.047+00:00</time>
      </trkpt>
      <trkpt lat="49.25984" lon="1.13564">
        <ele>137</ele>
        <time>2024-07-02T13:52:07.387+00:00</time>
      </trkpt>
      <trkpt lat="49.25984" lon="1.13565">
        <ele>137</ele>
        <time>2024-07-02T13:52:11.603+00:00</time>
      </trkpt>
      <trkpt lat="49.25984" lon="1.13566">
        <ele>137</ele>
        <time>2024-07-02T13:52:15.613+00:00</time>
      </trkpt>
      <trkpt lat="49.25984" lon="1.13571">
        <ele>135</ele>
        <time>2024-07-02T13:52:19.784+00:00</time>
      </trkpt>
      <trkpt lat="49.25982" lon="1.13578">
        <ele>135</ele>
        <time>2024-07-02T13:52:24.191+00:00</time>
      </trkpt>
      <trkpt lat="49.2598" lon="1.13585">
        <ele>135</ele>
        <time>2024-07-02T13:52:28.615+00:00</time>
      </trkpt>
      <trkpt lat="49.25979" lon="1.13592">
        <ele>135</ele>
        <time>2024-07-02T13:52:32.928+00:00</time>
      </trkpt>
      <trkpt lat="49.25978" lon="1.13599">
        <ele>135</ele>
        <time>2024-07-02T13:52:37.290+00:00</time>
      </trkpt>
      <trkpt lat="49.25976" lon="1.13606">
        <ele>135</ele>
        <time>2024-07-02T13:52:41.608+00:00</time>
      </trkpt>
      <trkpt lat="49.25975" lon="1.13614">
        <ele>135</ele>
        <time>2024-07-02T13:52:46.166+00:00</time>
      </trkpt>
      <trkpt lat="49.25974" lon="1.13621">
        <ele>135</ele>
        <time>2024-07-02T13:52:50.522+00:00</time>
      </trkpt>
      <trkpt lat="49.25972" lon="1.13628">
        <ele>136</ele>
        <time>2024-07-02T13:52:54.860+00:00</time>
      </trkpt>
      <trkpt lat="49.2597" lon="1.13635">
        <ele>136</ele>
        <time>2024-07-02T13:52:59.188+00:00</time>
      </trkpt>
      <trkpt lat="49.25968" lon="1.13642">
        <ele>136</ele>
        <time>2024-07-02T13:53:03.588+00:00</time>
      </trkpt>
      <trkpt lat="49.25967" lon="1.13649">
        <ele>136</ele>
        <time>2024-07-02T13:53:07.738+00:00</time>
      </trkpt>
      <trkpt lat="49.25966" lon="1.13657">
        <ele>137</ele>
        <time>2024-07-02T13:53:12.292+00:00</time>
      </trkpt>
      <trkpt lat="49.25963" lon="1.13663">
        <ele>137</ele>
        <time>2024-07-02T13:53:16.507+00:00</time>
      </trkpt>
      <trkpt lat="49.25962" lon="1.13668">
        <ele>137</ele>
        <time>2024-07-02T13:53:20.955+00:00</time>
      </trkpt>
      <trkpt lat="49.25961" lon="1.13674">
        <ele>137</ele>
        <time>2024-07-02T13:53:25.170+00:00</time>
      </trkpt>
      <trkpt lat="49.2596" lon="1.13679">
        <ele>137</ele>
        <time>2024-07-02T13:53:30.272+00:00</time>
      </trkpt>
      <trkpt lat="49.25959" lon="1.13684">
        <ele>137</ele>
        <time>2024-07-02T13:53:34.864+00:00</time>
      </trkpt>
      <trkpt lat="49.25957" lon="1.13693">
        <ele>137</ele>
        <time>2024-07-02T13:53:39.263+00:00</time>
      </trkpt>
      <trkpt lat="49.25955" lon="1.137">
        <ele>137</ele>
        <time>2024-07-02T13:53:43.574+00:00</time>
      </trkpt>
      <trkpt lat="49.25954" lon="1.13706">
        <ele>137</ele>
        <time>2024-07-02T13:53:48.009+00:00</time>
      </trkpt>
      <trkpt lat="49.25953" lon="1.13712">
        <ele>137</ele>
        <time>2024-07-02T13:53:52.383+00:00</time>
      </trkpt>
      <trkpt lat="49.25952" lon="1.13718">
        <ele>137</ele>
        <time>2024-07-02T13:53:56.590+00:00</time>
      </trkpt>
      <trkpt lat="49.25951" lon="1.13724">
        <ele>137</ele>
        <time>2024-07-02T13:54:00.910+00:00</time>
      </trkpt>
      <trkpt lat="49.2595" lon="1.13731">
        <ele>137</ele>
        <time>2024-07-02T13:54:05.325+00:00</time>
      </trkpt>
      <trkpt lat="49.25949" lon="1.13738">
        <ele>138</ele>
        <time>2024-07-02T13:54:09.616+00:00</time>
      </trkpt>
      <trkpt lat="49.25948" lon="1.13746">
        <ele>138</ele>
        <time>2024-07-02T13:54:14.107+00:00</time>
      </trkpt>
      <trkpt lat="49.25946" lon="1.13752">
        <ele>138</ele>
        <time>2024-07-02T13:54:18.394+00:00</time>
      </trkpt>
      <trkpt lat="49.25945" lon="1.1376">
        <ele>138</ele>
        <time>2024-07-02T13:54:22.827+00:00</time>
      </trkpt>
      <trkpt lat="49.25944" lon="1.13766">
        <ele>139</ele>
        <time>2024-07-02T13:54:27.124+00:00</time>
      </trkpt>
      <trkpt lat="49.25943" lon="1.13772">
        <ele>139</ele>
        <time>2024-07-02T13:54:31.523+00:00</time>
      </trkpt>
      <trkpt lat="49.25941" lon="1.13779">
        <ele>139</ele>
        <time>2024-07-02T13:54:35.908+00:00</time>
      </trkpt>
      <trkpt lat="49.2594" lon="1.13786">
        <ele>139</ele>
        <time>2024-07-02T13:54:40.389+00:00</time>
      </trkpt>
      <trkpt lat="49.25938" lon="1.13791">
        <ele>139</ele>
        <time>2024-07-02T13:54:44.866+00:00</time>
      </trkpt>
      <trkpt lat="49.25937" lon="1.13798">
        <ele>139</ele>
        <time>2024-07-02T13:54:49.351+00:00</time>
      </trkpt>
      <trkpt lat="49.25936" lon="1.13804">
        <ele>139</ele>
        <time>2024-07-02T13:54:53.829+00:00</time>
      </trkpt>
      <trkpt lat="49.25935" lon="1.13812">
        <ele>139</ele>
        <time>2024-07-02T13:54:58.270+00:00</time>
      </trkpt>
      <trkpt lat="49.25933" lon="1.1382">
        <ele>138</ele>
        <time>2024-07-02T13:55:02.608+00:00</time>
      </trkpt>
      <trkpt lat="49.25931" lon="1.13828">
        <ele>138</ele>
        <time>2024-07-02T13:55:07.263+00:00</time>
      </trkpt>
      <trkpt lat="49.2593" lon="1.13833">
        <ele>140</ele>
        <time>2024-07-02T13:55:11.590+00:00</time>
      </trkpt>
      <trkpt lat="49.25929" lon="1.1384">
        <ele>140</ele>
        <time>2024-07-02T13:55:15.617+00:00</time>
      </trkpt>
      <trkpt lat="49.25928" lon="1.13847">
        <ele>140</ele>
        <time>2024-07-02T13:55:19.950+00:00</time>
      </trkpt>
      <trkpt lat="49.25926" lon="1.13856">
        <ele>139</ele>
        <time>2024-07-02T13:55:24.303+00:00</time>
      </trkpt>
      <trkpt lat="49.25924" lon="1.13863">
        <ele>139</ele>
        <time>2024-07-02T13:55:28.809+00:00</time>
      </trkpt>
      <trkpt lat="49.25923" lon="1.13871">
        <ele>139</ele>
        <time>2024-07-02T13:55:33.366+00:00</time>
      </trkpt>
      <trkpt lat="49.25921" lon="1.13878">
        <ele>137</ele>
        <time>2024-07-02T13:55:37.617+00:00</time>
      </trkpt>
      <trkpt lat="49.25918" lon="1.13892">
        <ele>137</ele>
        <time>2024-07-02T13:55:56.599+00:00</time>
      </trkpt>
      <trkpt lat="49.25917" lon="1.13892">
        <ele>137</ele>
        <time>2024-07-02T13:56:01.620+00:00</time>
      </trkpt>
      <trkpt lat="49.25916" lon="1.13893">
        <ele>137</ele>
        <time>2024-07-02T13:56:06.616+00:00</time>
      </trkpt>
      <trkpt lat="49.25914" lon="1.13895">
        <ele>137</ele>
        <time>2024-07-02T13:56:11.548+00:00</time>
      </trkpt>
      <trkpt lat="49.25914" lon="1.13897">
        <ele>137</ele>
        <time>2024-07-02T13:56:15.610+00:00</time>
      </trkpt>
      <trkpt lat="49.25913" lon="1.13908">
        <ele>134</ele>
        <time>2024-07-02T14:11:24.609+00:00</time>
      </trkpt>
      <trkpt lat="49.2591" lon="1.13908">
        <ele>134</ele>
        <time>2024-07-02T14:11:29.598+00:00</time>
      </trkpt>
      <trkpt lat="49.25906" lon="1.13905">
        <ele>134</ele>
        <time>2024-07-02T14:11:33.603+00:00</time>
      </trkpt>
      <trkpt lat="49.25901" lon="1.13902">
        <ele>136</ele>
        <time>2024-07-02T14:11:38.604+00:00</time>
      </trkpt>
      <trkpt lat="49.25897" lon="1.139">
        <ele>136</ele>
        <time>2024-07-02T14:11:42.601+00:00</time>
      </trkpt>
      <trkpt lat="49.25892" lon="1.13897">
        <ele>136</ele>
        <time>2024-07-02T14:11:47.584+00:00</time>
      </trkpt>
      <trkpt lat="49.25891" lon="1.13896">
        <ele>136</ele>
        <time>2024-07-02T14:11:51.606+00:00</time>
      </trkpt>
      <trkpt lat="49.25888" lon="1.13895">
        <ele>136</ele>
        <time>2024-07-02T14:11:56.605+00:00</time>
      </trkpt>
      <trkpt lat="49.25884" lon="1.13893">
        <ele>136</ele>
        <time>2024-07-02T14:12:00.611+00:00</time>
      </trkpt>
      <trkpt lat="49.25878" lon="1.13892">
        <ele>136</ele>
        <time>2024-07-02T14:12:05.015+00:00</time>
      </trkpt>
      <trkpt lat="49.25874" lon="1.1389">
        <ele>134</ele>
        <time>2024-07-02T14:12:09.125+00:00</time>
      </trkpt>
      <trkpt lat="49.25869" lon="1.13888">
        <ele>134</ele>
        <time>2024-07-02T14:12:13.307+00:00</time>
      </trkpt>
      <trkpt lat="49.25866" lon="1.13885">
        <ele>134</ele>
        <time>2024-07-02T14:12:17.846+00:00</time>
      </trkpt>
      <trkpt lat="49.25861" lon="1.13883">
        <ele>134</ele>
        <time>2024-07-02T14:12:22.028+00:00</time>
      </trkpt>
      <trkpt lat="49.25857" lon="1.1388">
        <ele>134</ele>
        <time>2024-07-02T14:12:26.140+00:00</time>
      </trkpt>
      <trkpt lat="49.25852" lon="1.13878">
        <ele>134</ele>
        <time>2024-07-02T14:12:30.228+00:00</time>
      </trkpt>
      <trkpt lat="49.25848" lon="1.13876">
        <ele>134</ele>
        <time>2024-07-02T14:12:34.284+00:00</time>
      </trkpt>
      <trkpt lat="49.25843" lon="1.13874">
        <ele>130</ele>
        <time>2024-07-02T14:12:38.365+00:00</time>
      </trkpt>
      <trkpt lat="49.25839" lon="1.13874">
        <ele>130</ele>
        <time>2024-07-02T14:12:42.597+00:00</time>
      </trkpt>
      <trkpt lat="49.25833" lon="1.13873">
        <ele>130</ele>
        <time>2024-07-02T14:12:47.163+00:00</time>
      </trkpt>
      <trkpt lat="49.25829" lon="1.13872">
        <ele>130</ele>
        <time>2024-07-02T14:12:51.520+00:00</time>
      </trkpt>
      <trkpt lat="49.25824" lon="1.13869">
        <ele>130</ele>
        <time>2024-07-02T14:12:56.246+00:00</time>
      </trkpt>
      <trkpt lat="49.2582" lon="1.13868">
        <ele>130</ele>
        <time>2024-07-02T14:13:00.248+00:00</time>
      </trkpt>
      <trkpt lat="49.25816" lon="1.13868">
        <ele>127</ele>
        <time>2024-07-02T14:13:04.607+00:00</time>
      </trkpt>
      <trkpt lat="49.25812" lon="1.13867">
        <ele>127</ele>
        <time>2024-07-02T14:13:08.942+00:00</time>
      </trkpt>
      <trkpt lat="49.25808" lon="1.13863">
        <ele>127</ele>
        <time>2024-07-02T14:13:13.187+00:00</time>
      </trkpt>
      <trkpt lat="49.25803" lon="1.1386">
        <ele>127</ele>
        <time>2024-07-02T14:13:17.325+00:00</time>
      </trkpt>
      <trkpt lat="49.25798" lon="1.13858">
        <ele>127</ele>
        <time>2024-07-02T14:13:21.606+00:00</time>
      </trkpt>
      <trkpt lat="49.25794" lon="1.13856">
        <ele>127</ele>
        <time>2024-07-02T14:13:26.082+00:00</time>
      </trkpt>
      <trkpt lat="49.25791" lon="1.13854">
        <ele>129</ele>
        <time>2024-07-02T14:13:30.593+00:00</time>
      </trkpt>
      <trkpt lat="49.25787" lon="1.13853">
        <ele>129</ele>
        <time>2024-07-02T14:13:34.603+00:00</time>
      </trkpt>
      <trkpt lat="49.25783" lon="1.13851">
        <ele>129</ele>
        <time>2024-07-02T14:13:38.929+00:00</time>
      </trkpt>
      <trkpt lat="49.2578" lon="1.13849">
        <ele>129</ele>
        <time>2024-07-02T14:13:42.939+00:00</time>
      </trkpt>
      <trkpt lat="49.25776" lon="1.13846">
        <ele>130</ele>
        <time>2024-07-02T14:13:47.324+00:00</time>
      </trkpt>
      <trkpt lat="49.25772" lon="1.13844">
        <ele>130</ele>
        <time>2024-07-02T14:13:51.960+00:00</time>
      </trkpt>
      <trkpt lat="49.25767" lon="1.13844">
        <ele>130</ele>
        <time>2024-07-02T14:13:56.543+00:00</time>
      </trkpt>
      <trkpt lat="49.25763" lon="1.13843">
        <ele>131</ele>
        <time>2024-07-02T14:14:00.585+00:00</time>
      </trkpt>
      <trkpt lat="49.25759" lon="1.13839">
        <ele>131</ele>
        <time>2024-07-02T14:14:05.023+00:00</time>
      </trkpt>
      <trkpt lat="49.25755" lon="1.13837">
        <ele>131</ele>
        <time>2024-07-02T14:14:09.266+00:00</time>
      </trkpt>
      <trkpt lat="49.25753" lon="1.13838">
        <ele>131</ele>
        <time>2024-07-02T14:14:13.244+00:00</time>
      </trkpt>
      <trkpt lat="49.25749" lon="1.13835">
        <ele>131</ele>
        <time>2024-07-02T14:14:17.928+00:00</time>
      </trkpt>
      <trkpt lat="49.25746" lon="1.1383">
        <ele>131</ele>
        <time>2024-07-02T14:14:22.460+00:00</time>
      </trkpt>
      <trkpt lat="49.25742" lon="1.13827">
        <ele>131</ele>
        <time>2024-07-02T14:14:26.865+00:00</time>
      </trkpt>
      <trkpt lat="49.25738" lon="1.13826">
        <ele>131</ele>
        <time>2024-07-02T14:14:31.445+00:00</time>
      </trkpt>
      <trkpt lat="49.25734" lon="1.13824">
        <ele>130</ele>
        <time>2024-07-02T14:14:35.907+00:00</time>
      </trkpt>
      <trkpt lat="49.2573" lon="1.13823">
        <ele>130</ele>
        <time>2024-07-02T14:14:40.264+00:00</time>
      </trkpt>
      <trkpt lat="49.25726" lon="1.1382">
        <ele>130</ele>
        <time>2024-07-02T14:14:44.599+00:00</time>
      </trkpt>
      <trkpt lat="49.25723" lon="1.13818">
        <ele>131</ele>
        <time>2024-07-02T14:14:48.922+00:00</time>
      </trkpt>
      <trkpt lat="49.2572" lon="1.13817">
        <ele>131</ele>
        <time>2024-07-02T14:14:53.121+00:00</time>
      </trkpt>
      <trkpt lat="49.25716" lon="1.13816">
        <ele>131</ele>
        <time>2024-07-02T14:14:57.526+00:00</time>
      </trkpt>
      <trkpt lat="49.25711" lon="1.13815">
        <ele>131</ele>
        <time>2024-07-02T14:15:02.007+00:00</time>
      </trkpt>
      <trkpt lat="49.25708" lon="1.13814">
        <ele>130</ele>
        <time>2024-07-02T14:15:06.010+00:00</time>
      </trkpt>
      <trkpt lat="49.25703" lon="1.13813">
        <ele>130</ele>
        <time>2024-07-02T14:15:10.542+00:00</time>
      </trkpt>
      <trkpt lat="49.25699" lon="1.13812">
        <ele>130</ele>
        <time>2024-07-02T14:15:15.126+00:00</time>
      </trkpt>
      <trkpt lat="49.25696" lon="1.1381">
        <ele>130</ele>
        <time>2024-07-02T14:15:19.537+00:00</time>
      </trkpt>
      <trkpt lat="49.25692" lon="1.13808">
        <ele>130</ele>
        <time>2024-07-02T14:15:23.828+00:00</time>
      </trkpt>
      <trkpt lat="49.25688" lon="1.13807">
        <ele>130</ele>
        <time>2024-07-02T14:15:28.006+00:00</time>
      </trkpt>
      <trkpt lat="49.25684" lon="1.13807">
        <ele>130</ele>
        <time>2024-07-02T14:15:32.516+00:00</time>
      </trkpt>
      <trkpt lat="49.2568" lon="1.13806">
        <ele>130</ele>
        <time>2024-07-02T14:15:37.186+00:00</time>
      </trkpt>
      <trkpt lat="49.25676" lon="1.13803">
        <ele>130</ele>
        <time>2024-07-02T14:15:41.380+00:00</time>
      </trkpt>
      <trkpt lat="49.25673" lon="1.138">
        <ele>130</ele>
        <time>2024-07-02T14:15:45.806+00:00</time>
      </trkpt>
      <trkpt lat="49.25669" lon="1.13798">
        <ele>130</ele>
        <time>2024-07-02T14:15:50.040+00:00</time>
      </trkpt>
      <trkpt lat="49.25664" lon="1.13795">
        <ele>130</ele>
        <time>2024-07-02T14:15:54.545+00:00</time>
      </trkpt>
      <trkpt lat="49.2566" lon="1.13793">
        <ele>130</ele>
        <time>2024-07-02T14:15:58.980+00:00</time>
      </trkpt>
      <trkpt lat="49.25655" lon="1.13791">
        <ele>134</ele>
        <time>2024-07-02T14:16:03.587+00:00</time>
      </trkpt>
      <trkpt lat="49.25651" lon="1.13791">
        <ele>133</ele>
        <time>2024-07-02T14:16:07.599+00:00</time>
      </trkpt>
      <trkpt lat="49.25647" lon="1.13791">
        <ele>133</ele>
        <time>2024-07-02T14:16:11.963+00:00</time>
      </trkpt>
      <trkpt lat="49.25643" lon="1.13789">
        <ele>133</ele>
        <time>2024-07-02T14:16:16.065+00:00</time>
      </trkpt>
      <trkpt lat="49.2564" lon="1.13787">
        <ele>133</ele>
        <time>2024-07-02T14:16:20.160+00:00</time>
      </trkpt>
      <trkpt lat="49.25638" lon="1.13785">
        <ele>133</ele>
        <time>2024-07-02T14:16:24.572+00:00</time>
      </trkpt>
      <trkpt lat="49.2563" lon="1.13783">
        <ele>133</ele>
        <time>2024-07-02T14:17:38.593+00:00</time>
      </trkpt>
      <trkpt lat="49.2563" lon="1.13787">
        <ele>133</ele>
        <time>2024-07-02T14:17:42.964+00:00</time>
      </trkpt>
      <trkpt lat="49.25628" lon="1.13795">
        <ele>130</ele>
        <time>2024-07-02T14:17:47.591+00:00</time>
      </trkpt>
      <trkpt lat="49.25625" lon="1.13801">
        <ele>130</ele>
        <time>2024-07-02T14:17:52.383+00:00</time>
      </trkpt>
      <trkpt lat="49.25624" lon="1.13807">
        <ele>129</ele>
        <time>2024-07-02T14:17:56.558+00:00</time>
      </trkpt>
      <trkpt lat="49.25622" lon="1.13814">
        <ele>129</ele>
        <time>2024-07-02T14:18:00.782+00:00</time>
      </trkpt>
      <trkpt lat="49.2562" lon="1.13819">
        <ele>129</ele>
        <time>2024-07-02T14:18:05.308+00:00</time>
      </trkpt>
      <trkpt lat="49.2562" lon="1.13825">
        <ele>128</ele>
        <time>2024-07-02T14:18:09.598+00:00</time>
      </trkpt>
      <trkpt lat="49.25622" lon="1.1383">
        <ele>128</ele>
        <time>2024-07-02T14:18:13.700+00:00</time>
      </trkpt>
      <trkpt lat="49.25618" lon="1.13835">
        <ele>128</ele>
        <time>2024-07-02T14:18:17.767+00:00</time>
      </trkpt>
      <trkpt lat="49.25616" lon="1.13841">
        <ele>128</ele>
        <time>2024-07-02T14:18:21.964+00:00</time>
      </trkpt>
      <trkpt lat="49.25615" lon="1.13846">
        <ele>128</ele>
        <time>2024-07-02T14:18:26.020+00:00</time>
      </trkpt>
      <trkpt lat="49.25614" lon="1.13852">
        <ele>127</ele>
        <time>2024-07-02T14:18:30.164+00:00</time>
      </trkpt>
      <trkpt lat="49.25613" lon="1.13858">
        <ele>127</ele>
        <time>2024-07-02T14:18:34.268+00:00</time>
      </trkpt>
      <trkpt lat="49.25611" lon="1.13863">
        <ele>127</ele>
        <time>2024-07-02T14:18:38.384+00:00</time>
      </trkpt>
      <trkpt lat="49.25611" lon="1.13869">
        <ele>127</ele>
        <time>2024-07-02T14:18:42.528+00:00</time>
      </trkpt>
      <trkpt lat="49.2561" lon="1.13875">
        <ele>127</ele>
        <time>2024-07-02T14:18:46.587+00:00</time>
      </trkpt>
      <trkpt lat="49.25608" lon="1.13882">
        <ele>127</ele>
        <time>2024-07-02T14:18:50.603+00:00</time>
      </trkpt>
      <trkpt lat="49.25606" lon="1.13888">
        <ele>127</ele>
        <time>2024-07-02T14:18:54.841+00:00</time>
      </trkpt>
      <trkpt lat="49.25604" lon="1.13896">
        <ele>127</ele>
        <time>2024-07-02T14:18:59.512+00:00</time>
      </trkpt>
      <trkpt lat="49.25604" lon="1.13902">
        <ele>127</ele>
        <time>2024-07-02T14:19:03.582+00:00</time>
      </trkpt>
      <trkpt lat="49.25603" lon="1.13908">
        <ele>127</ele>
        <time>2024-07-02T14:19:07.782+00:00</time>
      </trkpt>
      <trkpt lat="49.25603" lon="1.13914">
        <ele>127</ele>
        <time>2024-07-02T14:19:12.207+00:00</time>
      </trkpt>
      <trkpt lat="49.25603" lon="1.13921">
        <ele>127</ele>
        <time>2024-07-02T14:19:16.799+00:00</time>
      </trkpt>
      <trkpt lat="49.25603" lon="1.1393">
        <ele>127</ele>
        <time>2024-07-02T14:19:20.902+00:00</time>
      </trkpt>
      <trkpt lat="49.25602" lon="1.13939">
        <ele>126</ele>
        <time>2024-07-02T14:19:24.969+00:00</time>
      </trkpt>
      <trkpt lat="49.25603" lon="1.1395">
        <ele>126</ele>
        <time>2024-07-02T14:19:29.272+00:00</time>
      </trkpt>
      <trkpt lat="49.25602" lon="1.13958">
        <ele>126</ele>
        <time>2024-07-02T14:19:33.578+00:00</time>
      </trkpt>
      <trkpt lat="49.256" lon="1.13964">
        <ele>126</ele>
        <time>2024-07-02T14:19:37.801+00:00</time>
      </trkpt>
      <trkpt lat="49.25598" lon="1.13972">
        <ele>126</ele>
        <time>2024-07-02T14:19:42.266+00:00</time>
      </trkpt>
      <trkpt lat="49.25598" lon="1.13981">
        <ele>126</ele>
        <time>2024-07-02T14:19:46.525+00:00</time>
      </trkpt>
      <trkpt lat="49.25597" lon="1.13989">
        <ele>127</ele>
        <time>2024-07-02T14:19:50.730+00:00</time>
      </trkpt>
      <trkpt lat="49.25596" lon="1.13995">
        <ele>127</ele>
        <time>2024-07-02T14:19:54.922+00:00</time>
      </trkpt>
      <trkpt lat="49.25596" lon="1.14002">
        <ele>127</ele>
        <time>2024-07-02T14:19:59.086+00:00</time>
      </trkpt>
      <trkpt lat="49.25595" lon="1.14007">
        <ele>127</ele>
        <time>2024-07-02T14:20:03.222+00:00</time>
      </trkpt>
      <trkpt lat="49.25594" lon="1.14013">
        <ele>127</ele>
        <time>2024-07-02T14:20:07.366+00:00</time>
      </trkpt>
      <trkpt lat="49.25592" lon="1.1402">
        <ele>127</ele>
        <time>2024-07-02T14:20:11.506+00:00</time>
      </trkpt>
      <trkpt lat="49.25592" lon="1.14025">
        <ele>127</ele>
        <time>2024-07-02T14:20:15.606+00:00</time>
      </trkpt>
      <trkpt lat="49.25591" lon="1.14031">
        <ele>127</ele>
        <time>2024-07-02T14:20:19.759+00:00</time>
      </trkpt>
      <trkpt lat="49.25591" lon="1.14038">
        <ele>127</ele>
        <time>2024-07-02T14:20:23.945+00:00</time>
      </trkpt>
      <trkpt lat="49.2559" lon="1.14043">
        <ele>127</ele>
        <time>2024-07-02T14:20:28.369+00:00</time>
      </trkpt>
      <trkpt lat="49.25588" lon="1.14048">
        <ele>127</ele>
        <time>2024-07-02T14:20:32.574+00:00</time>
      </trkpt>
      <trkpt lat="49.25587" lon="1.14052">
        <ele>127</ele>
        <time>2024-07-02T14:20:36.595+00:00</time>
      </trkpt>
      <trkpt lat="49.25586" lon="1.14058">
        <ele>127</ele>
        <time>2024-07-02T14:20:40.924+00:00</time>
      </trkpt>
      <trkpt lat="49.25584" lon="1.14063">
        <ele>127</ele>
        <time>2024-07-02T14:20:45.443+00:00</time>
      </trkpt>
      <trkpt lat="49.25589" lon="1.14075">
        <ele>127</ele>
        <time>2024-07-02T14:21:29.594+00:00</time>
      </trkpt>
      <trkpt lat="49.25589" lon="1.14078">
        <ele>127</ele>
        <time>2024-07-02T14:21:34.598+00:00</time>
      </trkpt>
      <trkpt lat="49.25589" lon="1.14078">
        <ele>127</ele>
        <time>2024-07-02T14:21:38.606+00:00</time>
      </trkpt>
      <trkpt lat="49.25589" lon="1.14079">
        <ele>127</ele>
        <time>2024-07-02T14:21:43.612+00:00</time>
      </trkpt>
      <trkpt lat="49.25589" lon="1.14081">
        <ele>127</ele>
        <time>2024-07-02T14:21:48.440+00:00</time>
      </trkpt>
      <trkpt lat="49.25588" lon="1.14088">
        <ele>127</ele>
        <time>2024-07-02T14:21:52.525+00:00</time>
      </trkpt>
      <trkpt lat="49.25587" lon="1.14094">
        <ele>127</ele>
        <time>2024-07-02T14:21:57.185+00:00</time>
      </trkpt>
      <trkpt lat="49.25586" lon="1.141">
        <ele>125</ele>
        <time>2024-07-02T14:22:01.547+00:00</time>
      </trkpt>
      <trkpt lat="49.25584" lon="1.14106">
        <ele>125</ele>
        <time>2024-07-02T14:22:06.185+00:00</time>
      </trkpt>
      <trkpt lat="49.25583" lon="1.14111">
        <ele>125</ele>
        <time>2024-07-02T14:22:10.599+00:00</time>
      </trkpt>
      <trkpt lat="49.25583" lon="1.14116">
        <ele>125</ele>
        <time>2024-07-02T14:22:14.599+00:00</time>
      </trkpt>
      <trkpt lat="49.25583" lon="1.14123">
        <ele>125</ele>
        <time>2024-07-02T14:22:19.006+00:00</time>
      </trkpt>
      <trkpt lat="49.25583" lon="1.14129">
        <ele>123</ele>
        <time>2024-07-02T14:22:23.347+00:00</time>
      </trkpt>
      <trkpt lat="49.25583" lon="1.14135">
        <ele>123</ele>
        <time>2024-07-02T14:22:27.866+00:00</time>
      </trkpt>
      <trkpt lat="49.25583" lon="1.14142">
        <ele>123</ele>
        <time>2024-07-02T14:22:32.574+00:00</time>
      </trkpt>
      <trkpt lat="49.25586" lon="1.14149">
        <ele>123</ele>
        <time>2024-07-02T14:22:37.217+00:00</time>
      </trkpt>
      <trkpt lat="49.25588" lon="1.14156">
        <ele>120</ele>
        <time>2024-07-02T14:22:41.589+00:00</time>
      </trkpt>
      <trkpt lat="49.2559" lon="1.14159">
        <ele>120</ele>
        <time>2024-07-02T14:22:46.178+00:00</time>
      </trkpt>
      <trkpt lat="49.2559" lon="1.14163">
        <ele>120</ele>
        <time>2024-07-02T14:22:50.181+00:00</time>
      </trkpt>
      <trkpt lat="49.25591" lon="1.14167">
        <ele>120</ele>
        <time>2024-07-02T14:22:54.308+00:00</time>
      </trkpt>
      <trkpt lat="49.2559" lon="1.14174">
        <ele>120</ele>
        <time>2024-07-02T14:22:58.520+00:00</time>
      </trkpt>
      <trkpt lat="49.25577" lon="1.14183">
        <ele>117</ele>
        <time>2024-07-02T14:25:04.571+00:00</time>
      </trkpt>
      <trkpt lat="49.25577" lon="1.14182">
        <ele>117</ele>
        <time>2024-07-02T14:25:09.563+00:00</time>
      </trkpt>
      <trkpt lat="49.25576" lon="1.14182">
        <ele>117</ele>
        <time>2024-07-02T14:25:13.483+00:00</time>
      </trkpt>
      <trkpt lat="49.25577" lon="1.14186">
        <ele>117</ele>
        <time>2024-07-02T14:25:17.565+00:00</time>
      </trkpt>
      <trkpt lat="49.25575" lon="1.14187">
        <ele>117</ele>
        <time>2024-07-02T14:25:22.567+00:00</time>
      </trkpt>
      <trkpt lat="49.25577" lon="1.14187">
        <ele>117</ele>
        <time>2024-07-02T14:25:57.040+00:00</time>
      </trkpt>
      <trkpt lat="49.25572" lon="1.14185">
        <ele>117</ele>
        <time>2024-07-02T14:26:01.522+00:00</time>
      </trkpt>
      <trkpt lat="49.25568" lon="1.14186">
        <ele>116</ele>
        <time>2024-07-02T14:26:05.595+00:00</time>
      </trkpt>
      <trkpt lat="49.25563" lon="1.14184">
        <ele>116</ele>
        <time>2024-07-02T14:26:09.759+00:00</time>
      </trkpt>
      <trkpt lat="49.25558" lon="1.14179">
        <ele>121</ele>
        <time>2024-07-02T14:26:13.827+00:00</time>
      </trkpt>
      <trkpt lat="49.25553" lon="1.14177">
        <ele>121</ele>
        <time>2024-07-02T14:26:17.840+00:00</time>
      </trkpt>
      <trkpt lat="49.25545" lon="1.14176">
        <ele>121</ele>
        <time>2024-07-02T14:26:21.925+00:00</time>
      </trkpt>
      <trkpt lat="49.25541" lon="1.14173">
        <ele>120</ele>
        <time>2024-07-02T14:26:25.981+00:00</time>
      </trkpt>
      <trkpt lat="49.25536" lon="1.1417">
        <ele>120</ele>
        <time>2024-07-02T14:26:30.043+00:00</time>
      </trkpt>
      <trkpt lat="49.25531" lon="1.14167">
        <ele>120</ele>
        <time>2024-07-02T14:26:34.151+00:00</time>
      </trkpt>
      <trkpt lat="49.25527" lon="1.14165">
        <ele>120</ele>
        <time>2024-07-02T14:26:38.364+00:00</time>
      </trkpt>
      <trkpt lat="49.25524" lon="1.14164">
        <ele>120</ele>
        <time>2024-07-02T14:26:42.408+00:00</time>
      </trkpt>
      <trkpt lat="49.25519" lon="1.14164">
        <ele>120</ele>
        <time>2024-07-02T14:26:46.459+00:00</time>
      </trkpt>
      <trkpt lat="49.25516" lon="1.14162">
        <ele>120</ele>
        <time>2024-07-02T14:26:50.596+00:00</time>
      </trkpt>
      <trkpt lat="49.25512" lon="1.1416">
        <ele>119</ele>
        <time>2024-07-02T14:26:54.788+00:00</time>
      </trkpt>
      <trkpt lat="49.25509" lon="1.14155">
        <ele>119</ele>
        <time>2024-07-02T14:26:59.420+00:00</time>
      </trkpt>
      <trkpt lat="49.25504" lon="1.14152">
        <ele>123</ele>
        <time>2024-07-02T14:27:03.540+00:00</time>
      </trkpt>
      <trkpt lat="49.255" lon="1.1415">
        <ele>123</ele>
        <time>2024-07-02T14:27:07.592+00:00</time>
      </trkpt>
      <trkpt lat="49.25494" lon="1.14147">
        <ele>123</ele>
        <time>2024-07-02T14:27:11.868+00:00</time>
      </trkpt>
      <trkpt lat="49.2549" lon="1.14144">
        <ele>123</ele>
        <time>2024-07-02T14:27:15.940+00:00</time>
      </trkpt>
      <trkpt lat="49.25485" lon="1.14142">
        <ele>122</ele>
        <time>2024-07-02T14:27:20.120+00:00</time>
      </trkpt>
      <trkpt lat="49.25481" lon="1.14139">
        <ele>122</ele>
        <time>2024-07-02T14:27:24.322+00:00</time>
      </trkpt>
      <trkpt lat="49.25476" lon="1.14136">
        <ele>122</ele>
        <time>2024-07-02T14:27:28.513+00:00</time>
      </trkpt>
      <trkpt lat="49.25471" lon="1.14135">
        <ele>122</ele>
        <time>2024-07-02T14:27:32.604+00:00</time>
      </trkpt>
      <trkpt lat="49.25466" lon="1.14135">
        <ele>122</ele>
        <time>2024-07-02T14:27:36.661+00:00</time>
      </trkpt>
      <trkpt lat="49.25461" lon="1.14133">
        <ele>122</ele>
        <time>2024-07-02T14:27:40.868+00:00</time>
      </trkpt>
      <trkpt lat="49.25456" lon="1.14131">
        <ele>121</ele>
        <time>2024-07-02T14:27:45.080+00:00</time>
      </trkpt>
      <trkpt lat="49.2545" lon="1.1413">
        <ele>121</ele>
        <time>2024-07-02T14:27:49.359+00:00</time>
      </trkpt>
      <trkpt lat="49.25446" lon="1.14128">
        <ele>121</ele>
        <time>2024-07-02T14:27:53.461+00:00</time>
      </trkpt>
      <trkpt lat="49.25442" lon="1.14124">
        <ele>125</ele>
        <time>2024-07-02T14:27:57.585+00:00</time>
      </trkpt>
      <trkpt lat="49.25438" lon="1.14119">
        <ele>125</ele>
        <time>2024-07-02T14:28:01.725+00:00</time>
      </trkpt>
      <trkpt lat="49.25433" lon="1.14117">
        <ele>125</ele>
        <time>2024-07-02T14:28:06.504+00:00</time>
      </trkpt>
      <trkpt lat="49.25427" lon="1.14116">
        <ele>124</ele>
        <time>2024-07-02T14:28:10.624+00:00</time>
      </trkpt>
      <trkpt lat="49.25423" lon="1.14115">
        <ele>124</ele>
        <time>2024-07-02T14:28:14.764+00:00</time>
      </trkpt>
      <trkpt lat="49.25418" lon="1.14114">
        <ele>124</ele>
        <time>2024-07-02T14:28:18.845+00:00</time>
      </trkpt>
      <trkpt lat="49.25414" lon="1.14112">
        <ele>124</ele>
        <time>2024-07-02T14:28:22.981+00:00</time>
      </trkpt>
      <trkpt lat="49.2541" lon="1.1411">
        <ele>124</ele>
        <time>2024-07-02T14:28:27.569+00:00</time>
      </trkpt>
      <trkpt lat="49.25405" lon="1.14108">
        <ele>124</ele>
        <time>2024-07-02T14:28:32.243+00:00</time>
      </trkpt>
      <trkpt lat="49.254" lon="1.14105">
        <ele>122</ele>
        <time>2024-07-02T14:28:36.786+00:00</time>
      </trkpt>
      <trkpt lat="49.25394" lon="1.14101">
        <ele>122</ele>
        <time>2024-07-02T14:28:41.321+00:00</time>
      </trkpt>
      <trkpt lat="49.25389" lon="1.141">
        <ele>122</ele>
        <time>2024-07-02T14:28:45.307+00:00</time>
      </trkpt>
      <trkpt lat="49.25383" lon="1.14096">
        <ele>125</ele>
        <time>2024-07-02T14:28:49.843+00:00</time>
      </trkpt>
      <trkpt lat="49.25378" lon="1.14093">
        <ele>125</ele>
        <time>2024-07-02T14:28:53.839+00:00</time>
      </trkpt>
      <trkpt lat="49.25373" lon="1.1409">
        <ele>125</ele>
        <time>2024-07-02T14:28:57.833+00:00</time>
      </trkpt>
      <trkpt lat="49.25368" lon="1.14087">
        <ele>125</ele>
        <time>2024-07-02T14:29:01.878+00:00</time>
      </trkpt>
      <trkpt lat="49.25356" lon="1.14083">
        <ele>125</ele>
        <time>2024-07-02T14:29:19.588+00:00</time>
      </trkpt>
      <trkpt lat="49.25355" lon="1.14084">
        <ele>125</ele>
        <time>2024-07-02T14:29:23.846+00:00</time>
      </trkpt>
      <trkpt lat="49.25353" lon="1.14086">
        <ele>125</ele>
        <time>2024-07-02T14:29:28.159+00:00</time>
      </trkpt>
      <trkpt lat="49.25346" lon="1.14084">
        <ele>126</ele>
        <time>2024-07-02T14:29:32.745+00:00</time>
      </trkpt>
      <trkpt lat="49.25341" lon="1.14082">
        <ele>126</ele>
        <time>2024-07-02T14:29:37.450+00:00</time>
      </trkpt>
      <trkpt lat="49.25335" lon="1.14079">
        <ele>126</ele>
        <time>2024-07-02T14:29:41.525+00:00</time>
      </trkpt>
      <trkpt lat="49.25331" lon="1.14075">
        <ele>126</ele>
        <time>2024-07-02T14:29:45.587+00:00</time>
      </trkpt>
      <trkpt lat="49.25327" lon="1.14071">
        <ele>126</ele>
        <time>2024-07-02T14:29:49.589+00:00</time>
      </trkpt>
      <trkpt lat="49.25324" lon="1.14068">
        <ele>127</ele>
        <time>2024-07-02T14:29:53.738+00:00</time>
      </trkpt>
      <trkpt lat="49.2532" lon="1.14065">
        <ele>127</ele>
        <time>2024-07-02T14:29:57.743+00:00</time>
      </trkpt>
      <trkpt lat="49.25315" lon="1.14063">
        <ele>127</ele>
        <time>2024-07-02T14:30:01.828+00:00</time>
      </trkpt>
      <trkpt lat="49.25311" lon="1.1406">
        <ele>127</ele>
        <time>2024-07-02T14:30:05.902+00:00</time>
      </trkpt>
      <trkpt lat="49.25306" lon="1.14058">
        <ele>127</ele>
        <time>2024-07-02T14:30:09.944+00:00</time>
      </trkpt>
      <trkpt lat="49.25301" lon="1.14057">
        <ele>127</ele>
        <time>2024-07-02T14:30:13.982+00:00</time>
      </trkpt>
      <trkpt lat="49.25297" lon="1.14055">
        <ele>127</ele>
        <time>2024-07-02T14:30:18.169+00:00</time>
      </trkpt>
      <trkpt lat="49.25292" lon="1.14054">
        <ele>127</ele>
        <time>2024-07-02T14:30:22.589+00:00</time>
      </trkpt>
      <trkpt lat="49.25286" lon="1.14051">
        <ele>125</ele>
        <time>2024-07-02T14:30:27.192+00:00</time>
      </trkpt>
      <trkpt lat="49.2528" lon="1.14049">
        <ele>125</ele>
        <time>2024-07-02T14:30:31.822+00:00</time>
      </trkpt>
      <trkpt lat="49.25275" lon="1.14048">
        <ele>125</ele>
        <time>2024-07-02T14:30:36.406+00:00</time>
      </trkpt>
      <trkpt lat="49.2527" lon="1.14046">
        <ele>125</ele>
        <time>2024-07-02T14:30:40.417+00:00</time>
      </trkpt>
      <trkpt lat="49.25265" lon="1.14043">
        <ele>125</ele>
        <time>2024-07-02T14:30:45.003+00:00</time>
      </trkpt>
      <trkpt lat="49.2526" lon="1.14041">
        <ele>124</ele>
        <time>2024-07-02T14:30:49.027+00:00</time>
      </trkpt>
      <trkpt lat="49.25256" lon="1.14039">
        <ele>124</ele>
        <time>2024-07-02T14:30:53.540+00:00</time>
      </trkpt>
      <trkpt lat="49.25253" lon="1.14038">
        <ele>124</ele>
        <time>2024-07-02T14:30:58.164+00:00</time>
      </trkpt>
      <trkpt lat="49.25249" lon="1.14035">
        <ele>124</ele>
        <time>2024-07-02T14:31:02.204+00:00</time>
      </trkpt>
      <trkpt lat="49.25245" lon="1.14033">
        <ele>124</ele>
        <time>2024-07-02T14:31:06.386+00:00</time>
      </trkpt>
      <trkpt lat="49.2524" lon="1.14031">
        <ele>124</ele>
        <time>2024-07-02T14:31:10.802+00:00</time>
      </trkpt>
      <trkpt lat="49.25234" lon="1.14029">
        <ele>120</ele>
        <time>2024-07-02T14:31:14.823+00:00</time>
      </trkpt>
      <trkpt lat="49.25228" lon="1.14027">
        <ele>120</ele>
        <time>2024-07-02T14:31:18.949+00:00</time>
      </trkpt>
      <trkpt lat="49.25222" lon="1.14025">
        <ele>120</ele>
        <time>2024-07-02T14:31:23.344+00:00</time>
      </trkpt>
      <trkpt lat="49.25216" lon="1.14023">
        <ele>120</ele>
        <time>2024-07-02T14:31:27.946+00:00</time>
      </trkpt>
      <trkpt lat="49.25211" lon="1.14021">
        <ele>120</ele>
        <time>2024-07-02T14:31:32.502+00:00</time>
      </trkpt>
      <trkpt lat="49.25206" lon="1.14019">
        <ele>118</ele>
        <time>2024-07-02T14:31:36.962+00:00</time>
      </trkpt>
      <trkpt lat="49.25201" lon="1.14016">
        <ele>118</ele>
        <time>2024-07-02T14:31:41.407+00:00</time>
      </trkpt>
      <trkpt lat="49.25195" lon="1.14012">
        <ele>117</ele>
        <time>2024-07-02T14:31:46.068+00:00</time>
      </trkpt>
      <trkpt lat="49.25189" lon="1.1401">
        <ele>117</ele>
        <time>2024-07-02T14:31:50.526+00:00</time>
      </trkpt>
      <trkpt lat="49.25183" lon="1.14009">
        <ele>117</ele>
        <time>2024-07-02T14:31:55.021+00:00</time>
      </trkpt>
      <trkpt lat="49.25175" lon="1.1401">
        <ele>114</ele>
        <time>2024-07-02T14:32:03.566+00:00</time>
      </trkpt>
      <trkpt lat="49.25175" lon="1.1401">
        <ele>114</ele>
        <time>2024-07-02T14:32:07.572+00:00</time>
      </trkpt>
      <trkpt lat="49.25173" lon="1.14008">
        <ele>114</ele>
        <time>2024-07-02T14:32:11.842+00:00</time>
      </trkpt>
      <trkpt lat="49.25169" lon="1.14009">
        <ele>114</ele>
        <time>2024-07-02T14:32:16.068+00:00</time>
      </trkpt>
      <trkpt lat="49.25164" lon="1.14011">
        <ele>114</ele>
        <time>2024-07-02T14:32:20.379+00:00</time>
      </trkpt>
      <trkpt lat="49.25161" lon="1.14014">
        <ele>117</ele>
        <time>2024-07-02T14:32:24.942+00:00</time>
      </trkpt>
      <trkpt lat="49.25156" lon="1.14017">
        <ele>117</ele>
        <time>2024-07-02T14:32:29.443+00:00</time>
      </trkpt>
      <trkpt lat="49.25152" lon="1.14018">
        <ele>111</ele>
        <time>2024-07-02T14:32:33.527+00:00</time>
      </trkpt>
      <trkpt lat="49.25148" lon="1.1402">
        <ele>111</ele>
        <time>2024-07-02T14:32:37.706+00:00</time>
      </trkpt>
      <trkpt lat="49.25144" lon="1.14026">
        <ele>111</ele>
        <time>2024-07-02T14:32:42.222+00:00</time>
      </trkpt>
      <trkpt lat="49.2514" lon="1.14031">
        <ele>111</ele>
        <time>2024-07-02T14:32:47.261+00:00</time>
      </trkpt>
      <trkpt lat="49.25135" lon="1.14035">
        <ele>111</ele>
        <time>2024-07-02T14:32:51.820+00:00</time>
      </trkpt>
      <trkpt lat="49.25131" lon="1.14039">
        <ele>111</ele>
        <time>2024-07-02T14:32:56.345+00:00</time>
      </trkpt>
      <trkpt lat="49.25127" lon="1.14043">
        <ele>115</ele>
        <time>2024-07-02T14:33:00.883+00:00</time>
      </trkpt>
      <trkpt lat="49.25123" lon="1.14046">
        <ele>107</ele>
        <time>2024-07-02T14:33:05.428+00:00</time>
      </trkpt>
      <trkpt lat="49.25119" lon="1.1405">
        <ele>107</ele>
        <time>2024-07-02T14:33:10.045+00:00</time>
      </trkpt>
      <trkpt lat="49.25117" lon="1.14052">
        <ele>107</ele>
        <time>2024-07-02T14:33:14.216+00:00</time>
      </trkpt>
      <trkpt lat="49.25118" lon="1.14052">
        <ele>107</ele>
        <time>2024-07-02T14:33:19.176+00:00</time>
      </trkpt>
      <trkpt lat="49.25117" lon="1.14052">
        <ele>107</ele>
        <time>2024-07-02T14:33:24.251+00:00</time>
      </trkpt>
      <trkpt lat="49.25112" lon="1.14057">
        <ele>107</ele>
        <time>2024-07-02T14:33:28.605+00:00</time>
      </trkpt>
      <trkpt lat="49.25109" lon="1.1406">
        <ele>107</ele>
        <time>2024-07-02T14:33:33.588+00:00</time>
      </trkpt>
      <trkpt lat="49.25109" lon="1.1406">
        <ele>107</ele>
        <time>2024-07-02T14:33:37.588+00:00</time>
      </trkpt>
      <trkpt lat="49.25108" lon="1.1406">
        <ele>107</ele>
        <time>2024-07-02T14:33:42.600+00:00</time>
      </trkpt>
      <trkpt lat="49.25107" lon="1.14061">
        <ele>107</ele>
        <time>2024-07-02T14:33:46.904+00:00</time>
      </trkpt>
      <trkpt lat="49.251" lon="1.14064">
        <ele>107</ele>
        <time>2024-07-02T14:33:51.581+00:00</time>
      </trkpt>
      <trkpt lat="49.25098" lon="1.14069">
        <ele>107</ele>
        <time>2024-07-02T14:33:55.567+00:00</time>
      </trkpt>
      <trkpt lat="49.25096" lon="1.14074">
        <ele>105</ele>
        <time>2024-07-02T14:33:59.896+00:00</time>
      </trkpt>
      <trkpt lat="49.2509" lon="1.14077">
        <ele>105</ele>
        <time>2024-07-02T14:34:04.383+00:00</time>
      </trkpt>
      <trkpt lat="49.25085" lon="1.14081">
        <ele>105</ele>
        <time>2024-07-02T14:34:09.599+00:00</time>
      </trkpt>
      <trkpt lat="49.25083" lon="1.14084">
        <ele>105</ele>
        <time>2024-07-02T14:34:14.145+00:00</time>
      </trkpt>
      <trkpt lat="49.2508" lon="1.14087">
        <ele>105</ele>
        <time>2024-07-02T14:34:18.591+00:00</time>
      </trkpt>
      <trkpt lat="49.25076" lon="1.14091">
        <ele>105</ele>
        <time>2024-07-02T14:34:22.679+00:00</time>
      </trkpt>
      <trkpt lat="49.25073" lon="1.14096">
        <ele>105</ele>
        <time>2024-07-02T14:34:27.183+00:00</time>
      </trkpt>
      <trkpt lat="49.2507" lon="1.14102">
        <ele>109</ele>
        <time>2024-07-02T14:34:31.590+00:00</time>
      </trkpt>
      <trkpt lat="49.25066" lon="1.14106">
        <ele>102</ele>
        <time>2024-07-02T14:34:35.602+00:00</time>
      </trkpt>
      <trkpt lat="49.25062" lon="1.1411">
        <ele>102</ele>
        <time>2024-07-02T14:34:39.668+00:00</time>
      </trkpt>
      <trkpt lat="49.25058" lon="1.14115">
        <ele>102</ele>
        <time>2024-07-02T14:34:44.242+00:00</time>
      </trkpt>
      <trkpt lat="49.25054" lon="1.14119">
        <ele>102</ele>
        <time>2024-07-02T14:34:48.508+00:00</time>
      </trkpt>
      <trkpt lat="49.25051" lon="1.14124">
        <ele>102</ele>
        <time>2024-07-02T14:34:53.007+00:00</time>
      </trkpt>
      <trkpt lat="49.25047" lon="1.14129">
        <ele>104</ele>
        <time>2024-07-02T14:34:57.515+00:00</time>
      </trkpt>
      <trkpt lat="49.25044" lon="1.14135">
        <ele>104</ele>
        <time>2024-07-02T14:35:02.028+00:00</time>
      </trkpt>
      <trkpt lat="49.25041" lon="1.1414">
        <ele>93</ele>
        <time>2024-07-02T14:35:06.612+00:00</time>
      </trkpt>
      <trkpt lat="49.25038" lon="1.14146">
        <ele>93</ele>
        <time>2024-07-02T14:35:11.147+00:00</time>
      </trkpt>
      <trkpt lat="49.25036" lon="1.14152">
        <ele>93</ele>
        <time>2024-07-02T14:35:15.595+00:00</time>
      </trkpt>
      <trkpt lat="49.25034" lon="1.14158">
        <ele>95</ele>
        <time>2024-07-02T14:35:19.639+00:00</time>
      </trkpt>
      <trkpt lat="49.25032" lon="1.14164">
        <ele>95</ele>
        <time>2024-07-02T14:35:24.161+00:00</time>
      </trkpt>
      <trkpt lat="49.25029" lon="1.1417">
        <ele>95</ele>
        <time>2024-07-02T14:35:28.601+00:00</time>
      </trkpt>
      <trkpt lat="49.25025" lon="1.14175">
        <ele>95</ele>
        <time>2024-07-02T14:35:33.168+00:00</time>
      </trkpt>
      <trkpt lat="49.25022" lon="1.14181">
        <ele>97</ele>
        <time>2024-07-02T14:35:37.585+00:00</time>
      </trkpt>
      <trkpt lat="49.2502" lon="1.14186">
        <ele>97</ele>
        <time>2024-07-02T14:35:41.780+00:00</time>
      </trkpt>
      <trkpt lat="49.2502" lon="1.14193">
        <ele>97</ele>
        <time>2024-07-02T14:35:45.840+00:00</time>
      </trkpt>
      <trkpt lat="49.25017" lon="1.14198">
        <ele>97</ele>
        <time>2024-07-02T14:35:50.388+00:00</time>
      </trkpt>
      <trkpt lat="49.25014" lon="1.14202">
        <ele>97</ele>
        <time>2024-07-02T14:35:54.838+00:00</time>
      </trkpt>
      <trkpt lat="49.25012" lon="1.14206">
        <ele>89</ele>
        <time>2024-07-02T14:35:59.185+00:00</time>
      </trkpt>
      <trkpt lat="49.25007" lon="1.14209">
        <ele>91</ele>
        <time>2024-07-02T14:36:03.568+00:00</time>
      </trkpt>
      <trkpt lat="49.25003" lon="1.1421">
        <ele>91</ele>
        <time>2024-07-02T14:36:07.578+00:00</time>
      </trkpt>
      <trkpt lat="49.24999" lon="1.1421">
        <ele>91</ele>
        <time>2024-07-02T14:36:12.058+00:00</time>
      </trkpt>
      <trkpt lat="49.24996" lon="1.14205">
        <ele>89</ele>
        <time>2024-07-02T14:36:16.596+00:00</time>
      </trkpt>
      <trkpt lat="49.24996" lon="1.14198">
        <ele>89</ele>
        <time>2024-07-02T14:36:21.082+00:00</time>
      </trkpt>
      <trkpt lat="49.24996" lon="1.14192">
        <ele>89</ele>
        <time>2024-07-02T14:36:25.245+00:00</time>
      </trkpt>
      <trkpt lat="49.24997" lon="1.14186">
        <ele>89</ele>
        <time>2024-07-02T14:36:29.589+00:00</time>
      </trkpt>
      <trkpt lat="49.24998" lon="1.14181">
        <ele>89</ele>
        <time>2024-07-02T14:36:33.588+00:00</time>
      </trkpt>
      <trkpt lat="49.25" lon="1.14175">
        <ele>87</ele>
        <time>2024-07-02T14:36:38.147+00:00</time>
      </trkpt>
      <trkpt lat="49.25" lon="1.14171">
        <ele>87</ele>
        <time>2024-07-02T14:36:42.586+00:00</time>
      </trkpt>
      <trkpt lat="49.25" lon="1.14166">
        <ele>87</ele>
        <time>2024-07-02T14:36:46.862+00:00</time>
      </trkpt>
      <trkpt lat="49.25001" lon="1.1416">
        <ele>87</ele>
        <time>2024-07-02T14:36:51.405+00:00</time>
      </trkpt>
      <trkpt lat="49.25001" lon="1.14152">
        <ele>84</ele>
        <time>2024-07-02T14:36:56.045+00:00</time>
      </trkpt>
      <trkpt lat="49.25002" lon="1.14145">
        <ele>84</ele>
        <time>2024-07-02T14:37:00.596+00:00</time>
      </trkpt>
      <trkpt lat="49.25002" lon="1.14137">
        <ele>84</ele>
        <time>2024-07-02T14:37:05.445+00:00</time>
      </trkpt>
      <trkpt lat="49.25003" lon="1.1413">
        <ele>84</ele>
        <time>2024-07-02T14:37:09.499+00:00</time>
      </trkpt>
      <trkpt lat="49.25005" lon="1.14125">
        <ele>82</ele>
        <time>2024-07-02T14:37:13.578+00:00</time>
      </trkpt>
      <trkpt lat="49.25006" lon="1.14118">
        <ele>82</ele>
        <time>2024-07-02T14:37:17.741+00:00</time>
      </trkpt>
      <trkpt lat="49.25007" lon="1.14111">
        <ele>82</ele>
        <time>2024-07-02T14:37:22.206+00:00</time>
      </trkpt>
      <trkpt lat="49.25008" lon="1.14105">
        <ele>82</ele>
        <time>2024-07-02T14:37:26.855+00:00</time>
      </trkpt>
      <trkpt lat="49.25008" lon="1.14098">
        <ele>82</ele>
        <time>2024-07-02T14:37:31.427+00:00</time>
      </trkpt>
      <trkpt lat="49.25008" lon="1.14091">
        <ele>80</ele>
        <time>2024-07-02T14:37:35.613+00:00</time>
      </trkpt>
      <trkpt lat="49.25007" lon="1.14085">
        <ele>80</ele>
        <time>2024-07-02T14:37:39.945+00:00</time>
      </trkpt>
      <trkpt lat="49.25008" lon="1.14079">
        <ele>80</ele>
        <time>2024-07-02T14:37:44.303+00:00</time>
      </trkpt>
      <trkpt lat="49.25008" lon="1.14072">
        <ele>80</ele>
        <time>2024-07-02T14:37:48.581+00:00</time>
      </trkpt>
      <trkpt lat="49.25009" lon="1.14066">
        <ele>77</ele>
        <time>2024-07-02T14:37:53.263+00:00</time>
      </trkpt>
      <trkpt lat="49.25009" lon="1.14058">
        <ele>77</ele>
        <time>2024-07-02T14:37:57.928+00:00</time>
      </trkpt>
      <trkpt lat="49.25009" lon="1.14049">
        <ele>77</ele>
        <time>2024-07-02T14:38:02.363+00:00</time>
      </trkpt>
      <trkpt lat="49.2501" lon="1.1404">
        <ele>72</ele>
        <time>2024-07-02T14:38:06.943+00:00</time>
      </trkpt>
      <trkpt lat="49.25011" lon="1.14032">
        <ele>72</ele>
        <time>2024-07-02T14:38:11.562+00:00</time>
      </trkpt>
      <trkpt lat="49.25012" lon="1.14024">
        <ele>72</ele>
        <time>2024-07-02T14:38:16.089+00:00</time>
      </trkpt>
      <trkpt lat="49.25013" lon="1.14017">
        <ele>72</ele>
        <time>2024-07-02T14:38:20.593+00:00</time>
      </trkpt>
      <trkpt lat="49.25014" lon="1.14011">
        <ele>67</ele>
        <time>2024-07-02T14:38:24.615+00:00</time>
      </trkpt>
      <trkpt lat="49.25014" lon="1.14005">
        <ele>75</ele>
        <time>2024-07-02T14:38:29.139+00:00</time>
      </trkpt>
      <trkpt lat="49.25017" lon="1.13997">
        <ele>75</ele>
        <time>2024-07-02T14:38:33.607+00:00</time>
      </trkpt>
      <trkpt lat="49.25019" lon="1.13991">
        <ele>75</ele>
        <time>2024-07-02T14:38:37.611+00:00</time>
      </trkpt>
      <trkpt lat="49.25019" lon="1.13986">
        <ele>71</ele>
        <time>2024-07-02T14:38:42.583+00:00</time>
      </trkpt>
      <trkpt lat="49.25019" lon="1.13986">
        <ele>75</ele>
        <time>2024-07-02T14:38:46.594+00:00</time>
      </trkpt>
      <trkpt lat="49.25019" lon="1.13984">
        <ele>71</ele>
        <time>2024-07-02T14:38:50.595+00:00</time>
      </trkpt>
      <trkpt lat="49.2502" lon="1.13977">
        <ele>71</ele>
        <time>2024-07-02T14:38:54.745+00:00</time>
      </trkpt>
      <trkpt lat="49.25023" lon="1.13969">
        <ele>71</ele>
        <time>2024-07-02T14:38:59.287+00:00</time>
      </trkpt>
      <trkpt lat="49.25026" lon="1.13961">
        <ele>71</ele>
        <time>2024-07-02T14:39:03.761+00:00</time>
      </trkpt>
      <trkpt lat="49.25027" lon="1.13954">
        <ele>70</ele>
        <time>2024-07-02T14:39:07.804+00:00</time>
      </trkpt>
      <trkpt lat="49.25026" lon="1.13946">
        <ele>70</ele>
        <time>2024-07-02T14:39:12.169+00:00</time>
      </trkpt>
      <trkpt lat="49.25023" lon="1.1394">
        <ele>70</ele>
        <time>2024-07-02T14:39:16.580+00:00</time>
      </trkpt>
      <trkpt lat="49.25014" lon="1.13929">
        <ele>70</ele>
        <time>2024-07-02T14:39:41.596+00:00</time>
      </trkpt>
      <trkpt lat="49.25014" lon="1.13928">
        <ele>69</ele>
        <time>2024-07-02T14:39:46.603+00:00</time>
      </trkpt>
      <trkpt lat="49.25013" lon="1.13926">
        <ele>69</ele>
        <time>2024-07-02T14:39:51.596+00:00</time>
      </trkpt>
      <trkpt lat="49.25013" lon="1.13925">
        <ele>69</ele>
        <time>2024-07-02T14:39:56.600+00:00</time>
      </trkpt>
      <trkpt lat="49.25013" lon="1.13925">
        <ele>69</ele>
        <time>2024-07-02T14:40:00.841+00:00</time>
      </trkpt>
      <trkpt lat="49.25015" lon="1.13918">
        <ele>70</ele>
        <time>2024-07-02T14:40:05.003+00:00</time>
      </trkpt>
      <trkpt lat="49.25019" lon="1.13914">
        <ele>70</ele>
        <time>2024-07-02T14:40:09.516+00:00</time>
      </trkpt>
      <trkpt lat="49.25022" lon="1.1391">
        <ele>70</ele>
        <time>2024-07-02T14:40:13.602+00:00</time>
      </trkpt>
      <trkpt lat="49.25026" lon="1.13906">
        <ele>70</ele>
        <time>2024-07-02T14:40:18.178+00:00</time>
      </trkpt>
      <trkpt lat="49.25027" lon="1.13904">
        <ele>70</ele>
        <time>2024-07-02T14:40:22.590+00:00</time>
      </trkpt>
      <trkpt lat="49.25026" lon="1.139">
        <ele>71</ele>
        <time>2024-07-02T14:40:27.595+00:00</time>
      </trkpt>
      <trkpt lat="49.25027" lon="1.13895">
        <ele>71</ele>
        <time>2024-07-02T14:40:32.307+00:00</time>
      </trkpt>
      <trkpt lat="49.25029" lon="1.13887">
        <ele>71</ele>
        <time>2024-07-02T14:40:36.306+00:00</time>
      </trkpt>
      <trkpt lat="49.25031" lon="1.13881">
        <ele>71</ele>
        <time>2024-07-02T14:40:40.926+00:00</time>
      </trkpt>
      <trkpt lat="49.25033" lon="1.13875">
        <ele>71</ele>
        <time>2024-07-02T14:40:45.109+00:00</time>
      </trkpt>
      <trkpt lat="49.25035" lon="1.13869">
        <ele>71</ele>
        <time>2024-07-02T14:40:49.304+00:00</time>
      </trkpt>
      <trkpt lat="49.25036" lon="1.13862">
        <ele>71</ele>
        <time>2024-07-02T14:40:53.983+00:00</time>
      </trkpt>
      <trkpt lat="49.25035" lon="1.13861">
        <ele>71</ele>
        <time>2024-07-02T14:40:58.583+00:00</time>
      </trkpt>
      <trkpt lat="49.25037" lon="1.13858">
        <ele>71</ele>
        <time>2024-07-02T14:41:02.598+00:00</time>
      </trkpt>
      <trkpt lat="49.2504" lon="1.13851">
        <ele>71</ele>
        <time>2024-07-02T14:41:06.739+00:00</time>
      </trkpt>
      <trkpt lat="49.2504" lon="1.13843">
        <ele>70</ele>
        <time>2024-07-02T14:41:10.883+00:00</time>
      </trkpt>
      <trkpt lat="49.25041" lon="1.13837">
        <ele>70</ele>
        <time>2024-07-02T14:41:15.024+00:00</time>
      </trkpt>
      <trkpt lat="49.25043" lon="1.1383">
        <ele>70</ele>
        <time>2024-07-02T14:41:19.148+00:00</time>
      </trkpt>
      <trkpt lat="49.25044" lon="1.13824">
        <ele>70</ele>
        <time>2024-07-02T14:41:23.248+00:00</time>
      </trkpt>
      <trkpt lat="49.25044" lon="1.13817">
        <ele>71</ele>
        <time>2024-07-02T14:41:27.307+00:00</time>
      </trkpt>
      <trkpt lat="49.25044" lon="1.1381">
        <ele>71</ele>
        <time>2024-07-02T14:41:31.597+00:00</time>
      </trkpt>
      <trkpt lat="49.25044" lon="1.13801">
        <ele>71</ele>
        <time>2024-07-02T14:41:36.306+00:00</time>
      </trkpt>
      <trkpt lat="49.25045" lon="1.13796">
        <ele>71</ele>
        <time>2024-07-02T14:41:40.590+00:00</time>
      </trkpt>
      <trkpt lat="49.25045" lon="1.1379">
        <ele>73</ele>
        <time>2024-07-02T14:41:44.887+00:00</time>
      </trkpt>
      <trkpt lat="49.25045" lon="1.13783">
        <ele>73</ele>
        <time>2024-07-02T14:41:49.140+00:00</time>
      </trkpt>
      <trkpt lat="49.25045" lon="1.13777">
        <ele>73</ele>
        <time>2024-07-02T14:41:53.344+00:00</time>
      </trkpt>
      <trkpt lat="49.25046" lon="1.1377">
        <ele>73</ele>
        <time>2024-07-02T14:41:57.606+00:00</time>
      </trkpt>
      <trkpt lat="49.25045" lon="1.13761">
        <ele>76</ele>
        <time>2024-07-02T14:42:02.182+00:00</time>
      </trkpt>
      <trkpt lat="49.25043" lon="1.13753">
        <ele>76</ele>
        <time>2024-07-02T14:42:06.346+00:00</time>
      </trkpt>
      <trkpt lat="49.25043" lon="1.13745">
        <ele>76</ele>
        <time>2024-07-02T14:42:10.586+00:00</time>
      </trkpt>
      <trkpt lat="49.25043" lon="1.13736">
        <ele>76</ele>
        <time>2024-07-02T14:42:14.908+00:00</time>
      </trkpt>
      <trkpt lat="49.25041" lon="1.1373">
        <ele>76</ele>
        <time>2024-07-02T14:42:19.148+00:00</time>
      </trkpt>
      <trkpt lat="49.25039" lon="1.13723">
        <ele>76</ele>
        <time>2024-07-02T14:42:23.321+00:00</time>
      </trkpt>
      <trkpt lat="49.25038" lon="1.13716">
        <ele>76</ele>
        <time>2024-07-02T14:42:27.601+00:00</time>
      </trkpt>
      <trkpt lat="49.25036" lon="1.13707">
        <ele>77</ele>
        <time>2024-07-02T14:42:31.822+00:00</time>
      </trkpt>
      <trkpt lat="49.25034" lon="1.13699">
        <ele>77</ele>
        <time>2024-07-02T14:42:35.966+00:00</time>
      </trkpt>
      <trkpt lat="49.25032" lon="1.13691">
        <ele>77</ele>
        <time>2024-07-02T14:42:40.143+00:00</time>
      </trkpt>
      <trkpt lat="49.2503" lon="1.13684">
        <ele>77</ele>
        <time>2024-07-02T14:42:44.230+00:00</time>
      </trkpt>
      <trkpt lat="49.25027" lon="1.13677">
        <ele>78</ele>
        <time>2024-07-02T14:42:48.347+00:00</time>
      </trkpt>
      <trkpt lat="49.25025" lon="1.13672">
        <ele>78</ele>
        <time>2024-07-02T14:42:52.505+00:00</time>
      </trkpt>
      <trkpt lat="49.25022" lon="1.13666">
        <ele>78</ele>
        <time>2024-07-02T14:42:56.586+00:00</time>
      </trkpt>
      <trkpt lat="49.25019" lon="1.13661">
        <ele>78</ele>
        <time>2024-07-02T14:43:01.008+00:00</time>
      </trkpt>
      <trkpt lat="49.25016" lon="1.13655">
        <ele>78</ele>
        <time>2024-07-02T14:43:05.286+00:00</time>
      </trkpt>
      <trkpt lat="49.25014" lon="1.13648">
        <ele>77</ele>
        <time>2024-07-02T14:43:09.508+00:00</time>
      </trkpt>
      <trkpt lat="49.25011" lon="1.13643">
        <ele>77</ele>
        <time>2024-07-02T14:43:13.607+00:00</time>
      </trkpt>
      <trkpt lat="49.25007" lon="1.13637">
        <ele>77</ele>
        <time>2024-07-02T14:43:17.926+00:00</time>
      </trkpt>
      <trkpt lat="49.25003" lon="1.13629">
        <ele>77</ele>
        <time>2024-07-02T14:43:22.065+00:00</time>
      </trkpt>
      <trkpt lat="49.25" lon="1.13622">
        <ele>79</ele>
        <time>2024-07-02T14:43:26.308+00:00</time>
      </trkpt>
      <trkpt lat="49.24997" lon="1.13615">
        <ele>79</ele>
        <time>2024-07-02T14:43:30.518+00:00</time>
      </trkpt>
      <trkpt lat="49.24994" lon="1.1361">
        <ele>79</ele>
        <time>2024-07-02T14:43:34.587+00:00</time>
      </trkpt>
      <trkpt lat="49.2499" lon="1.13604">
        <ele>79</ele>
        <time>2024-07-02T14:43:39.516+00:00</time>
      </trkpt>
      <trkpt lat="49.24986" lon="1.13597">
        <ele>82</ele>
        <time>2024-07-02T14:43:43.592+00:00</time>
      </trkpt>
      <trkpt lat="49.24982" lon="1.13591">
        <ele>80</ele>
        <time>2024-07-02T14:43:47.818+00:00</time>
      </trkpt>
      <trkpt lat="49.24979" lon="1.13584">
        <ele>80</ele>
        <time>2024-07-02T14:43:51.964+00:00</time>
      </trkpt>
      <trkpt lat="49.24976" lon="1.13578">
        <ele>80</ele>
        <time>2024-07-02T14:43:56.144+00:00</time>
      </trkpt>
      <trkpt lat="49.24973" lon="1.13572">
        <ele>80</ele>
        <time>2024-07-02T14:44:00.595+00:00</time>
      </trkpt>
      <trkpt lat="49.24969" lon="1.13566">
        <ele>83</ele>
        <time>2024-07-02T14:44:04.908+00:00</time>
      </trkpt>
      <trkpt lat="49.24966" lon="1.13562">
        <ele>83</ele>
        <time>2024-07-02T14:44:09.123+00:00</time>
      </trkpt>
      <trkpt lat="49.24962" lon="1.13558">
        <ele>83</ele>
        <time>2024-07-02T14:44:13.325+00:00</time>
      </trkpt>
      <trkpt lat="49.24959" lon="1.13553">
        <ele>83</ele>
        <time>2024-07-02T14:44:17.596+00:00</time>
      </trkpt>
      <trkpt lat="49.24955" lon="1.13549">
        <ele>79</ele>
        <time>2024-07-02T14:44:21.720+00:00</time>
      </trkpt>
      <trkpt lat="49.24951" lon="1.13545">
        <ele>79</ele>
        <time>2024-07-02T14:44:25.846+00:00</time>
      </trkpt>
      <trkpt lat="49.24948" lon="1.1354">
        <ele>81</ele>
        <time>2024-07-02T14:44:29.987+00:00</time>
      </trkpt>
      <trkpt lat="49.24946" lon="1.13534">
        <ele>81</ele>
        <time>2024-07-02T14:44:34.083+00:00</time>
      </trkpt>
      <trkpt lat="49.24947" lon="1.13528">
        <ele>81</ele>
        <time>2024-07-02T14:44:51.605+00:00</time>
      </trkpt>
      <trkpt lat="49.24946" lon="1.13527">
        <ele>81</ele>
        <time>2024-07-02T14:44:56.577+00:00</time>
      </trkpt>
      <trkpt lat="49.24945" lon="1.13524">
        <ele>81</ele>
        <time>2024-07-02T14:45:00.591+00:00</time>
      </trkpt>
      <trkpt lat="49.24942" lon="1.13523">
        <ele>81</ele>
        <time>2024-07-02T14:45:05.441+00:00</time>
      </trkpt>
      <trkpt lat="49.24938" lon="1.13514">
        <ele>81</ele>
        <time>2024-07-02T14:45:09.802+00:00</time>
      </trkpt>
      <trkpt lat="49.24935" lon="1.13509">
        <ele>82</ele>
        <time>2024-07-02T14:45:13.997+00:00</time>
      </trkpt>
      <trkpt lat="49.24931" lon="1.13505">
        <ele>82</ele>
        <time>2024-07-02T14:45:18.278+00:00</time>
      </trkpt>
      <trkpt lat="49.24928" lon="1.135">
        <ele>79</ele>
        <time>2024-07-02T14:45:22.591+00:00</time>
      </trkpt>
      <trkpt lat="49.24926" lon="1.13494">
        <ele>79</ele>
        <time>2024-07-02T14:45:26.929+00:00</time>
      </trkpt>
      <trkpt lat="49.24924" lon="1.13486">
        <ele>80</ele>
        <time>2024-07-02T14:45:31.161+00:00</time>
      </trkpt>
      <trkpt lat="49.24922" lon="1.13478">
        <ele>80</ele>
        <time>2024-07-02T14:45:35.513+00:00</time>
      </trkpt>
      <trkpt lat="49.24921" lon="1.13472">
        <ele>80</ele>
        <time>2024-07-02T14:45:39.829+00:00</time>
      </trkpt>
      <trkpt lat="49.24918" lon="1.13467">
        <ele>80</ele>
        <time>2024-07-02T14:45:44.021+00:00</time>
      </trkpt>
      <trkpt lat="49.24915" lon="1.13463">
        <ele>80</ele>
        <time>2024-07-02T14:45:48.363+00:00</time>
      </trkpt>
      <trkpt lat="49.24913" lon="1.13458">
        <ele>82</ele>
        <time>2024-07-02T14:45:52.502+00:00</time>
      </trkpt>
      <trkpt lat="49.24911" lon="1.13452">
        <ele>82</ele>
        <time>2024-07-02T14:45:56.880+00:00</time>
      </trkpt>
      <trkpt lat="49.24909" lon="1.13446">
        <ele>82</ele>
        <time>2024-07-02T14:46:01.383+00:00</time>
      </trkpt>
      <trkpt lat="49.24907" lon="1.13441">
        <ele>82</ele>
        <time>2024-07-02T14:46:05.838+00:00</time>
      </trkpt>
      <trkpt lat="49.24904" lon="1.13436">
        <ele>82</ele>
        <time>2024-07-02T14:46:10.184+00:00</time>
      </trkpt>
      <trkpt lat="49.24902" lon="1.13431">
        <ele>79</ele>
        <time>2024-07-02T14:46:14.580+00:00</time>
      </trkpt>
      <trkpt lat="49.24899" lon="1.13425">
        <ele>79</ele>
        <time>2024-07-02T14:46:19.083+00:00</time>
      </trkpt>
      <trkpt lat="49.24897" lon="1.13419">
        <ele>79</ele>
        <time>2024-07-02T14:46:23.592+00:00</time>
      </trkpt>
      <trkpt lat="49.24895" lon="1.13413">
        <ele>79</ele>
        <time>2024-07-02T14:46:27.985+00:00</time>
      </trkpt>
      <trkpt lat="49.24893" lon="1.13408">
        <ele>79</ele>
        <time>2024-07-02T14:46:32.519+00:00</time>
      </trkpt>
      <trkpt lat="49.24891" lon="1.13404">
        <ele>79</ele>
        <time>2024-07-02T14:46:36.927+00:00</time>
      </trkpt>
      <trkpt lat="49.24889" lon="1.13398">
        <ele>80</ele>
        <time>2024-07-02T14:46:41.102+00:00</time>
      </trkpt>
      <trkpt lat="49.24886" lon="1.13393">
        <ele>80</ele>
        <time>2024-07-02T14:46:45.407+00:00</time>
      </trkpt>
      <trkpt lat="49.24884" lon="1.13387">
        <ele>80</ele>
        <time>2024-07-02T14:46:49.579+00:00</time>
      </trkpt>
      <trkpt lat="49.24883" lon="1.13381">
        <ele>80</ele>
        <time>2024-07-02T14:46:53.967+00:00</time>
      </trkpt>
      <trkpt lat="49.24882" lon="1.13375">
        <ele>80</ele>
        <time>2024-07-02T14:46:58.262+00:00</time>
      </trkpt>
      <trkpt lat="49.24881" lon="1.13368">
        <ele>80</ele>
        <time>2024-07-02T14:47:02.519+00:00</time>
      </trkpt>
      <trkpt lat="49.24881" lon="1.1336">
        <ele>80</ele>
        <time>2024-07-02T14:47:06.910+00:00</time>
      </trkpt>
      <trkpt lat="49.2488" lon="1.13352">
        <ele>80</ele>
        <time>2024-07-02T14:47:11.359+00:00</time>
      </trkpt>
      <trkpt lat="49.24879" lon="1.13344">
        <ele>78</ele>
        <time>2024-07-02T14:47:15.864+00:00</time>
      </trkpt>
      <trkpt lat="49.24879" lon="1.13336">
        <ele>78</ele>
        <time>2024-07-02T14:47:20.339+00:00</time>
      </trkpt>
      <trkpt lat="49.24879" lon="1.13331">
        <ele>78</ele>
        <time>2024-07-02T14:47:24.841+00:00</time>
      </trkpt>
      <trkpt lat="49.2488" lon="1.13324">
        <ele>78</ele>
        <time>2024-07-02T14:47:29.603+00:00</time>
      </trkpt>
      <trkpt lat="49.2488" lon="1.13316">
        <ele>79</ele>
        <time>2024-07-02T14:47:34.265+00:00</time>
      </trkpt>
      <trkpt lat="49.24879" lon="1.1331">
        <ele>79</ele>
        <time>2024-07-02T14:47:38.797+00:00</time>
      </trkpt>
      <trkpt lat="49.24879" lon="1.13303">
        <ele>79</ele>
        <time>2024-07-02T14:47:43.304+00:00</time>
      </trkpt>
      <trkpt lat="49.24881" lon="1.13294">
        <ele>79</ele>
        <time>2024-07-02T14:47:47.819+00:00</time>
      </trkpt>
      <trkpt lat="49.24882" lon="1.13286">
        <ele>78</ele>
        <time>2024-07-02T14:47:52.525+00:00</time>
      </trkpt>
      <trkpt lat="49.24882" lon="1.1328">
        <ele>78</ele>
        <time>2024-07-02T14:47:56.587+00:00</time>
      </trkpt>
      <trkpt lat="49.24883" lon="1.13274">
        <ele>78</ele>
        <time>2024-07-02T14:48:00.589+00:00</time>
      </trkpt>
      <trkpt lat="49.24885" lon="1.13267">
        <ele>78</ele>
        <time>2024-07-02T14:48:05.323+00:00</time>
      </trkpt>
      <trkpt lat="49.24887" lon="1.13261">
        <ele>78</ele>
        <time>2024-07-02T14:48:09.598+00:00</time>
      </trkpt>
      <trkpt lat="49.24888" lon="1.13255">
        <ele>78</ele>
        <time>2024-07-02T14:48:13.588+00:00</time>
      </trkpt>
      <trkpt lat="49.24889" lon="1.13247">
        <ele>78</ele>
        <time>2024-07-02T14:48:18.249+00:00</time>
      </trkpt>
      <trkpt lat="49.24889" lon="1.13241">
        <ele>78</ele>
        <time>2024-07-02T14:48:22.842+00:00</time>
      </trkpt>
      <trkpt lat="49.24891" lon="1.13231">
        <ele>79</ele>
        <time>2024-07-02T14:48:35.601+00:00</time>
      </trkpt>
      <trkpt lat="49.2489" lon="1.13231">
        <ele>79</ele>
        <time>2024-07-02T14:48:40.607+00:00</time>
      </trkpt>
      <trkpt lat="49.24889" lon="1.13229">
        <ele>79</ele>
        <time>2024-07-02T14:48:45.607+00:00</time>
      </trkpt>
      <trkpt lat="49.24888" lon="1.13227">
        <ele>79</ele>
        <time>2024-07-02T14:48:50.561+00:00</time>
      </trkpt>
      <trkpt lat="49.24887" lon="1.13222">
        <ele>79</ele>
        <time>2024-07-02T14:48:54.569+00:00</time>
      </trkpt>
      <trkpt lat="49.24887" lon="1.13215">
        <ele>79</ele>
        <time>2024-07-02T14:49:16.595+00:00</time>
      </trkpt>
      <trkpt lat="49.24888" lon="1.13211">
        <ele>79</ele>
        <time>2024-07-02T14:49:21.591+00:00</time>
      </trkpt>
      <trkpt lat="49.24888" lon="1.1321">
        <ele>79</ele>
        <time>2024-07-02T14:49:26.580+00:00</time>
      </trkpt>
      <trkpt lat="49.24887" lon="1.13209">
        <ele>79</ele>
        <time>2024-07-02T14:49:30.580+00:00</time>
      </trkpt>
      <trkpt lat="49.24888" lon="1.13207">
        <ele>80</ele>
        <time>2024-07-02T14:49:36.580+00:00</time>
      </trkpt>
      <trkpt lat="49.24889" lon="1.1321">
        <ele>79</ele>
        <time>2024-07-02T14:49:40.910+00:00</time>
      </trkpt>
      <trkpt lat="49.24892" lon="1.13209">
        <ele>79</ele>
        <time>2024-07-02T14:49:45.507+00:00</time>
      </trkpt>
      <trkpt lat="49.24894" lon="1.13209">
        <ele>79</ele>
        <time>2024-07-02T14:49:49.585+00:00</time>
      </trkpt>
      <trkpt lat="49.24898" lon="1.13212">
        <ele>79</ele>
        <time>2024-07-02T14:49:53.783+00:00</time>
      </trkpt>
      <trkpt lat="49.24893" lon="1.13185">
        <ele>80</ele>
        <time>2024-07-02T14:49:57.948+00:00</time>
      </trkpt>
      <trkpt lat="49.24895" lon="1.13178">
        <ele>82</ele>
        <time>2024-07-02T14:50:02.525+00:00</time>
      </trkpt>
      <trkpt lat="49.24897" lon="1.13172">
        <ele>82</ele>
        <time>2024-07-02T14:50:07.061+00:00</time>
      </trkpt>
      <trkpt lat="49.24899" lon="1.13167">
        <ele>82</ele>
        <time>2024-07-02T14:50:11.577+00:00</time>
      </trkpt>
      <trkpt lat="49.24901" lon="1.13163">
        <ele>82</ele>
        <time>2024-07-02T14:50:15.596+00:00</time>
      </trkpt>
      <trkpt lat="49.24901" lon="1.13164">
        <ele>82</ele>
        <time>2024-07-02T14:50:20.348+00:00</time>
      </trkpt>
      <trkpt lat="49.24905" lon="1.13161">
        <ele>81</ele>
        <time>2024-07-02T14:50:24.574+00:00</time>
      </trkpt>
      <trkpt lat="49.24907" lon="1.13158">
        <ele>81</ele>
        <time>2024-07-02T14:50:28.569+00:00</time>
      </trkpt>
      <trkpt lat="49.2491" lon="1.13151">
        <ele>81</ele>
        <time>2024-07-02T14:50:33.066+00:00</time>
      </trkpt>
      <trkpt lat="49.24912" lon="1.13147">
        <ele>81</ele>
        <time>2024-07-02T14:50:37.543+00:00</time>
      </trkpt>
      <trkpt lat="49.24914" lon="1.13143">
        <ele>81</ele>
        <time>2024-07-02T14:50:42.141+00:00</time>
      </trkpt>
      <trkpt lat="49.24917" lon="1.13138">
        <ele>81</ele>
        <time>2024-07-02T14:50:46.588+00:00</time>
      </trkpt>
      <trkpt lat="49.24921" lon="1.13133">
        <ele>81</ele>
        <time>2024-07-02T14:50:51.144+00:00</time>
      </trkpt>
      <trkpt lat="49.24924" lon="1.13128">
        <ele>81</ele>
        <time>2024-07-02T14:50:55.586+00:00</time>
      </trkpt>
      <trkpt lat="49.24927" lon="1.13122">
        <ele>82</ele>
        <time>2024-07-02T14:50:59.941+00:00</time>
      </trkpt>
      <trkpt lat="49.24929" lon="1.13117">
        <ele>82</ele>
        <time>2024-07-02T14:51:04.516+00:00</time>
      </trkpt>
      <trkpt lat="49.24933" lon="1.13112">
        <ele>79</ele>
        <time>2024-07-02T14:51:08.926+00:00</time>
      </trkpt>
      <trkpt lat="49.24937" lon="1.13108">
        <ele>79</ele>
        <time>2024-07-02T14:51:13.242+00:00</time>
      </trkpt>
      <trkpt lat="49.24941" lon="1.13104">
        <ele>79</ele>
        <time>2024-07-02T14:51:17.600+00:00</time>
      </trkpt>
      <trkpt lat="49.24944" lon="1.13098">
        <ele>79</ele>
        <time>2024-07-02T14:51:22.590+00:00</time>
      </trkpt>
      <trkpt lat="49.24946" lon="1.13093">
        <ele>79</ele>
        <time>2024-07-02T14:51:27.040+00:00</time>
      </trkpt>
      <trkpt lat="49.2495" lon="1.13089">
        <ele>79</ele>
        <time>2024-07-02T14:51:31.466+00:00</time>
      </trkpt>
      <trkpt lat="49.24954" lon="1.13085">
        <ele>79</ele>
        <time>2024-07-02T14:51:35.924+00:00</time>
      </trkpt>
      <trkpt lat="49.24957" lon="1.13081">
        <ele>79</ele>
        <time>2024-07-02T14:51:40.172+00:00</time>
      </trkpt>
      <trkpt lat="49.2496" lon="1.13076">
        <ele>80</ele>
        <time>2024-07-02T14:51:44.558+00:00</time>
      </trkpt>
      <trkpt lat="49.24963" lon="1.1307">
        <ele>80</ele>
        <time>2024-07-02T14:51:48.863+00:00</time>
      </trkpt>
      <trkpt lat="49.24966" lon="1.13065">
        <ele>79</ele>
        <time>2024-07-02T14:51:53.230+00:00</time>
      </trkpt>
      <trkpt lat="49.2497" lon="1.1306">
        <ele>79</ele>
        <time>2024-07-02T14:51:57.595+00:00</time>
      </trkpt>
      <trkpt lat="49.24974" lon="1.13054">
        <ele>79</ele>
        <time>2024-07-02T14:52:01.947+00:00</time>
      </trkpt>
      <trkpt lat="49.24977" lon="1.13049">
        <ele>79</ele>
        <time>2024-07-02T14:52:06.530+00:00</time>
      </trkpt>
      <trkpt lat="49.2498" lon="1.13044">
        <ele>79</ele>
        <time>2024-07-02T14:52:11.081+00:00</time>
      </trkpt>
      <trkpt lat="49.24983" lon="1.13039">
        <ele>81</ele>
        <time>2024-07-02T14:52:15.588+00:00</time>
      </trkpt>
      <trkpt lat="49.24987" lon="1.13036">
        <ele>83</ele>
        <time>2024-07-02T14:52:20.207+00:00</time>
      </trkpt>
      <trkpt lat="49.2499" lon="1.13033">
        <ele>83</ele>
        <time>2024-07-02T14:52:24.596+00:00</time>
      </trkpt>
      <trkpt lat="49.24994" lon="1.13031">
        <ele>83</ele>
        <time>2024-07-02T14:52:29.109+00:00</time>
      </trkpt>
      <trkpt lat="49.24997" lon="1.13028">
        <ele>83</ele>
        <time>2024-07-02T14:52:33.521+00:00</time>
      </trkpt>
      <trkpt lat="49.25001" lon="1.13025">
        <ele>83</ele>
        <time>2024-07-02T14:52:37.984+00:00</time>
      </trkpt>
      <trkpt lat="49.25005" lon="1.13021">
        <ele>83</ele>
        <time>2024-07-02T14:52:42.571+00:00</time>
      </trkpt>
      <trkpt lat="49.25009" lon="1.13017">
        <ele>83</ele>
        <time>2024-07-02T14:52:47.058+00:00</time>
      </trkpt>
      <trkpt lat="49.25013" lon="1.13012">
        <ele>86</ele>
        <time>2024-07-02T14:52:51.504+00:00</time>
      </trkpt>
      <trkpt lat="49.25017" lon="1.1301">
        <ele>88</ele>
        <time>2024-07-02T14:52:55.784+00:00</time>
      </trkpt>
      <trkpt lat="49.25022" lon="1.13007">
        <ele>88</ele>
        <time>2024-07-02T14:53:00.160+00:00</time>
      </trkpt>
      <trkpt lat="49.25025" lon="1.13003">
        <ele>88</ele>
        <time>2024-07-02T14:53:04.507+00:00</time>
      </trkpt>
      <trkpt lat="49.25029" lon="1.12998">
        <ele>88</ele>
        <time>2024-07-02T14:53:08.904+00:00</time>
      </trkpt>
      <trkpt lat="49.25032" lon="1.12991">
        <ele>88</ele>
        <time>2024-07-02T14:53:12.942+00:00</time>
      </trkpt>
      <trkpt lat="49.25035" lon="1.12983">
        <ele>88</ele>
        <time>2024-07-02T14:53:17.229+00:00</time>
      </trkpt>
      <trkpt lat="49.25038" lon="1.12977">
        <ele>88</ele>
        <time>2024-07-02T14:53:21.567+00:00</time>
      </trkpt>
      <trkpt lat="49.25041" lon="1.12971">
        <ele>88</ele>
        <time>2024-07-02T14:53:25.900+00:00</time>
      </trkpt>
      <trkpt lat="49.25044" lon="1.12966">
        <ele>90</ele>
        <time>2024-07-02T14:53:30.329+00:00</time>
      </trkpt>
      <trkpt lat="49.25045" lon="1.12962">
        <ele>90</ele>
        <time>2024-07-02T14:53:34.604+00:00</time>
      </trkpt>
      <trkpt lat="49.25047" lon="1.12955">
        <ele>88</ele>
        <time>2024-07-02T14:53:39.088+00:00</time>
      </trkpt>
      <trkpt lat="49.25049" lon="1.1295">
        <ele>88</ele>
        <time>2024-07-02T14:53:43.358+00:00</time>
      </trkpt>
      <trkpt lat="49.2505" lon="1.12944">
        <ele>88</ele>
        <time>2024-07-02T14:53:47.594+00:00</time>
      </trkpt>
      <trkpt lat="49.25052" lon="1.12935">
        <ele>88</ele>
        <time>2024-07-02T14:53:52.088+00:00</time>
      </trkpt>
      <trkpt lat="49.25053" lon="1.12927">
        <ele>88</ele>
        <time>2024-07-02T14:53:56.364+00:00</time>
      </trkpt>
      <trkpt lat="49.25053" lon="1.1292">
        <ele>88</ele>
        <time>2024-07-02T14:54:00.599+00:00</time>
      </trkpt>
      <trkpt lat="49.25052" lon="1.12913">
        <ele>88</ele>
        <time>2024-07-02T14:54:04.902+00:00</time>
      </trkpt>
      <trkpt lat="49.25051" lon="1.12906">
        <ele>88</ele>
        <time>2024-07-02T14:54:09.329+00:00</time>
      </trkpt>
      <trkpt lat="49.25052" lon="1.129">
        <ele>88</ele>
        <time>2024-07-02T14:54:13.584+00:00</time>
      </trkpt>
      <trkpt lat="49.25054" lon="1.12894">
        <ele>88</ele>
        <time>2024-07-02T14:54:18.111+00:00</time>
      </trkpt>
      <trkpt lat="49.25055" lon="1.12887">
        <ele>88</ele>
        <time>2024-07-02T14:54:22.586+00:00</time>
      </trkpt>
      <trkpt lat="49.25055" lon="1.1288">
        <ele>88</ele>
        <time>2024-07-02T14:54:27.101+00:00</time>
      </trkpt>
      <trkpt lat="49.25057" lon="1.12873">
        <ele>88</ele>
        <time>2024-07-02T14:54:31.584+00:00</time>
      </trkpt>
      <trkpt lat="49.25057" lon="1.12866">
        <ele>88</ele>
        <time>2024-07-02T14:54:35.988+00:00</time>
      </trkpt>
      <trkpt lat="49.25058" lon="1.1286">
        <ele>88</ele>
        <time>2024-07-02T14:54:40.301+00:00</time>
      </trkpt>
      <trkpt lat="49.25057" lon="1.12854">
        <ele>88</ele>
        <time>2024-07-02T14:54:44.601+00:00</time>
      </trkpt>
      <trkpt lat="49.25056" lon="1.12847">
        <ele>88</ele>
        <time>2024-07-02T14:54:49.038+00:00</time>
      </trkpt>
      <trkpt lat="49.25057" lon="1.12841">
        <ele>88</ele>
        <time>2024-07-02T14:54:53.324+00:00</time>
      </trkpt>
      <trkpt lat="49.25057" lon="1.12834">
        <ele>88</ele>
        <time>2024-07-02T14:54:57.622+00:00</time>
      </trkpt>
      <trkpt lat="49.25058" lon="1.12827">
        <ele>88</ele>
        <time>2024-07-02T14:55:01.940+00:00</time>
      </trkpt>
      <trkpt lat="49.25057" lon="1.12817">
        <ele>88</ele>
        <time>2024-07-02T14:55:06.218+00:00</time>
      </trkpt>
      <trkpt lat="49.25055" lon="1.12806">
        <ele>88</ele>
        <time>2024-07-02T14:55:10.558+00:00</time>
      </trkpt>
      <trkpt lat="49.25052" lon="1.12798">
        <ele>88</ele>
        <time>2024-07-02T14:55:14.767+00:00</time>
      </trkpt>
      <trkpt lat="49.25052" lon="1.12788">
        <ele>89</ele>
        <time>2024-07-02T14:55:19.120+00:00</time>
      </trkpt>
      <trkpt lat="49.25053" lon="1.12779">
        <ele>89</ele>
        <time>2024-07-02T14:55:23.548+00:00</time>
      </trkpt>
      <trkpt lat="49.25055" lon="1.12772">
        <ele>89</ele>
        <time>2024-07-02T14:55:27.965+00:00</time>
      </trkpt>
      <trkpt lat="49.25055" lon="1.12766">
        <ele>89</ele>
        <time>2024-07-02T14:55:32.324+00:00</time>
      </trkpt>
      <trkpt lat="49.25056" lon="1.12759">
        <ele>90</ele>
        <time>2024-07-02T14:55:36.603+00:00</time>
      </trkpt>
      <trkpt lat="49.25058" lon="1.12754">
        <ele>90</ele>
        <time>2024-07-02T14:55:41.142+00:00</time>
      </trkpt>
      <trkpt lat="49.2506" lon="1.12748">
        <ele>90</ele>
        <time>2024-07-02T14:55:45.542+00:00</time>
      </trkpt>
      <trkpt lat="49.25059" lon="1.12742">
        <ele>90</ele>
        <time>2024-07-02T14:55:49.571+00:00</time>
      </trkpt>
      <trkpt lat="49.25059" lon="1.12735">
        <ele>91</ele>
        <time>2024-07-02T14:55:53.806+00:00</time>
      </trkpt>
      <trkpt lat="49.25058" lon="1.12727">
        <ele>91</ele>
        <time>2024-07-02T14:55:58.027+00:00</time>
      </trkpt>
      <trkpt lat="49.25057" lon="1.1272">
        <ele>91</ele>
        <time>2024-07-02T14:56:02.169+00:00</time>
      </trkpt>
      <trkpt lat="49.25057" lon="1.12712">
        <ele>91</ele>
        <time>2024-07-02T14:56:06.579+00:00</time>
      </trkpt>
      <trkpt lat="49.25058" lon="1.1271">
        <ele>91</ele>
        <time>2024-07-02T14:56:15.600+00:00</time>
      </trkpt>
      <trkpt lat="49.25059" lon="1.12708">
        <ele>93</ele>
        <time>2024-07-02T14:56:20.609+00:00</time>
      </trkpt>
      <trkpt lat="49.25059" lon="1.12705">
        <ele>93</ele>
        <time>2024-07-02T14:56:25.593+00:00</time>
      </trkpt>
      <trkpt lat="49.25059" lon="1.12703">
        <ele>93</ele>
        <time>2024-07-02T14:56:29.589+00:00</time>
      </trkpt>
      <trkpt lat="49.2506" lon="1.12696">
        <ele>93</ele>
        <time>2024-07-02T14:56:33.820+00:00</time>
      </trkpt>
      <trkpt lat="49.25058" lon="1.12685">
        <ele>93</ele>
        <time>2024-07-02T14:56:46.588+00:00</time>
      </trkpt>
      <trkpt lat="49.25057" lon="1.12685">
        <ele>93</ele>
        <time>2024-07-02T14:56:51.601+00:00</time>
      </trkpt>
      <trkpt lat="49.25056" lon="1.12685">
        <ele>93</ele>
        <time>2024-07-02T14:56:56.610+00:00</time>
      </trkpt>
      <trkpt lat="49.25055" lon="1.12684">
        <ele>93</ele>
        <time>2024-07-02T14:57:01.590+00:00</time>
      </trkpt>
      <trkpt lat="49.25054" lon="1.12676">
        <ele>94</ele>
        <time>2024-07-02T14:57:05.597+00:00</time>
      </trkpt>
      <trkpt lat="49.25053" lon="1.12671">
        <ele>94</ele>
        <time>2024-07-02T14:57:10.590+00:00</time>
      </trkpt>
      <trkpt lat="49.25053" lon="1.12664">
        <ele>94</ele>
        <time>2024-07-02T14:57:14.585+00:00</time>
      </trkpt>
      <trkpt lat="49.25054" lon="1.12657">
        <ele>94</ele>
        <time>2024-07-02T14:57:19.600+00:00</time>
      </trkpt>
      <trkpt lat="49.25053" lon="1.12651">
        <ele>95</ele>
        <time>2024-07-02T14:57:23.613+00:00</time>
      </trkpt>
      <trkpt lat="49.25053" lon="1.12643">
        <ele>95</ele>
        <time>2024-07-02T14:57:28.582+00:00</time>
      </trkpt>
      <trkpt lat="49.25053" lon="1.12634">
        <ele>95</ele>
        <time>2024-07-02T14:57:33.524+00:00</time>
      </trkpt>
      <trkpt lat="49.25054" lon="1.12627">
        <ele>95</ele>
        <time>2024-07-02T14:57:37.570+00:00</time>
      </trkpt>
      <trkpt lat="49.25054" lon="1.12621">
        <ele>96</ele>
        <time>2024-07-02T14:57:41.594+00:00</time>
      </trkpt>
      <trkpt lat="49.25053" lon="1.12613">
        <ele>96</ele>
        <time>2024-07-02T14:57:45.743+00:00</time>
      </trkpt>
      <trkpt lat="49.2505" lon="1.12605">
        <ele>96</ele>
        <time>2024-07-02T14:57:49.868+00:00</time>
      </trkpt>
      <trkpt lat="49.2505" lon="1.12597">
        <ele>98</ele>
        <time>2024-07-02T14:57:53.949+00:00</time>
      </trkpt>
      <trkpt lat="49.25049" lon="1.1259">
        <ele>98</ele>
        <time>2024-07-02T14:57:57.998+00:00</time>
      </trkpt>
      <trkpt lat="49.25049" lon="1.12583">
        <ele>98</ele>
        <time>2024-07-02T14:58:02.598+00:00</time>
      </trkpt>
      <trkpt lat="49.25048" lon="1.12576">
        <ele>98</ele>
        <time>2024-07-02T14:58:06.746+00:00</time>
      </trkpt>
      <trkpt lat="49.25045" lon="1.12569">
        <ele>100</ele>
        <time>2024-07-02T14:58:11.288+00:00</time>
      </trkpt>
      <trkpt lat="49.25041" lon="1.12564">
        <ele>97</ele>
        <time>2024-07-02T14:58:15.841+00:00</time>
      </trkpt>
      <trkpt lat="49.25038" lon="1.12558">
        <ele>97</ele>
        <time>2024-07-02T14:58:19.954+00:00</time>
      </trkpt>
      <trkpt lat="49.25037" lon="1.12551">
        <ele>97</ele>
        <time>2024-07-02T14:58:24.398+00:00</time>
      </trkpt>
      <trkpt lat="49.25037" lon="1.12542">
        <ele>97</ele>
        <time>2024-07-02T14:58:28.522+00:00</time>
      </trkpt>
      <trkpt lat="49.25036" lon="1.12534">
        <ele>97</ele>
        <time>2024-07-02T14:58:32.603+00:00</time>
      </trkpt>
      <trkpt lat="49.25034" lon="1.12527">
        <ele>97</ele>
        <time>2024-07-02T14:58:36.963+00:00</time>
      </trkpt>
      <trkpt lat="49.25034" lon="1.12522">
        <ele>97</ele>
        <time>2024-07-02T14:58:41.612+00:00</time>
      </trkpt>
      <trkpt lat="49.25033" lon="1.12521">
        <ele>97</ele>
        <time>2024-07-02T14:58:46.583+00:00</time>
      </trkpt>
      <trkpt lat="49.25031" lon="1.1252">
        <ele>97</ele>
        <time>2024-07-02T14:58:51.585+00:00</time>
      </trkpt>
      <trkpt lat="49.25029" lon="1.12515">
        <ele>97</ele>
        <time>2024-07-02T14:58:56.572+00:00</time>
      </trkpt>
      <trkpt lat="49.25028" lon="1.12506">
        <ele>99</ele>
        <time>2024-07-02T14:59:19.592+00:00</time>
      </trkpt>
      <trkpt lat="49.25027" lon="1.12506">
        <ele>99</ele>
        <time>2024-07-02T14:59:23.602+00:00</time>
      </trkpt>
      <trkpt lat="49.25027" lon="1.12505">
        <ele>99</ele>
        <time>2024-07-02T14:59:28.606+00:00</time>
      </trkpt>
      <trkpt lat="49.25025" lon="1.12502">
        <ele>99</ele>
        <time>2024-07-02T14:59:33.590+00:00</time>
      </trkpt>
      <trkpt lat="49.25022" lon="1.12497">
        <ele>99</ele>
        <time>2024-07-02T14:59:38.148+00:00</time>
      </trkpt>
      <trkpt lat="49.2502" lon="1.12491">
        <ele>99</ele>
        <time>2024-07-02T14:59:42.411+00:00</time>
      </trkpt>
      <trkpt lat="49.25018" lon="1.12487">
        <ele>99</ele>
        <time>2024-07-02T14:59:46.465+00:00</time>
      </trkpt>
      <trkpt lat="49.25017" lon="1.12481">
        <ele>98</ele>
        <time>2024-07-02T14:59:50.520+00:00</time>
      </trkpt>
      <trkpt lat="49.25017" lon="1.12476">
        <ele>98</ele>
        <time>2024-07-02T14:59:54.723+00:00</time>
      </trkpt>
      <trkpt lat="49.25017" lon="1.1247">
        <ele>98</ele>
        <time>2024-07-02T14:59:59.022+00:00</time>
      </trkpt>
      <trkpt lat="49.25016" lon="1.12464">
        <ele>98</ele>
        <time>2024-07-02T15:00:03.287+00:00</time>
      </trkpt>
      <trkpt lat="49.25015" lon="1.12458">
        <ele>98</ele>
        <time>2024-07-02T15:00:07.537+00:00</time>
      </trkpt>
      <trkpt lat="49.25014" lon="1.12453">
        <ele>99</ele>
        <time>2024-07-02T15:00:11.641+00:00</time>
      </trkpt>
      <trkpt lat="49.25013" lon="1.12447">
        <ele>94</ele>
        <time>2024-07-02T15:00:15.615+00:00</time>
      </trkpt>
      <trkpt lat="49.25013" lon="1.12441">
        <ele>94</ele>
        <time>2024-07-02T15:00:19.892+00:00</time>
      </trkpt>
      <trkpt lat="49.25013" lon="1.12435">
        <ele>94</ele>
        <time>2024-07-02T15:00:24.139+00:00</time>
      </trkpt>
      <trkpt lat="49.25011" lon="1.1243">
        <ele>94</ele>
        <time>2024-07-02T15:00:28.388+00:00</time>
      </trkpt>
      <trkpt lat="49.25008" lon="1.12424">
        <ele>94</ele>
        <time>2024-07-02T15:00:32.602+00:00</time>
      </trkpt>
      <trkpt lat="49.25006" lon="1.12418">
        <ele>94</ele>
        <time>2024-07-02T15:00:37.007+00:00</time>
      </trkpt>
      <trkpt lat="49.25005" lon="1.12412">
        <ele>94</ele>
        <time>2024-07-02T15:00:41.097+00:00</time>
      </trkpt>
      <trkpt lat="49.25004" lon="1.12407">
        <ele>94</ele>
        <time>2024-07-02T15:00:45.263+00:00</time>
      </trkpt>
      <trkpt lat="49.25001" lon="1.12402">
        <ele>93</ele>
        <time>2024-07-02T15:00:49.496+00:00</time>
      </trkpt>
      <trkpt lat="49.24998" lon="1.12397">
        <ele>93</ele>
        <time>2024-07-02T15:00:53.592+00:00</time>
      </trkpt>
      <trkpt lat="49.24996" lon="1.1239">
        <ele>93</ele>
        <time>2024-07-02T15:00:57.868+00:00</time>
      </trkpt>
      <trkpt lat="49.24994" lon="1.12383">
        <ele>93</ele>
        <time>2024-07-02T15:01:02.122+00:00</time>
      </trkpt>
      <trkpt lat="49.24991" lon="1.12376">
        <ele>93</ele>
        <time>2024-07-02T15:01:06.361+00:00</time>
      </trkpt>
      <trkpt lat="49.2499" lon="1.12371">
        <ele>94</ele>
        <time>2024-07-02T15:01:10.479+00:00</time>
      </trkpt>
      <trkpt lat="49.2499" lon="1.12369">
        <ele>94</ele>
        <time>2024-07-02T15:01:14.590+00:00</time>
      </trkpt>
      <trkpt lat="49.24989" lon="1.12366">
        <ele>94</ele>
        <time>2024-07-02T15:01:19.580+00:00</time>
      </trkpt>
      <trkpt lat="49.24987" lon="1.12364">
        <ele>94</ele>
        <time>2024-07-02T15:01:23.595+00:00</time>
      </trkpt>
      <trkpt lat="49.24985" lon="1.1236">
        <ele>90</ele>
        <time>2024-07-02T15:01:32.601+00:00</time>
      </trkpt>
      <trkpt lat="49.24984" lon="1.12358">
        <ele>90</ele>
        <time>2024-07-02T15:01:36.589+00:00</time>
      </trkpt>
      <trkpt lat="49.24984" lon="1.12353">
        <ele>90</ele>
        <time>2024-07-02T15:01:41.594+00:00</time>
      </trkpt>
      <trkpt lat="49.24985" lon="1.1235">
        <ele>90</ele>
        <time>2024-07-02T15:01:46.159+00:00</time>
      </trkpt>
      <trkpt lat="49.24985" lon="1.12342">
        <ele>89</ele>
        <time>2024-07-02T15:01:50.697+00:00</time>
      </trkpt>
      <trkpt lat="49.24985" lon="1.12335">
        <ele>89</ele>
        <time>2024-07-02T15:01:54.862+00:00</time>
      </trkpt>
      <trkpt lat="49.24986" lon="1.1233">
        <ele>89</ele>
        <time>2024-07-02T15:01:58.909+00:00</time>
      </trkpt>
      <trkpt lat="49.24988" lon="1.12325">
        <ele>94</ele>
        <time>2024-07-02T15:02:02.967+00:00</time>
      </trkpt>
      <trkpt lat="49.2499" lon="1.12318">
        <ele>93</ele>
        <time>2024-07-02T15:02:07.604+00:00</time>
      </trkpt>
      <trkpt lat="49.2499" lon="1.1231">
        <ele>93</ele>
        <time>2024-07-02T15:02:12.105+00:00</time>
      </trkpt>
      <trkpt lat="49.24991" lon="1.12302">
        <ele>93</ele>
        <time>2024-07-02T15:02:16.582+00:00</time>
      </trkpt>
      <trkpt lat="49.24992" lon="1.12295">
        <ele>93</ele>
        <time>2024-07-02T15:02:21.099+00:00</time>
      </trkpt>
      <trkpt lat="49.24993" lon="1.12288">
        <ele>91</ele>
        <time>2024-07-02T15:02:25.426+00:00</time>
      </trkpt>
      <trkpt lat="49.24995" lon="1.12282">
        <ele>91</ele>
        <time>2024-07-02T15:02:29.788+00:00</time>
      </trkpt>
      <trkpt lat="49.24998" lon="1.12275">
        <ele>91</ele>
        <time>2024-07-02T15:02:34.103+00:00</time>
      </trkpt>
      <trkpt lat="49.25001" lon="1.1227">
        <ele>91</ele>
        <time>2024-07-02T15:02:38.307+00:00</time>
      </trkpt>
      <trkpt lat="49.25004" lon="1.12266">
        <ele>91</ele>
        <time>2024-07-02T15:02:42.537+00:00</time>
      </trkpt>
      <trkpt lat="49.25007" lon="1.12262">
        <ele>88</ele>
        <time>2024-07-02T15:02:46.740+00:00</time>
      </trkpt>
      <trkpt lat="49.2501" lon="1.12256">
        <ele>88</ele>
        <time>2024-07-02T15:02:51.027+00:00</time>
      </trkpt>
      <trkpt lat="49.25013" lon="1.12251">
        <ele>88</ele>
        <time>2024-07-02T15:02:55.320+00:00</time>
      </trkpt>
      <trkpt lat="49.25016" lon="1.12246">
        <ele>93</ele>
        <time>2024-07-02T15:02:59.572+00:00</time>
      </trkpt>
      <trkpt lat="49.25019" lon="1.1224">
        <ele>93</ele>
        <time>2024-07-02T15:03:03.946+00:00</time>
      </trkpt>
      <trkpt lat="49.25023" lon="1.12235">
        <ele>89</ele>
        <time>2024-07-02T15:03:08.370+00:00</time>
      </trkpt>
      <trkpt lat="49.25025" lon="1.12229">
        <ele>89</ele>
        <time>2024-07-02T15:03:12.521+00:00</time>
      </trkpt>
      <trkpt lat="49.25029" lon="1.12224">
        <ele>89</ele>
        <time>2024-07-02T15:03:16.799+00:00</time>
      </trkpt>
      <trkpt lat="49.25031" lon="1.12219">
        <ele>89</ele>
        <time>2024-07-02T15:03:21.007+00:00</time>
      </trkpt>
      <trkpt lat="49.25035" lon="1.12214">
        <ele>89</ele>
        <time>2024-07-02T15:03:25.209+00:00</time>
      </trkpt>
      <trkpt lat="49.25038" lon="1.12209">
        <ele>89</ele>
        <time>2024-07-02T15:03:29.496+00:00</time>
      </trkpt>
      <trkpt lat="49.25041" lon="1.12203">
        <ele>86</ele>
        <time>2024-07-02T15:03:33.841+00:00</time>
      </trkpt>
      <trkpt lat="49.25045" lon="1.12198">
        <ele>90</ele>
        <time>2024-07-02T15:03:38.162+00:00</time>
      </trkpt>
      <trkpt lat="49.25049" lon="1.12192">
        <ele>90</ele>
        <time>2024-07-02T15:03:42.446+00:00</time>
      </trkpt>
      <trkpt lat="49.25052" lon="1.12188">
        <ele>90</ele>
        <time>2024-07-02T15:03:46.602+00:00</time>
      </trkpt>
      <trkpt lat="49.25057" lon="1.12185">
        <ele>90</ele>
        <time>2024-07-02T15:03:50.966+00:00</time>
      </trkpt>
      <trkpt lat="49.25061" lon="1.12182">
        <ele>90</ele>
        <time>2024-07-02T15:03:55.348+00:00</time>
      </trkpt>
      <trkpt lat="49.25065" lon="1.1218">
        <ele>86</ele>
        <time>2024-07-02T15:03:59.585+00:00</time>
      </trkpt>
      <trkpt lat="49.25069" lon="1.12178">
        <ele>86</ele>
        <time>2024-07-02T15:04:03.829+00:00</time>
      </trkpt>
      <trkpt lat="49.25073" lon="1.12175">
        <ele>88</ele>
        <time>2024-07-02T15:04:08.108+00:00</time>
      </trkpt>
      <trkpt lat="49.25078" lon="1.12172">
        <ele>88</ele>
        <time>2024-07-02T15:04:12.595+00:00</time>
      </trkpt>
      <trkpt lat="49.25083" lon="1.12168">
        <ele>88</ele>
        <time>2024-07-02T15:04:17.280+00:00</time>
      </trkpt>
      <trkpt lat="49.25086" lon="1.12166">
        <ele>88</ele>
        <time>2024-07-02T15:04:21.509+00:00</time>
      </trkpt>
      <trkpt lat="49.2509" lon="1.12163">
        <ele>88</ele>
        <time>2024-07-02T15:04:25.596+00:00</time>
      </trkpt>
      <trkpt lat="49.25095" lon="1.12161">
        <ele>88</ele>
        <time>2024-07-02T15:04:29.826+00:00</time>
      </trkpt>
      <trkpt lat="49.251" lon="1.12158">
        <ele>93</ele>
        <time>2024-07-02T15:04:34.101+00:00</time>
      </trkpt>
      <trkpt lat="49.25104" lon="1.12152">
        <ele>90</ele>
        <time>2024-07-02T15:04:38.423+00:00</time>
      </trkpt>
      <trkpt lat="49.25108" lon="1.12148">
        <ele>90</ele>
        <time>2024-07-02T15:04:42.763+00:00</time>
      </trkpt>
      <trkpt lat="49.25113" lon="1.12145">
        <ele>90</ele>
        <time>2024-07-02T15:04:47.166+00:00</time>
      </trkpt>
      <trkpt lat="49.25117" lon="1.12141">
        <ele>90</ele>
        <time>2024-07-02T15:04:51.516+00:00</time>
      </trkpt>
      <trkpt lat="49.25122" lon="1.12136">
        <ele>90</ele>
        <time>2024-07-02T15:04:55.780+00:00</time>
      </trkpt>
      <trkpt lat="49.25126" lon="1.12134">
        <ele>92</ele>
        <time>2024-07-02T15:05:00.043+00:00</time>
      </trkpt>
      <trkpt lat="49.25131" lon="1.12134">
        <ele>92</ele>
        <time>2024-07-02T15:05:04.280+00:00</time>
      </trkpt>
      <trkpt lat="49.25136" lon="1.12132">
        <ele>92</ele>
        <time>2024-07-02T15:05:08.583+00:00</time>
      </trkpt>
      <trkpt lat="49.2514" lon="1.12129">
        <ele>92</ele>
        <time>2024-07-02T15:05:12.598+00:00</time>
      </trkpt>
      <trkpt lat="49.25145" lon="1.12125">
        <ele>88</ele>
        <time>2024-07-02T15:05:17.162+00:00</time>
      </trkpt>
      <trkpt lat="49.25149" lon="1.1212">
        <ele>88</ele>
        <time>2024-07-02T15:05:21.433+00:00</time>
      </trkpt>
      <trkpt lat="49.25153" lon="1.12116">
        <ele>90</ele>
        <time>2024-07-02T15:05:25.602+00:00</time>
      </trkpt>
      <trkpt lat="49.25158" lon="1.12112">
        <ele>90</ele>
        <time>2024-07-02T15:05:30.028+00:00</time>
      </trkpt>
      <trkpt lat="49.25163" lon="1.12109">
        <ele>90</ele>
        <time>2024-07-02T15:05:34.220+00:00</time>
      </trkpt>
      <trkpt lat="49.25167" lon="1.12104">
        <ele>90</ele>
        <time>2024-07-02T15:05:38.545+00:00</time>
      </trkpt>
      <trkpt lat="49.25171" lon="1.12098">
        <ele>90</ele>
        <time>2024-07-02T15:05:42.819+00:00</time>
      </trkpt>
      <trkpt lat="49.25176" lon="1.12094">
        <ele>87</ele>
        <time>2024-07-02T15:05:47.103+00:00</time>
      </trkpt>
      <trkpt lat="49.2518" lon="1.1209">
        <ele>87</ele>
        <time>2024-07-02T15:05:51.339+00:00</time>
      </trkpt>
      <trkpt lat="49.25184" lon="1.12087">
        <ele>90</ele>
        <time>2024-07-02T15:05:55.593+00:00</time>
      </trkpt>
      <trkpt lat="49.25189" lon="1.12083">
        <ele>90</ele>
        <time>2024-07-02T15:05:59.982+00:00</time>
      </trkpt>
      <trkpt lat="49.25194" lon="1.12081">
        <ele>90</ele>
        <time>2024-07-02T15:06:04.245+00:00</time>
      </trkpt>
      <trkpt lat="49.25198" lon="1.12079">
        <ele>90</ele>
        <time>2024-07-02T15:06:08.569+00:00</time>
      </trkpt>
      <trkpt lat="49.25202" lon="1.12075">
        <ele>90</ele>
        <time>2024-07-02T15:06:13.023+00:00</time>
      </trkpt>
      <trkpt lat="49.25207" lon="1.12071">
        <ele>90</ele>
        <time>2024-07-02T15:06:17.308+00:00</time>
      </trkpt>
      <trkpt lat="49.25211" lon="1.12065">
        <ele>88</ele>
        <time>2024-07-02T15:06:21.603+00:00</time>
      </trkpt>
      <trkpt lat="49.25215" lon="1.12061">
        <ele>88</ele>
        <time>2024-07-02T15:06:25.929+00:00</time>
      </trkpt>
      <trkpt lat="49.25219" lon="1.12057">
        <ele>88</ele>
        <time>2024-07-02T15:06:30.220+00:00</time>
      </trkpt>
      <trkpt lat="49.25224" lon="1.12052">
        <ele>88</ele>
        <time>2024-07-02T15:06:34.511+00:00</time>
      </trkpt>
      <trkpt lat="49.25228" lon="1.12048">
        <ele>88</ele>
        <time>2024-07-02T15:06:38.591+00:00</time>
      </trkpt>
      <trkpt lat="49.25232" lon="1.12044">
        <ele>88</ele>
        <time>2024-07-02T15:06:42.964+00:00</time>
      </trkpt>
      <trkpt lat="49.25236" lon="1.12041">
        <ele>88</ele>
        <time>2024-07-02T15:06:47.287+00:00</time>
      </trkpt>
      <trkpt lat="49.2524" lon="1.12037">
        <ele>88</ele>
        <time>2024-07-02T15:06:51.528+00:00</time>
      </trkpt>
      <trkpt lat="49.25244" lon="1.12033">
        <ele>88</ele>
        <time>2024-07-02T15:06:55.600+00:00</time>
      </trkpt>
      <trkpt lat="49.25247" lon="1.12028">
        <ele>88</ele>
        <time>2024-07-02T15:06:59.999+00:00</time>
      </trkpt>
      <trkpt lat="49.25249" lon="1.12023">
        <ele>88</ele>
        <time>2024-07-02T15:07:09.586+00:00</time>
      </trkpt>
      <trkpt lat="49.25249" lon="1.12021">
        <ele>88</ele>
        <time>2024-07-02T15:07:13.594+00:00</time>
      </trkpt>
      <trkpt lat="49.25251" lon="1.12017">
        <ele>88</ele>
        <time>2024-07-02T15:07:17.596+00:00</time>
      </trkpt>
      <trkpt lat="49.25255" lon="1.12013">
        <ele>87</ele>
        <time>2024-07-02T15:07:21.583+00:00</time>
      </trkpt>
      <trkpt lat="49.25259" lon="1.1201">
        <ele>87</ele>
        <time>2024-07-02T15:07:25.939+00:00</time>
      </trkpt>
      <trkpt lat="49.25263" lon="1.12005">
        <ele>87</ele>
        <time>2024-07-02T15:07:30.266+00:00</time>
      </trkpt>
      <trkpt lat="49.25267" lon="1.12001">
        <ele>91</ele>
        <time>2024-07-02T15:07:34.590+00:00</time>
      </trkpt>
      <trkpt lat="49.2527" lon="1.11997">
        <ele>91</ele>
        <time>2024-07-02T15:07:39.540+00:00</time>
      </trkpt>
      <trkpt lat="49.25269" lon="1.11994">
        <ele>91</ele>
        <time>2024-07-02T15:07:43.597+00:00</time>
      </trkpt>
      <trkpt lat="49.25269" lon="1.11995">
        <ele>91</ele>
        <time>2024-07-02T15:07:59.600+00:00</time>
      </trkpt>
      <trkpt lat="49.25271" lon="1.11993">
        <ele>91</ele>
        <time>2024-07-02T15:08:04.603+00:00</time>
      </trkpt>
      <trkpt lat="49.25273" lon="1.11991">
        <ele>91</ele>
        <time>2024-07-02T15:08:09.004+00:00</time>
      </trkpt>
      <trkpt lat="49.25276" lon="1.11988">
        <ele>91</ele>
        <time>2024-07-02T15:08:13.261+00:00</time>
      </trkpt>
      <trkpt lat="49.25279" lon="1.11985">
        <ele>89</ele>
        <time>2024-07-02T15:08:17.266+00:00</time>
      </trkpt>
      <trkpt lat="49.25282" lon="1.11982">
        <ele>89</ele>
        <time>2024-07-02T15:08:21.602+00:00</time>
      </trkpt>
      <trkpt lat="49.25287" lon="1.11978">
        <ele>89</ele>
        <time>2024-07-02T15:08:26.224+00:00</time>
      </trkpt>
      <trkpt lat="49.25291" lon="1.11976">
        <ele>89</ele>
        <time>2024-07-02T15:08:30.810+00:00</time>
      </trkpt>
      <trkpt lat="49.25293" lon="1.11975">
        <ele>93</ele>
        <time>2024-07-02T15:08:35.592+00:00</time>
      </trkpt>
      <trkpt lat="49.25293" lon="1.11978">
        <ele>93</ele>
        <time>2024-07-02T15:08:41.591+00:00</time>
      </trkpt>
      <trkpt lat="49.25293" lon="1.11978">
        <ele>93</ele>
        <time>2024-07-02T15:08:48.600+00:00</time>
      </trkpt>
      <trkpt lat="49.25293" lon="1.11978">
        <ele>93</ele>
        <time>2024-07-02T15:08:55.593+00:00</time>
      </trkpt>
      <trkpt lat="49.25295" lon="1.11975">
        <ele>93</ele>
        <time>2024-07-02T15:09:00.522+00:00</time>
      </trkpt>
      <trkpt lat="49.25301" lon="1.11971">
        <ele>93</ele>
        <time>2024-07-02T15:09:04.959+00:00</time>
      </trkpt>
      <trkpt lat="49.25306" lon="1.11968">
        <ele>93</ele>
        <time>2024-07-02T15:09:09.573+00:00</time>
      </trkpt>
      <trkpt lat="49.25309" lon="1.11967">
        <ele>93</ele>
        <time>2024-07-02T15:09:13.575+00:00</time>
      </trkpt>
      <trkpt lat="49.25313" lon="1.11965">
        <ele>93</ele>
        <time>2024-07-02T15:09:18.219+00:00</time>
      </trkpt>
      <trkpt lat="49.25317" lon="1.11961">
        <ele>93</ele>
        <time>2024-07-02T15:09:22.579+00:00</time>
      </trkpt>
      <trkpt lat="49.25321" lon="1.1196">
        <ele>99</ele>
        <time>2024-07-02T15:09:27.283+00:00</time>
      </trkpt>
      <trkpt lat="49.25325" lon="1.11959">
        <ele>99</ele>
        <time>2024-07-02T15:09:31.607+00:00</time>
      </trkpt>
      <trkpt lat="49.25329" lon="1.11959">
        <ele>99</ele>
        <time>2024-07-02T15:09:36.099+00:00</time>
      </trkpt>
      <trkpt lat="49.25333" lon="1.11958">
        <ele>95</ele>
        <time>2024-07-02T15:09:40.500+00:00</time>
      </trkpt>
      <trkpt lat="49.25337" lon="1.11957">
        <ele>95</ele>
        <time>2024-07-02T15:09:44.999+00:00</time>
      </trkpt>
      <trkpt lat="49.25341" lon="1.11956">
        <ele>95</ele>
        <time>2024-07-02T15:09:49.178+00:00</time>
      </trkpt>
      <trkpt lat="49.25345" lon="1.11954">
        <ele>95</ele>
        <time>2024-07-02T15:09:53.594+00:00</time>
      </trkpt>
      <trkpt lat="49.25349" lon="1.11953">
        <ele>98</ele>
        <time>2024-07-02T15:09:58.402+00:00</time>
      </trkpt>
      <trkpt lat="49.25353" lon="1.11952">
        <ele>98</ele>
        <time>2024-07-02T15:10:02.560+00:00</time>
      </trkpt>
      <trkpt lat="49.25357" lon="1.11951">
        <ele>98</ele>
        <time>2024-07-02T15:10:06.585+00:00</time>
      </trkpt>
      <trkpt lat="49.25361" lon="1.11949">
        <ele>98</ele>
        <time>2024-07-02T15:10:11.305+00:00</time>
      </trkpt>
      <trkpt lat="49.25364" lon="1.11948">
        <ele>98</ele>
        <time>2024-07-02T15:10:15.323+00:00</time>
      </trkpt>
      <trkpt lat="49.2537" lon="1.1195">
        <ele>98</ele>
        <time>2024-07-02T15:10:19.589+00:00</time>
      </trkpt>
      <trkpt lat="49.25375" lon="1.11951">
        <ele>98</ele>
        <time>2024-07-02T15:10:24.104+00:00</time>
      </trkpt>
      <trkpt lat="49.25379" lon="1.11951">
        <ele>100</ele>
        <time>2024-07-02T15:10:28.527+00:00</time>
      </trkpt>
      <trkpt lat="49.25384" lon="1.1195">
        <ele>100</ele>
        <time>2024-07-02T15:10:32.818+00:00</time>
      </trkpt>
      <trkpt lat="49.25389" lon="1.1195">
        <ele>100</ele>
        <time>2024-07-02T15:10:37.165+00:00</time>
      </trkpt>
      <trkpt lat="49.25393" lon="1.11949">
        <ele>100</ele>
        <time>2024-07-02T15:10:41.505+00:00</time>
      </trkpt>
      <trkpt lat="49.25398" lon="1.11948">
        <ele>100</ele>
        <time>2024-07-02T15:10:45.924+00:00</time>
      </trkpt>
      <trkpt lat="49.25403" lon="1.11947">
        <ele>101</ele>
        <time>2024-07-02T15:10:50.304+00:00</time>
      </trkpt>
      <trkpt lat="49.25408" lon="1.11947">
        <ele>101</ele>
        <time>2024-07-02T15:10:54.574+00:00</time>
      </trkpt>
      <trkpt lat="49.25411" lon="1.11948">
        <ele>101</ele>
        <time>2024-07-02T15:10:58.527+00:00</time>
      </trkpt>
      <trkpt lat="49.25416" lon="1.1195">
        <ele>101</ele>
        <time>2024-07-02T15:11:02.970+00:00</time>
      </trkpt>
      <trkpt lat="49.25421" lon="1.11951">
        <ele>101</ele>
        <time>2024-07-02T15:11:07.360+00:00</time>
      </trkpt>
      <trkpt lat="49.25425" lon="1.11951">
        <ele>101</ele>
        <time>2024-07-02T15:11:11.590+00:00</time>
      </trkpt>
      <trkpt lat="49.2543" lon="1.1195">
        <ele>101</ele>
        <time>2024-07-02T15:11:16.028+00:00</time>
      </trkpt>
      <trkpt lat="49.25434" lon="1.1195">
        <ele>101</ele>
        <time>2024-07-02T15:11:20.460+00:00</time>
      </trkpt>
      <trkpt lat="49.25438" lon="1.11949">
        <ele>101</ele>
        <time>2024-07-02T15:11:24.945+00:00</time>
      </trkpt>
      <trkpt lat="49.25442" lon="1.11949">
        <ele>101</ele>
        <time>2024-07-02T15:11:29.286+00:00</time>
      </trkpt>
      <trkpt lat="49.25446" lon="1.11948">
        <ele>101</ele>
        <time>2024-07-02T15:11:33.592+00:00</time>
      </trkpt>
      <trkpt lat="49.25451" lon="1.11945">
        <ele>101</ele>
        <time>2024-07-02T15:11:38.061+00:00</time>
      </trkpt>
      <trkpt lat="49.25456" lon="1.11944">
        <ele>101</ele>
        <time>2024-07-02T15:11:42.547+00:00</time>
      </trkpt>
      <trkpt lat="49.2546" lon="1.11943">
        <ele>102</ele>
        <time>2024-07-02T15:11:46.583+00:00</time>
      </trkpt>
      <trkpt lat="49.25464" lon="1.11943">
        <ele>102</ele>
        <time>2024-07-02T15:11:51.263+00:00</time>
      </trkpt>
      <trkpt lat="49.25468" lon="1.11945">
        <ele>102</ele>
        <time>2024-07-02T15:11:55.604+00:00</time>
      </trkpt>
      <trkpt lat="49.25473" lon="1.11945">
        <ele>102</ele>
        <time>2024-07-02T15:12:00.424+00:00</time>
      </trkpt>
      <trkpt lat="49.25476" lon="1.11945">
        <ele>102</ele>
        <time>2024-07-02T15:12:04.586+00:00</time>
      </trkpt>
      <trkpt lat="49.25479" lon="1.11944">
        <ele>102</ele>
        <time>2024-07-02T15:12:09.942+00:00</time>
      </trkpt>
      <trkpt lat="49.25483" lon="1.11942">
        <ele>102</ele>
        <time>2024-07-02T15:12:14.431+00:00</time>
      </trkpt>
      <trkpt lat="49.25488" lon="1.11942">
        <ele>101</ele>
        <time>2024-07-02T15:12:18.883+00:00</time>
      </trkpt>
      <trkpt lat="49.25493" lon="1.11941">
        <ele>101</ele>
        <time>2024-07-02T15:12:23.426+00:00</time>
      </trkpt>
      <trkpt lat="49.25498" lon="1.11939">
        <ele>101</ele>
        <time>2024-07-02T15:12:27.886+00:00</time>
      </trkpt>
      <trkpt lat="49.25502" lon="1.11936">
        <ele>101</ele>
        <time>2024-07-02T15:12:32.241+00:00</time>
      </trkpt>
      <trkpt lat="49.25505" lon="1.11931">
        <ele>101</ele>
        <time>2024-07-02T15:12:36.587+00:00</time>
      </trkpt>
      <trkpt lat="49.25508" lon="1.11934">
        <ele>101</ele>
        <time>2024-07-02T15:13:45.602+00:00</time>
      </trkpt>
      <trkpt lat="49.2551" lon="1.11933">
        <ele>101</ele>
        <time>2024-07-02T15:13:50.602+00:00</time>
      </trkpt>
      <trkpt lat="49.25511" lon="1.11931">
        <ele>101</ele>
        <time>2024-07-02T15:13:55.605+00:00</time>
      </trkpt>
      <trkpt lat="49.25515" lon="1.11927">
        <ele>102</ele>
        <time>2024-07-02T15:14:00.587+00:00</time>
      </trkpt>
      <trkpt lat="49.2552" lon="1.11921">
        <ele>102</ele>
        <time>2024-07-02T15:14:04.725+00:00</time>
      </trkpt>
      <trkpt lat="49.25524" lon="1.11918">
        <ele>102</ele>
        <time>2024-07-02T15:14:09.028+00:00</time>
      </trkpt>
      <trkpt lat="49.25527" lon="1.11914">
        <ele>102</ele>
        <time>2024-07-02T15:14:13.328+00:00</time>
      </trkpt>
      <trkpt lat="49.25529" lon="1.11908">
        <ele>102</ele>
        <time>2024-07-02T15:14:17.579+00:00</time>
      </trkpt>
      <trkpt lat="49.25533" lon="1.11903">
        <ele>101</ele>
        <time>2024-07-02T15:14:22.303+00:00</time>
      </trkpt>
      <trkpt lat="49.25534" lon="1.11902">
        <ele>101</ele>
        <time>2024-07-02T15:14:26.587+00:00</time>
      </trkpt>
      <trkpt lat="49.25533" lon="1.11902">
        <ele>101</ele>
        <time>2024-07-02T15:14:31.591+00:00</time>
      </trkpt>
      <trkpt lat="49.25534" lon="1.119">
        <ele>101</ele>
        <time>2024-07-02T15:14:36.073+00:00</time>
      </trkpt>
      <trkpt lat="49.25538" lon="1.11892">
        <ele>101</ele>
        <time>2024-07-02T15:14:40.602+00:00</time>
      </trkpt>
      <trkpt lat="49.25541" lon="1.11885">
        <ele>101</ele>
        <time>2024-07-02T15:14:45.061+00:00</time>
      </trkpt>
      <trkpt lat="49.25543" lon="1.11878">
        <ele>102</ele>
        <time>2024-07-02T15:14:49.593+00:00</time>
      </trkpt>
      <trkpt lat="49.25545" lon="1.11871">
        <ele>101</ele>
        <time>2024-07-02T15:14:53.867+00:00</time>
      </trkpt>
      <trkpt lat="49.25548" lon="1.11864">
        <ele>101</ele>
        <time>2024-07-02T15:14:58.229+00:00</time>
      </trkpt>
      <trkpt lat="49.25549" lon="1.11858">
        <ele>101</ele>
        <time>2024-07-02T15:15:02.598+00:00</time>
      </trkpt>
      <trkpt lat="49.25552" lon="1.11851">
        <ele>101</ele>
        <time>2024-07-02T15:15:06.972+00:00</time>
      </trkpt>
      <trkpt lat="49.25553" lon="1.11845">
        <ele>103</ele>
        <time>2024-07-02T15:15:11.172+00:00</time>
      </trkpt>
      <trkpt lat="49.25555" lon="1.11838">
        <ele>103</ele>
        <time>2024-07-02T15:15:15.607+00:00</time>
      </trkpt>
      <trkpt lat="49.25556" lon="1.11831">
        <ele>103</ele>
        <time>2024-07-02T15:15:20.043+00:00</time>
      </trkpt>
      <trkpt lat="49.25559" lon="1.11814">
        <ele>104</ele>
        <time>2024-07-02T15:15:43.449+00:00</time>
      </trkpt>
      <trkpt lat="49.25562" lon="1.11808">
        <ele>104</ele>
        <time>2024-07-02T15:15:47.597+00:00</time>
      </trkpt>
      <trkpt lat="49.25563" lon="1.11801">
        <ele>104</ele>
        <time>2024-07-02T15:15:51.880+00:00</time>
      </trkpt>
      <trkpt lat="49.25564" lon="1.11794">
        <ele>104</ele>
        <time>2024-07-02T15:15:56.404+00:00</time>
      </trkpt>
      <trkpt lat="49.25565" lon="1.11787">
        <ele>105</ele>
        <time>2024-07-02T15:16:01.089+00:00</time>
      </trkpt>
      <trkpt lat="49.25566" lon="1.11781">
        <ele>105</ele>
        <time>2024-07-02T15:16:05.602+00:00</time>
      </trkpt>
      <trkpt lat="49.25567" lon="1.11776">
        <ele>105</ele>
        <time>2024-07-02T15:16:10.407+00:00</time>
      </trkpt>
      <trkpt lat="49.25569" lon="1.11771">
        <ele>105</ele>
        <time>2024-07-02T15:16:15.008+00:00</time>
      </trkpt>
      <trkpt lat="49.25571" lon="1.11765">
        <ele>108</ele>
        <time>2024-07-02T15:16:19.578+00:00</time>
      </trkpt>
      <trkpt lat="49.25572" lon="1.11759">
        <ele>109</ele>
        <time>2024-07-02T15:16:23.591+00:00</time>
      </trkpt>
      <trkpt lat="49.25573" lon="1.11753">
        <ele>109</ele>
        <time>2024-07-02T15:16:28.166+00:00</time>
      </trkpt>
      <trkpt lat="49.25574" lon="1.11747">
        <ele>109</ele>
        <time>2024-07-02T15:16:32.609+00:00</time>
      </trkpt>
      <trkpt lat="49.25575" lon="1.11739">
        <ele>109</ele>
        <time>2024-07-02T15:16:37.254+00:00</time>
      </trkpt>
      <trkpt lat="49.25575" lon="1.11732">
        <ele>109</ele>
        <time>2024-07-02T15:16:41.596+00:00</time>
      </trkpt>
      <trkpt lat="49.25576" lon="1.11724">
        <ele>109</ele>
        <time>2024-07-02T15:16:46.324+00:00</time>
      </trkpt>
      <trkpt lat="49.25578" lon="1.11718">
        <ele>109</ele>
        <time>2024-07-02T15:16:50.963+00:00</time>
      </trkpt>
      <trkpt lat="49.25581" lon="1.11712">
        <ele>109</ele>
        <time>2024-07-02T15:16:55.577+00:00</time>
      </trkpt>
      <trkpt lat="49.25582" lon="1.11707">
        <ele>109</ele>
        <time>2024-07-02T15:16:59.596+00:00</time>
      </trkpt>
      <trkpt lat="49.25583" lon="1.117">
        <ele>109</ele>
        <time>2024-07-02T15:17:04.263+00:00</time>
      </trkpt>
      <trkpt lat="49.25583" lon="1.11693">
        <ele>109</ele>
        <time>2024-07-02T15:17:08.968+00:00</time>
      </trkpt>
      <trkpt lat="49.25583" lon="1.11686">
        <ele>109</ele>
        <time>2024-07-02T15:17:13.576+00:00</time>
      </trkpt>
      <trkpt lat="49.25584" lon="1.11678">
        <ele>110</ele>
        <time>2024-07-02T15:17:18.130+00:00</time>
      </trkpt>
      <trkpt lat="49.25584" lon="1.11672">
        <ele>110</ele>
        <time>2024-07-02T15:17:22.205+00:00</time>
      </trkpt>
      <trkpt lat="49.25583" lon="1.11667">
        <ele>110</ele>
        <time>2024-07-02T15:17:26.225+00:00</time>
      </trkpt>
      <trkpt lat="49.25584" lon="1.11661">
        <ele>110</ele>
        <time>2024-07-02T15:17:30.608+00:00</time>
      </trkpt>
      <trkpt lat="49.25585" lon="1.11656">
        <ele>110</ele>
        <time>2024-07-02T15:17:34.611+00:00</time>
      </trkpt>
      <trkpt lat="49.25586" lon="1.11648">
        <ele>110</ele>
        <time>2024-07-02T15:17:39.302+00:00</time>
      </trkpt>
      <trkpt lat="49.25587" lon="1.11643">
        <ele>110</ele>
        <time>2024-07-02T15:17:43.543+00:00</time>
      </trkpt>
      <trkpt lat="49.25588" lon="1.11637">
        <ele>110</ele>
        <time>2024-07-02T15:17:47.574+00:00</time>
      </trkpt>
      <trkpt lat="49.25588" lon="1.11633">
        <ele>110</ele>
        <time>2024-07-02T15:17:51.592+00:00</time>
      </trkpt>
      <trkpt lat="49.25589" lon="1.1163">
        <ele>110</ele>
        <time>2024-07-02T15:17:55.962+00:00</time>
      </trkpt>
      <trkpt lat="49.25589" lon="1.11625">
        <ele>109</ele>
        <time>2024-07-02T15:18:00.569+00:00</time>
      </trkpt>
      <trkpt lat="49.25589" lon="1.11619">
        <ele>109</ele>
        <time>2024-07-02T15:18:04.609+00:00</time>
      </trkpt>
      <trkpt lat="49.2559" lon="1.11612">
        <ele>109</ele>
        <time>2024-07-02T15:18:09.261+00:00</time>
      </trkpt>
      <trkpt lat="49.2559" lon="1.11606">
        <ele>109</ele>
        <time>2024-07-02T15:18:13.345+00:00</time>
      </trkpt>
      <trkpt lat="49.25591" lon="1.11601">
        <ele>109</ele>
        <time>2024-07-02T15:18:17.360+00:00</time>
      </trkpt>
      <trkpt lat="49.25591" lon="1.11594">
        <ele>108</ele>
        <time>2024-07-02T15:18:21.983+00:00</time>
      </trkpt>
      <trkpt lat="49.25593" lon="1.11588">
        <ele>108</ele>
        <time>2024-07-02T15:18:26.065+00:00</time>
      </trkpt>
      <trkpt lat="49.25595" lon="1.11583">
        <ele>108</ele>
        <time>2024-07-02T15:18:30.122+00:00</time>
      </trkpt>
      <trkpt lat="49.256" lon="1.11581">
        <ele>110</ele>
        <time>2024-07-02T15:18:34.618+00:00</time>
      </trkpt>
      <trkpt lat="49.25604" lon="1.11579">
        <ele>110</ele>
        <time>2024-07-02T15:18:39.579+00:00</time>
      </trkpt>
      <trkpt lat="49.25608" lon="1.11575">
        <ele>110</ele>
        <time>2024-07-02T15:18:44.248+00:00</time>
      </trkpt>
      <trkpt lat="49.25611" lon="1.11567">
        <ele>108</ele>
        <time>2024-07-02T15:18:48.923+00:00</time>
      </trkpt>
      <trkpt lat="49.25613" lon="1.11563">
        <ele>108</ele>
        <time>2024-07-02T15:18:53.592+00:00</time>
      </trkpt>
      <trkpt lat="49.25614" lon="1.11558">
        <ele>108</ele>
        <time>2024-07-02T15:18:57.924+00:00</time>
      </trkpt>
      <trkpt lat="49.25616" lon="1.11551">
        <ele>108</ele>
        <time>2024-07-02T15:19:02.422+00:00</time>
      </trkpt>
      <trkpt lat="49.2562" lon="1.11546">
        <ele>108</ele>
        <time>2024-07-02T15:19:06.904+00:00</time>
      </trkpt>
      <trkpt lat="49.25623" lon="1.11544">
        <ele>108</ele>
        <time>2024-07-02T15:19:10.882+00:00</time>
      </trkpt>
      <trkpt lat="49.25626" lon="1.11541">
        <ele>109</ele>
        <time>2024-07-02T15:19:15.341+00:00</time>
      </trkpt>
      <trkpt lat="49.25628" lon="1.11536">
        <ele>109</ele>
        <time>2024-07-02T15:19:19.458+00:00</time>
      </trkpt>
      <trkpt lat="49.25631" lon="1.1153">
        <ele>109</ele>
        <time>2024-07-02T15:19:23.589+00:00</time>
      </trkpt>
      <trkpt lat="49.25633" lon="1.11525">
        <ele>109</ele>
        <time>2024-07-02T15:19:28.155+00:00</time>
      </trkpt>
      <trkpt lat="49.25635" lon="1.11518">
        <ele>109</ele>
        <time>2024-07-02T15:19:32.448+00:00</time>
      </trkpt>
      <trkpt lat="49.25637" lon="1.11512">
        <ele>108</ele>
        <time>2024-07-02T15:19:36.568+00:00</time>
      </trkpt>
      <trkpt lat="49.2564" lon="1.11507">
        <ele>108</ele>
        <time>2024-07-02T15:19:40.613+00:00</time>
      </trkpt>
      <trkpt lat="49.25643" lon="1.11501">
        <ele>108</ele>
        <time>2024-07-02T15:19:45.205+00:00</time>
      </trkpt>
      <trkpt lat="49.25646" lon="1.11496">
        <ele>108</ele>
        <time>2024-07-02T15:19:49.588+00:00</time>
      </trkpt>
      <trkpt lat="49.2565" lon="1.11491">
        <ele>108</ele>
        <time>2024-07-02T15:19:53.982+00:00</time>
      </trkpt>
      <trkpt lat="49.25654" lon="1.11488">
        <ele>111</ele>
        <time>2024-07-02T15:19:58.426+00:00</time>
      </trkpt>
      <trkpt lat="49.25657" lon="1.11484">
        <ele>110</ele>
        <time>2024-07-02T15:20:02.762+00:00</time>
      </trkpt>
      <trkpt lat="49.2566" lon="1.1148">
        <ele>110</ele>
        <time>2024-07-02T15:20:07.206+00:00</time>
      </trkpt>
      <trkpt lat="49.25663" lon="1.11474">
        <ele>110</ele>
        <time>2024-07-02T15:20:11.586+00:00</time>
      </trkpt>
      <trkpt lat="49.25665" lon="1.11467">
        <ele>110</ele>
        <time>2024-07-02T15:20:16.024+00:00</time>
      </trkpt>
      <trkpt lat="49.25669" lon="1.11461">
        <ele>110</ele>
        <time>2024-07-02T15:20:20.146+00:00</time>
      </trkpt>
      <trkpt lat="49.25672" lon="1.11456">
        <ele>109</ele>
        <time>2024-07-02T15:20:24.548+00:00</time>
      </trkpt>
      <trkpt lat="49.25674" lon="1.11451">
        <ele>109</ele>
        <time>2024-07-02T15:20:29.160+00:00</time>
      </trkpt>
      <trkpt lat="49.25678" lon="1.11448">
        <ele>109</ele>
        <time>2024-07-02T15:20:33.181+00:00</time>
      </trkpt>
      <trkpt lat="49.25681" lon="1.11443">
        <ele>109</ele>
        <time>2024-07-02T15:20:37.262+00:00</time>
      </trkpt>
      <trkpt lat="49.25684" lon="1.11438">
        <ele>111</ele>
        <time>2024-07-02T15:20:41.524+00:00</time>
      </trkpt>
      <trkpt lat="49.25687" lon="1.11431">
        <ele>111</ele>
        <time>2024-07-02T15:20:45.785+00:00</time>
      </trkpt>
      <trkpt lat="49.25691" lon="1.11426">
        <ele>110</ele>
        <time>2024-07-02T15:20:50.088+00:00</time>
      </trkpt>
      <trkpt lat="49.25694" lon="1.11421">
        <ele>110</ele>
        <time>2024-07-02T15:20:54.558+00:00</time>
      </trkpt>
      <trkpt lat="49.25698" lon="1.11416">
        <ele>110</ele>
        <time>2024-07-02T15:20:59.082+00:00</time>
      </trkpt>
      <trkpt lat="49.25701" lon="1.11412">
        <ele>110</ele>
        <time>2024-07-02T15:21:03.524+00:00</time>
      </trkpt>
      <trkpt lat="49.25705" lon="1.11408">
        <ele>110</ele>
        <time>2024-07-02T15:21:07.909+00:00</time>
      </trkpt>
      <trkpt lat="49.25708" lon="1.11403">
        <ele>110</ele>
        <time>2024-07-02T15:21:12.389+00:00</time>
      </trkpt>
      <trkpt lat="49.2571" lon="1.11399">
        <ele>112</ele>
        <time>2024-07-02T15:21:16.499+00:00</time>
      </trkpt>
      <trkpt lat="49.25713" lon="1.11393">
        <ele>112</ele>
        <time>2024-07-02T15:21:39.043+00:00</time>
      </trkpt>
      <trkpt lat="49.25713" lon="1.11393">
        <ele>112</ele>
        <time>2024-07-02T15:21:43.591+00:00</time>
      </trkpt>
      <trkpt lat="49.25713" lon="1.11392">
        <ele>112</ele>
        <time>2024-07-02T15:21:48.084+00:00</time>
      </trkpt>
      <trkpt lat="49.25718" lon="1.11389">
        <ele>112</ele>
        <time>2024-07-02T15:21:52.444+00:00</time>
      </trkpt>
      <trkpt lat="49.25722" lon="1.11382">
        <ele>112</ele>
        <time>2024-07-02T15:21:56.610+00:00</time>
      </trkpt>
      <trkpt lat="49.25725" lon="1.11376">
        <ele>112</ele>
        <time>2024-07-02T15:22:01.047+00:00</time>
      </trkpt>
      <trkpt lat="49.25726" lon="1.11369">
        <ele>112</ele>
        <time>2024-07-02T15:22:05.226+00:00</time>
      </trkpt>
      <trkpt lat="49.25728" lon="1.11362">
        <ele>112</ele>
        <time>2024-07-02T15:22:09.578+00:00</time>
      </trkpt>
      <trkpt lat="49.25729" lon="1.11358">
        <ele>112</ele>
        <time>2024-07-02T15:22:13.587+00:00</time>
      </trkpt>
      <trkpt lat="49.25731" lon="1.11351">
        <ele>112</ele>
        <time>2024-07-02T15:22:17.946+00:00</time>
      </trkpt>
      <trkpt lat="49.25732" lon="1.11345">
        <ele>112</ele>
        <time>2024-07-02T15:22:22.448+00:00</time>
      </trkpt>
      <trkpt lat="49.25734" lon="1.11341">
        <ele>112</ele>
        <time>2024-07-02T15:22:26.880+00:00</time>
      </trkpt>
      <trkpt lat="49.25736" lon="1.11335">
        <ele>113</ele>
        <time>2024-07-02T15:22:31.201+00:00</time>
      </trkpt>
      <trkpt lat="49.25738" lon="1.11329">
        <ele>113</ele>
        <time>2024-07-02T15:22:35.523+00:00</time>
      </trkpt>
      <trkpt lat="49.2574" lon="1.11323">
        <ele>113</ele>
        <time>2024-07-02T15:22:39.983+00:00</time>
      </trkpt>
      <trkpt lat="49.25742" lon="1.11317">
        <ele>114</ele>
        <time>2024-07-02T15:22:44.416+00:00</time>
      </trkpt>
      <trkpt lat="49.25744" lon="1.11313">
        <ele>114</ele>
        <time>2024-07-02T15:22:48.593+00:00</time>
      </trkpt>
      <trkpt lat="49.25745" lon="1.11307">
        <ele>114</ele>
        <time>2024-07-02T15:22:52.989+00:00</time>
      </trkpt>
      <trkpt lat="49.25746" lon="1.11301">
        <ele>114</ele>
        <time>2024-07-02T15:22:57.029+00:00</time>
      </trkpt>
      <trkpt lat="49.25747" lon="1.11294">
        <ele>114</ele>
        <time>2024-07-02T15:23:01.221+00:00</time>
      </trkpt>
      <trkpt lat="49.25749" lon="1.11286">
        <ele>115</ele>
        <time>2024-07-02T15:23:05.501+00:00</time>
      </trkpt>
      <trkpt lat="49.25752" lon="1.1128">
        <ele>115</ele>
        <time>2024-07-02T15:23:09.761+00:00</time>
      </trkpt>
      <trkpt lat="49.25754" lon="1.11274">
        <ele>115</ele>
        <time>2024-07-02T15:23:14.084+00:00</time>
      </trkpt>
      <trkpt lat="49.25756" lon="1.11268">
        <ele>115</ele>
        <time>2024-07-02T15:23:18.287+00:00</time>
      </trkpt>
      <trkpt lat="49.25758" lon="1.11262">
        <ele>116</ele>
        <time>2024-07-02T15:23:22.619+00:00</time>
      </trkpt>
      <trkpt lat="49.25759" lon="1.11257">
        <ele>116</ele>
        <time>2024-07-02T15:23:26.826+00:00</time>
      </trkpt>
      <trkpt lat="49.25759" lon="1.11257">
        <ele>116</ele>
        <time>2024-07-02T15:23:31.607+00:00</time>
      </trkpt>
      <trkpt lat="49.25762" lon="1.11256">
        <ele>116</ele>
        <time>2024-07-02T15:23:35.981+00:00</time>
      </trkpt>
      <trkpt lat="49.25765" lon="1.1125">
        <ele>117</ele>
        <time>2024-07-02T15:23:40.123+00:00</time>
      </trkpt>
      <trkpt lat="49.25767" lon="1.11244">
        <ele>117</ele>
        <time>2024-07-02T15:23:44.307+00:00</time>
      </trkpt>
      <trkpt lat="49.25768" lon="1.11237">
        <ele>117</ele>
        <time>2024-07-02T15:23:48.504+00:00</time>
      </trkpt>
      <trkpt lat="49.2577" lon="1.11231">
        <ele>116</ele>
        <time>2024-07-02T15:23:52.604+00:00</time>
      </trkpt>
      <trkpt lat="49.25772" lon="1.11226">
        <ele>116</ele>
        <time>2024-07-02T15:23:56.967+00:00</time>
      </trkpt>
      <trkpt lat="49.25774" lon="1.11221">
        <ele>116</ele>
        <time>2024-07-02T15:24:01.140+00:00</time>
      </trkpt>
      <trkpt lat="49.25776" lon="1.11215">
        <ele>116</ele>
        <time>2024-07-02T15:24:05.384+00:00</time>
      </trkpt>
      <trkpt lat="49.25778" lon="1.11207">
        <ele>115</ele>
        <time>2024-07-02T15:24:10.046+00:00</time>
      </trkpt>
      <trkpt lat="49.25778" lon="1.11201">
        <ele>115</ele>
        <time>2024-07-02T15:24:14.405+00:00</time>
      </trkpt>
      <trkpt lat="49.25778" lon="1.11195">
        <ele>115</ele>
        <time>2024-07-02T15:24:18.604+00:00</time>
      </trkpt>
      <trkpt lat="49.25781" lon="1.11188">
        <ele>115</ele>
        <time>2024-07-02T15:24:23.204+00:00</time>
      </trkpt>
      <trkpt lat="49.25783" lon="1.11182">
        <ele>115</ele>
        <time>2024-07-02T15:24:27.310+00:00</time>
      </trkpt>
      <trkpt lat="49.25784" lon="1.11176">
        <ele>114</ele>
        <time>2024-07-02T15:24:31.340+00:00</time>
      </trkpt>
      <trkpt lat="49.25785" lon="1.11176">
        <ele>114</ele>
        <time>2024-07-02T15:24:35.766+00:00</time>
      </trkpt>
      <trkpt lat="49.25785" lon="1.11175">
        <ele>114</ele>
        <time>2024-07-02T15:24:40.144+00:00</time>
      </trkpt>
      <trkpt lat="49.25789" lon="1.11173">
        <ele>114</ele>
        <time>2024-07-02T15:24:44.608+00:00</time>
      </trkpt>
      <trkpt lat="49.25793" lon="1.11175">
        <ele>114</ele>
        <time>2024-07-02T15:24:48.919+00:00</time>
      </trkpt>
      <trkpt lat="49.25796" lon="1.11172">
        <ele>114</ele>
        <time>2024-07-02T15:24:53.039+00:00</time>
      </trkpt>
      <trkpt lat="49.25798" lon="1.11172">
        <ele>114</ele>
        <time>2024-07-02T15:24:57.599+00:00</time>
      </trkpt>
      <trkpt lat="49.25801" lon="1.1117">
        <ele>114</ele>
        <time>2024-07-02T15:25:01.595+00:00</time>
      </trkpt>
      <trkpt lat="49.25806" lon="1.11169">
        <ele>114</ele>
        <time>2024-07-02T15:25:06.006+00:00</time>
      </trkpt>
      <trkpt lat="49.2581" lon="1.11166">
        <ele>114</ele>
        <time>2024-07-02T15:25:10.259+00:00</time>
      </trkpt>
      <trkpt lat="49.25815" lon="1.11163">
        <ele>114</ele>
        <time>2024-07-02T15:25:14.584+00:00</time>
      </trkpt>
      <trkpt lat="49.25818" lon="1.11159">
        <ele>114</ele>
        <time>2024-07-02T15:25:18.596+00:00</time>
      </trkpt>
      <trkpt lat="49.25823" lon="1.11157">
        <ele>117</ele>
        <time>2024-07-02T15:25:23.062+00:00</time>
      </trkpt>
      <trkpt lat="49.25827" lon="1.11153">
        <ele>117</ele>
        <time>2024-07-02T15:25:27.146+00:00</time>
      </trkpt>
      <trkpt lat="49.25832" lon="1.1115">
        <ele>117</ele>
        <time>2024-07-02T15:25:31.302+00:00</time>
      </trkpt>
      <trkpt lat="49.25836" lon="1.11146">
        <ele>117</ele>
        <time>2024-07-02T15:25:35.599+00:00</time>
      </trkpt>
      <trkpt lat="49.25839" lon="1.11143">
        <ele>117</ele>
        <time>2024-07-02T15:25:40.388+00:00</time>
      </trkpt>
      <trkpt lat="49.25843" lon="1.1114">
        <ele>117</ele>
        <time>2024-07-02T15:25:44.959+00:00</time>
      </trkpt>
      <trkpt lat="49.25847" lon="1.11136">
        <ele>119</ele>
        <time>2024-07-02T15:25:49.542+00:00</time>
      </trkpt>
      <trkpt lat="49.25852" lon="1.11133">
        <ele>119</ele>
        <time>2024-07-02T15:25:53.927+00:00</time>
      </trkpt>
      <trkpt lat="49.25856" lon="1.11132">
        <ele>119</ele>
        <time>2024-07-02T15:25:58.519+00:00</time>
      </trkpt>
      <trkpt lat="49.2586" lon="1.11129">
        <ele>119</ele>
        <time>2024-07-02T15:26:02.983+00:00</time>
      </trkpt>
      <trkpt lat="49.25871" lon="1.11121">
        <ele>119</ele>
        <time>2024-07-02T15:26:20.603+00:00</time>
      </trkpt>
      <trkpt lat="49.25871" lon="1.11121">
        <ele>119</ele>
        <time>2024-07-02T15:26:24.606+00:00</time>
      </trkpt>
      <trkpt lat="49.25875" lon="1.11118">
        <ele>120</ele>
        <time>2024-07-02T15:26:28.924+00:00</time>
      </trkpt>
      <trkpt lat="49.2588" lon="1.11114">
        <ele>120</ele>
        <time>2024-07-02T15:26:33.406+00:00</time>
      </trkpt>
      <trkpt lat="49.25884" lon="1.11111">
        <ele>120</ele>
        <time>2024-07-02T15:26:37.611+00:00</time>
      </trkpt>
      <trkpt lat="49.25887" lon="1.11111">
        <ele>120</ele>
        <time>2024-07-02T15:26:42.324+00:00</time>
      </trkpt>
      <trkpt lat="49.25891" lon="1.11108">
        <ele>120</ele>
        <time>2024-07-02T15:26:46.623+00:00</time>
      </trkpt>
      <trkpt lat="49.25896" lon="1.11106">
        <ele>120</ele>
        <time>2024-07-02T15:26:50.888+00:00</time>
      </trkpt>
      <trkpt lat="49.259" lon="1.11107">
        <ele>120</ele>
        <time>2024-07-02T15:26:55.226+00:00</time>
      </trkpt>
      <trkpt lat="49.25905" lon="1.11109">
        <ele>121</ele>
        <time>2024-07-02T15:26:59.602+00:00</time>
      </trkpt>
      <trkpt lat="49.25908" lon="1.1111">
        <ele>121</ele>
        <time>2024-07-02T15:27:04.059+00:00</time>
      </trkpt>
      <trkpt lat="49.25913" lon="1.11112">
        <ele>121</ele>
        <time>2024-07-02T15:27:08.507+00:00</time>
      </trkpt>
      <trkpt lat="49.25918" lon="1.11114">
        <ele>121</ele>
        <time>2024-07-02T15:27:13.122+00:00</time>
      </trkpt>
      <trkpt lat="49.25921" lon="1.11117">
        <ele>121</ele>
        <time>2024-07-02T15:27:17.145+00:00</time>
      </trkpt>
      <trkpt lat="49.25924" lon="1.11121">
        <ele>121</ele>
        <time>2024-07-02T15:27:21.269+00:00</time>
      </trkpt>
      <trkpt lat="49.25928" lon="1.11125">
        <ele>121</ele>
        <time>2024-07-02T15:27:25.441+00:00</time>
      </trkpt>
      <trkpt lat="49.25933" lon="1.11131">
        <ele>122</ele>
        <time>2024-07-02T15:27:29.545+00:00</time>
      </trkpt>
    </trkseg>
  </trk>
</gpx>